[[{"header":{"parameterUnit":"m.s-1","parameterCategory":1,"la1":30.6,"la2":28.766,"lo1":-90.7593,"lo2":-88.6598,"dy":0.0162,"dx":0.0183,"nx":116,"ny":114,"refTime":"2024-06-04T06:00:00:Z","depth":0,"parameterNumber":2,"parameterNumberName":"U-component_of_WINDS"},"data":[0.0,0.0,0.0,0.0,0.0,0.0,0.0,0.0,0.0,0.0,0.0,0.0,0.0,0.0,0.0,0.0,0.0,0.0,0.0,0.0,0.0,0.0,0.0,0.0,0.0,0.0,0.0,0.0,0.0,0.0,0.0,0.0,0.0,0.0,0.0,0.0,0.0,0.0,0.0,0.0,0.0,0.0,0.0,0.0,0.0,0.0,0.0,0.0,0.0,0.0,0.0,0.0,0.0,0.0,0.0,0.0,0.0,0.0,0.0,0.0,0.0,0.0,0.0,0.0,0.0,0.0,0.0,0.0,0.0,0.0,0.0,0.0,0.0,0.0,0.0,0.0,0.0,0.0,0.0,0.0,0.0,0.0,0.0,0.0,0.0,0.0,0.0,0.0,0.0,0.0,0.0,0.0,0.0,0.0,0.0,0.0,0.0,0.0,0.0,0.0,0.0,0.0,0.0,0.0,0.0,0.0,0.0,0.0,0.0,0.0,0.0,0.0,0.0,0.0,0.0,0.0,0.0,0.0,0.0,0.0,0.0,0.0,0.0,0.0,0.0,0.0,0.0,0.0,0.0,0.0,0.0,0.0,0.0,0.0,0.0,0.0,0.0,0.0,0.0,0.0,0.0,0.0,0.0,0.0,0.0,0.0,0.0,0.0,0.0,0.0,0.0,0.0,0.0,0.0,0.0,0.0,0.0,0.0,0.0,0.0,0.0,0.0,0.0,0.0,0.0,0.0,0.0,0.0,0.0,0.0,0.0,0.0,0.0,0.0,0.0,0.0,0.0,0.0,0.0,0.0,0.0,0.0,0.0,0.0,0.0,0.0,0.0,0.0,0.0,0.0,0.0,0.0,0.0,0.0,0.0,0.0,0.0,0.0,0.0,0.0,0.0,0.0,0.0,0.0,0.0,0.0,0.0,0.0,0.0,0.0,0.0,0.0,0.0,0.0,0.0,0.0,0.0,0.0,0.0,0.0,0.0,0.0,0.0,0.0,0.0,0.0,0.0,0.0,0.0,0.0,0.0,0.0,0.0,0.0,0.0,0.0,0.0,0.0,0.0,0.0,0.0,0.0,0.0,0.0,0.0,0.0,0.0,0.0,0.0,0.0,0.0,0.0,0.0,0.0,0.0,0.0,0.0,0.0,0.0,0.0,0.0,0.0,0.0,0.0,0.0,0.0,0.0,0.0,0.0,0.0,0.0,0.0,0.0,0.0,0.0,0.0,0.0,0.0,0.0,0.0,0.0,0.0,0.0,0.0,0.0,0.0,0.0,0.0,0.0,0.0,0.0,0.0,0.0,0.0,0.0,0.0,0.0,0.0,0.0,0.0,0.0,0.0,0.0,0.0,0.0,0.0,0.0,0.0,0.0,0.0,0.0,0.0,0.0,0.0,0.0,0.0,0.0,0.0,0.0,0.0,0.0,0.0,0.0,0.0,0.0,0.0,0.0,0.0,0.0,0.0,0.0,0.0,0.0,0.0,0.0,0.0,0.0,0.0,0.0,0.0,0.0,0.0,0.0,0.0,0.0,0.0,0.0,0.0,0.0,0.0,0.0,0.0,0.0,0.0,0.0,0.0,0.0,0.0,0.0,0.0,0.0,0.0,0.0,0.0,0.0,0.0,0.0,0.0,0.0,0.0,0.0,0.0,0.0,0.0,0.0,0.0,0.0,0.0,0.0,0.0,0.0,0.0,0.0,0.0,0.0,0.0,0.0,0.0,0.0,0.0,0.0,0.0,0.0,0.0,0.0,0.0,0.0,0.0,0.0,0.0,0.0,0.0,0.0,0.0,0.0,0.0,0.0,0.0,0.0,0.0,0.0,0.0,0.0,0.0,0.0,0.0,0.0,0.0,0.0,0.0,0.0,0.0,0.0,0.0,0.0,0.0,0.0,0.0,0.0,0.0,0.0,0.0,0.0,0.0,0.0,0.0,0.0,0.0,0.0,0.0,0.0,0.0,0.0,0.0,0.0,0.0,0.0,0.0,0.0,0.0,0.0,0.0,0.0,0.0,0.0,0.0,0.0,0.0,0.0,0.0,0.0,0.0,0.0,0.0,0.0,0.0,0.0,0.0,0.0,0.0,0.0,0.0,0.0,0.0,0.0,0.0,0.0,0.0,0.0,0.0,0.0,0.0,0.0,0.0,0.0,0.0,0.0,0.0,0.0,0.0,0.0,0.0,0.0,0.0,0.0,0.0,0.0,0.0,0.0,0.0,0.0,0.0,0.0,0.0,0.0,0.0,0.0,0.0,0.0,0.0,0.0,0.0,0.0,0.0,0.0,0.0,0.0,0.0,0.0,0.0,0.0,0.0,0.0,0.0,0.0,0.0,0.0,0.0,0.0,0.0,0.0,0.0,0.0,0.0,0.0,0.0,0.0,0.0,0.0,0.0,0.0,0.0,0.0,0.0,0.0,0.0,0.0,0.0,0.0,0.0,0.0,0.0,0.0,0.0,0.0,0.0,0.0,0.0,0.0,0.0,0.0,0.0,0.0,0.0,0.0,0.0,0.0,0.0,0.0,0.0,0.0,0.0,0.0,0.0,0.0,0.0,0.0,0.0,0.0,0.0,0.0,0.0,0.0,0.0,0.0,0.0,0.0,0.0,0.0,0.0,0.0,0.0,0.0,0.0,0.0,0.0,0.0,0.0,0.0,0.0,0.0,0.0,0.0,0.0,0.0,0.0,0.0,0.0,0.0,0.0,0.0,0.0,0.0,0.0,0.0,0.0,0.0,0.0,0.0,0.0,0.0,0.0,0.0,0.0,0.0,0.0,0.0,0.0,0.0,0.0,0.0,0.0,0.0,0.0,0.0,0.0,0.0,0.0,0.0,0.0,0.0,0.0,0.0,0.0,0.0,0.0,0.0,0.0,0.0,0.0,0.0,0.0,0.0,0.0,0.0,0.0,0.0,0.0,0.0,0.0,0.0,0.0,0.0,0.0,0.0,0.0,0.0,0.0,0.0,0.0,0.0,0.0,0.0,0.0,0.0,0.0,0.0,0.0,0.0,0.0,0.0,0.0,0.0,0.0,0.0,0.0,0.0,0.0,0.0,0.0,0.0,0.0,0.0,0.0,0.0,0.0,0.0,0.0,0.0,0.0,0.0,0.0,0.0,0.0,0.0,0.0,0.0,0.0,0.0,0.0,0.0,0.0,0.0,0.0,0.0,0.0,0.0,0.0,0.0,0.0,0.0,0.0,0.0,0.0,0.0,0.0,0.0,0.0,0.0,0.0,0.0,0.0,0.0,0.0,0.0,0.0,0.0,0.0,0.0,0.0,0.0,0.0,0.0,0.0,0.0,0.0,0.0,0.0,0.0,0.0,0.0,0.0,0.0,0.0,0.0,0.0,0.0,0.0,0.0,0.0,0.0,0.0,0.0,0.0,0.0,0.0,0.0,0.0,0.0,0.0,0.0,0.0,0.0,0.0,0.0,0.0,0.0,0.0,0.0,0.0,0.0,0.0,0.0,0.0,0.0,0.0,0.0,0.0,0.0,0.0,0.0,0.0,0.0,0.0,0.0,0.0,0.0,0.0,0.0,0.0,0.0,0.0,0.0,0.0,0.0,0.0,0.0,0.0,0.0,0.0,0.0,0.0,0.0,0.0,0.0,0.0,0.0,0.0,0.0,0.0,0.0,0.0,0.0,0.0,0.0,0.0,0.0,0.0,0.0,0.0,0.0,0.0,0.0,0.0,0.0,0.0,0.0,0.0,0.0,0.0,0.0,0.0,0.0,0.0,0.0,0.0,0.0,0.0,0.0,0.0,0.0,0.0,0.0,0.0,0.0,0.0,0.0,0.0,0.0,0.0,0.0,0.0,0.0,0.0,0.0,0.0,0.0,0.0,0.0,0.0,0.0,0.0,0.0,0.0,0.0,0.0,0.0,0.0,0.0,0.0,0.0,0.0,0.0,0.0,0.0,0.0,0.0,0.0,0.0,0.0,0.0,0.0,0.0,0.0,0.0,0.0,0.0,0.0,0.0,0.0,0.0,0.0,0.0,0.0,0.0,0.0,0.0,0.0,0.0,0.0,0.0,0.0,0.0,0.0,0.0,0.0,0.0,0.0,0.0,0.0,0.0,0.0,0.0,0.0,0.0,0.0,0.0,0.0,0.0,0.0,0.0,0.0,0.0,0.0,0.0,0.0,0.0,0.0,0.0,0.0,0.0,0.0,0.0,0.0,0.0,0.0,0.0,0.0,0.0,0.0,0.0,0.0,0.0,0.0,0.0,0.0,0.0,0.0,0.0,0.0,0.0,0.0,0.0,0.0,0.0,0.0,0.0,0.0,0.0,0.0,0.0,0.0,0.0,0.0,0.0,0.0,0.0,0.0,0.0,0.0,0.0,0.0,0.0,0.0,0.0,0.0,0.0,0.0,0.0,0.0,0.0,0.0,0.0,0.0,0.0,0.0,0.0,0.0,0.0,0.0,0.0,0.0,0.0,0.0,0.0,0.0,0.0,0.0,0.0,0.0,0.0,0.0,0.0,0.0,0.0,0.0,0.0,0.0,0.0,0.0,0.0,0.0,0.0,0.0,0.0,0.0,0.0,0.0,0.0,0.0,0.0,0.0,0.0,0.0,0.0,0.0,0.0,0.0,0.0,0.0,0.0,0.0,0.0,0.0,0.0,0.0,0.0,0.0,0.0,0.0,0.0,0.0,0.0,0.0,0.0,0.0,0.0,0.0,0.0,0.0,0.0,0.0,0.0,0.0,0.0,0.0,0.0,0.0,0.0,0.0,0.0,0.0,0.0,0.0,0.0,0.0,0.0,0.0,0.0,0.0,0.0,0.0,0.0,0.0,0.0,0.0,0.0,0.0,0.0,0.0,0.0,0.0,0.0,0.0,0.0,0.0,0.0,0.0,0.0,0.0,0.0,0.0,0.0,0.0,0.0,0.0,0.0,0.0,0.0,0.0,0.0,0.0,0.0,0.0,0.0,0.0,0.0,0.0,0.0,0.0,0.0,0.0,0.0,0.0,0.0,0.0,0.0,0.0,0.0,0.0,0.0,0.0,0.0,0.0,0.0,0.0,0.0,0.0,0.0,0.0,0.0,0.0,0.0,0.0,0.0,0.0,0.0,0.0,0.0,0.0,0.0,0.0,0.0,0.0,0.0,0.0,0.0,0.0,0.0,0.0,0.0,0.0,0.0,0.0,0.0,0.0,0.0,0.0,0.0,0.0,0.0,0.0,0.0,0.0,0.0,0.0,0.0,0.0,0.0,0.0,0.0,0.0,0.0,0.0,0.0,0.0,0.0,0.0,0.0,0.0,0.0,0.0,0.0,0.0,0.0,0.0,0.0,0.0,0.0,0.0,0.0,0.0,0.0,0.0,0.0,0.0,0.0,0.0,0.0,0.0,0.0,0.0,0.0,0.0,0.0,0.0,0.0,0.0,0.0,0.0,0.0,0.0,0.0,0.0,0.0,0.0,0.0,0.0,0.0,0.0,0.0,0.0,0.0,0.0,0.0,0.0,0.0,0.0,0.0,0.0,0.0,0.0,0.0,0.0,0.0,0.0,0.0,0.0,0.0,0.0,0.0,0.0,0.0,0.0,0.0,0.0,0.0,0.0,0.0,0.0,0.0,0.0,0.0,0.0,0.0,0.0,0.0,0.0,0.0,0.0,0.0,0.0,0.0,0.0,0.0,0.0,0.0,0.0,0.0,0.0,0.0,0.0,0.0,0.0,0.0,0.0,0.0,0.0,0.0,0.0,0.0,0.0,0.0,0.0,0.0,0.0,0.0,0.0,0.0,0.0,0.0,0.0,0.0,0.0,0.0,0.0,0.0,0.0,0.0,0.0,0.0,0.0,0.0,0.0,0.0,0.0,0.0,0.0,0.0,0.0,0.0,0.0,0.0,0.0,0.0,0.0,0.0,0.0,0.0,0.0,0.0,0.0,0.0,0.0,0.0,0.0,0.0,0.0,0.0,0.0,0.0,0.0,0.0,0.0,0.0,0.0,0.0,0.0,0.0,0.0,0.0,0.0,0.0,0.0,0.0,0.0,0.0,0.0,0.0,0.0,0.0,0.0,0.0,0.0,0.0,0.0,0.0,0.0,0.0,0.0,0.0,0.0,0.0,0.0,0.0,0.0,0.0,0.0,0.0,0.0,-0.7009,0.0,0.0,0.0,0.0,0.0,0.0,0.0,0.0,0.0,0.0,0.0,0.0,0.0,0.0,0.0,0.0,0.0,0.0,0.0,0.0,0.0,0.0,0.0,0.0,-0.1803,-0.1803,-0.1803,-0.1803,-0.1803,-0.1803,0.0,0.0,0.0,0.0,0.0,-0.1894,-0.1787,-0.1882,-0.2248,-0.2124,-0.2276,-0.2672,-0.2548,-0.2557,-0.2624,0.0,0.0,0.0,0.0,0.0,0.0,0.0,0.0,0.0,0.0,0.0,0.0,0.0,0.0,0.0,0.0,0.0,0.0,0.0,0.0,0.0,0.0,0.0,0.0,0.0,0.0,0.0,0.0,0.0,0.0,0.0,0.0,0.0,0.0,0.0,0.0,0.0,0.0,0.0,0.0,0.0,0.0,0.0,0.0,0.0,0.0,0.0,0.0,0.0,0.0,0.0,0.0,0.0,0.0,0.0,0.0,0.0,0.0,0.0,0.0,0.0,0.0,0.0,0.0,0.0,0.0,0.0,0.0,0.0,0.0,0.0,-0.7991,0.0,0.0,0.0,0.0,0.0,0.0,0.0,0.0,0.0,0.0,0.0,0.0,0.0,0.0,0.0,0.0,0.0,0.0,0.0,0.0,0.0,-0.1813,-0.184,-0.1844,-0.1854,-0.1859,-0.1862,-0.1848,-0.1847,-0.1844,0.0,0.0,0.0,-0.1816,-0.1844,-0.1621,-0.1848,-0.2521,-0.226,-0.2547,-0.3362,-0.3692,-0.3702,-0.3476,-0.3163,0.0,0.0,0.0,0.0,0.0,0.0,0.0,0.0,0.0,0.0,0.0,0.0,0.0,0.0,0.0,0.0,0.0,0.0,0.0,0.0,0.0,0.0,0.0,0.0,0.0,0.0,0.0,0.0,0.0,0.0,0.0,0.0,0.0,0.0,0.0,0.0,0.0,0.0,0.0,0.0,0.0,0.0,0.0,0.0,0.0,0.0,0.0,0.0,0.0,0.0,0.0,0.0,0.0,0.0,0.0,0.0,0.0,0.0,0.0,0.0,0.0,0.0,0.0,0.0,-1.0911,-1.0864,-1.1214,-1.1544,-1.1782,-1.0714,-1.0208,-1.0119,0.0,0.0,0.0,0.0,0.0,0.0,0.0,0.0,0.0,0.0,0.0,0.0,0.0,0.0,0.0,0.0,0.0,0.0,0.0,0.0,-0.1854,-0.1967,-0.1981,-0.2032,-0.214,-0.215,-0.2097,-0.1987,-0.1981,0.0,0.0,-0.1803,-0.1842,-0.1977,-0.1932,-0.2127,-0.2575,-0.3163,-0.3755,-0.4315,-0.4385,-0.4449,-0.4564,-0.3878,-0.3597,-0.3573,0.0,0.0,0.0,0.0,0.0,0.0,0.0,0.0,0.0,0.0,0.0,0.0,0.0,0.0,0.0,0.0,0.0,0.0,0.0,0.0,0.0,0.0,0.0,0.0,0.0,0.0,0.0,0.0,0.0,0.0,0.0,0.0,0.0,0.0,0.0,0.0,0.0,0.0,0.0,0.0,0.0,-0.393,-0.4247,0.0,0.0,0.0,0.0,0.0,0.0,0.0,0.0,0.0,0.0,0.0,0.0,0.0,0.0,-0.9994,-1.136,-1.1892,-1.1586,-1.2406,-1.2631,-1.231,-1.2672,-1.2996,-1.3312,-1.3457,0.0,-1.1233,-1.0545,0.0,0.0,0.0,0.0,0.0,0.0,0.0,0.0,0.0,0.0,0.0,0.0,0.0,0.0,0.0,0.0,0.0,0.0,0.0,0.0,0.0,-0.2208,-0.232,-0.2472,-0.2564,-0.2513,-0.23,-0.2287,-0.218,-0.192,-0.1909,-0.194,-0.2008,-0.2343,-0.2845,-0.3498,-0.414,-0.4613,-0.4849,-0.4903,-0.4988,-0.5048,-0.4738,-0.4433,-0.412,-0.3741,0.0,0.0,0.0,0.0,0.0,0.0,0.0,0.0,0.0,0.0,0.0,0.0,0.0,0.0,0.0,0.0,0.0,0.0,0.0,0.0,0.0,0.0,0.0,0.0,0.0,0.0,0.0,0.0,0.0,0.0,0.0,0.0,0.0,0.0,0.0,0.0,0.0,0.0,0.0,-0.3774,-0.4385,-0.4871,-0.4924,-0.4843,0.0,0.0,0.0,0.0,0.0,0.0,0.0,0.0,0.0,-0.9568,-1.0236,-1.0924,-1.1515,-1.2624,-1.3265,-1.345,-1.4024,-1.4283,-1.4323,-1.4474,-1.4625,-1.4768,-1.4927,-1.445,-1.3497,-1.2352,-1.1514,-1.079,0.0,0.0,0.0,0.0,0.0,-0.9664,0.0,0.0,0.0,0.0,0.0,0.0,0.0,0.0,0.0,0.0,0.0,0.0,-0.2298,-0.2483,-0.2678,-0.2835,-0.2957,-0.2907,-0.2675,-0.2585,-0.2424,-0.2133,-0.2086,-0.2103,-0.2181,-0.2827,-0.3559,-0.4319,-0.4861,-0.5129,-0.5218,-0.5356,-0.539,-0.5434,-0.5434,-0.5165,-0.4674,-0.4314,-0.397,-0.3638,0.0,0.0,0.0,0.0,0.0,0.0,0.0,0.0,0.0,0.0,0.0,0.0,0.0,0.0,0.0,0.0,0.0,0.0,0.0,0.0,0.0,0.0,0.0,0.0,0.0,0.0,0.0,0.0,0.0,0.0,0.0,0.0,0.0,0.0,0.0,0.0,0.0,-0.4309,-0.4872,-0.5387,-0.5542,-0.5561,0.0,0.0,0.0,0.0,0.0,0.0,-0.8391,-0.9362,-1.0376,-1.1381,-1.1767,-1.2328,-1.3132,-1.3805,-1.4379,-1.4911,-1.5181,-1.5443,-1.5682,-1.5769,-1.5817,-1.5817,-1.5904,-1.5761,-1.5364,-1.3948,-1.3018,-1.2428,-1.2035,-1.1662,-1.1353,-1.1312,-1.1365,-1.1445,0.0,0.0,0.0,0.0,0.0,0.0,0.0,0.0,0.0,0.0,0.0,-0.2177,-0.2611,-0.2795,-0.3002,-0.3249,-0.3324,-0.3303,-0.3096,-0.2825,-0.263,-0.2465,-0.2299,-0.2328,-0.2671,-0.3504,-0.4187,-0.4693,-0.4987,-0.5255,-0.5584,-0.5596,-0.5693,-0.586,-0.586,-0.5657,-0.5233,-0.4914,-0.4552,-0.423,-0.3721,0.0,0.0,0.0,0.0,0.0,0.0,0.0,0.0,0.0,0.0,0.0,0.0,0.0,0.0,0.0,0.0,0.0,0.0,0.0,0.0,0.0,0.0,0.0,0.0,0.0,0.0,0.0,0.0,0.0,0.0,0.0,0.0,0.0,0.0,0.0,0.0,0.0,0.0,-0.585,-0.6228,0.0,0.0,0.0,0.0,-0.7483,-0.7396,-0.8209,-1.0325,-1.0722,-1.1497,-1.284,-1.3902,-1.4632,-1.5078,-1.5404,-1.5586,-1.5626,-1.5642,-1.5658,-1.569,-1.6023,-1.6174,-1.6198,-1.6532,-1.6476,-1.6071,-1.4949,-1.4222,-1.3654,-1.332,-1.2781,-1.2265,-1.2858,-1.2829,-1.2593,0.0,0.0,0.0,0.0,0.0,-0.1891,-0.1803,-0.1803,-0.1823,-0.1855,-0.2143,-0.2462,-0.2791,-0.3134,-0.3459,-0.3708,-0.3873,-0.3782,-0.3439,-0.3265,-0.3083,-0.289,-0.2744,-0.3017,-0.3836,-0.4264,-0.4707,-0.5273,-0.5393,-0.5547,-0.5791,-0.5791,-0.5823,-0.5888,-0.5888,-0.5819,-0.5673,-0.5362,-0.5047,-0.4726,-0.4414,-0.4011,0.0,0.0,0.0,0.0,0.0,0.0,0.0,0.0,0.0,0.0,0.0,0.0,0.0,0.0,0.0,0.0,0.0,0.0,0.0,0.0,0.0,0.0,0.0,0.0,0.0,0.0,0.0,0.0,0.0,0.0,0.0,0.0,0.0,0.0,0.0,0.0,0.0,-0.6639,-0.6847,0.0,0.0,-0.7289,-0.7609,-0.9028,-0.9488,-1.0416,-1.1899,-1.2692,-1.3628,-1.4707,-1.4733,-1.4994,-1.5499,-1.584,-1.6015,-1.6023,-1.6484,-1.6706,-1.6714,-1.7064,-1.7215,-1.7223,-1.735,-1.7334,-1.7183,-1.681,-1.5897,-1.4836,-1.4475,-1.4273,-1.4067,-1.4119,-1.4088,-1.3953,0.0,0.0,0.0,0.0,-0.1913,-0.1803,-0.1803,-0.1803,-0.1858,-0.2012,-0.2342,-0.2719,-0.309,-0.349,-0.3829,-0.4026,-0.4137,-0.405,-0.3751,-0.3585,-0.3403,-0.3205,-0.3197,-0.3602,-0.4483,-0.4656,-0.5065,-0.5584,-0.5584,-0.5735,-0.5973,-0.5973,-0.6006,-0.6067,-0.6067,-0.6034,-0.6022,-0.5835,-0.5593,-0.517,-0.51,-0.4744,-0.4238,0.0,0.0,0.0,0.0,0.0,0.0,0.0,0.0,0.0,0.0,0.0,0.0,0.0,0.0,0.0,0.0,0.0,0.0,0.0,0.0,0.0,0.0,0.0,0.0,0.0,0.0,0.0,0.0,0.0,0.0,0.0,0.0,0.0,0.0,0.0,-0.6929,-0.7516,-0.753,-0.7851,-0.8793,-0.8555,-0.8863,-1.0387,-1.1071,-1.2049,-1.3528,-1.4029,-1.4728,-1.584,-1.5575,-1.5699,-1.6214,-1.6563,-1.673,-1.6738,-1.7215,-1.7445,-1.7453,-1.7676,-1.7771,-1.7771,-1.7771,-1.7771,-1.7771,-1.7692,-1.7069,-1.6082,-1.5913,-1.5744,-1.5582,-1.5434,-1.5353,-1.5272,0.0,0.0,0.0,-0.1938,-0.185,-0.1803,-0.1803,-0.1803,-0.1967,-0.2417,-0.262,-0.2953,-0.3514,-0.3846,-0.4036,-0.4187,-0.4197,-0.4133,-0.4036,-0.3748,-0.3557,-0.3413,-0.3695,-0.4044,-0.4509,-0.4779,-0.5133,-0.5582,-0.5642,-0.5793,-0.6215,-0.6215,-0.625,-0.642,-0.642,-0.6319,-0.6219,-0.635,-0.6096,-0.5631,-0.5712,-0.5444,-0.4969,0.0,0.0,0.0,0.0,0.0,0.0,0.0,0.0,0.0,0.0,0.0,0.0,0.0,0.0,0.0,0.0,0.0,0.0,0.0,0.0,0.0,0.0,0.0,0.0,0.0,0.0,0.0,0.0,0.0,0.0,0.0,0.0,0.0,-0.6077,-0.7233,-0.8234,-0.8432,-0.826,-0.8457,-0.9314,-0.9675,-1.0381,-1.1563,-1.1991,-1.304,-1.501,-1.455,-1.4855,-1.6246,-1.6587,-1.6937,-1.7294,-1.7612,-1.7771,-1.7771,-1.7787,-1.7787,-1.7787,-1.7795,-1.7803,-1.7803,-1.7803,-1.7803,-1.7803,-1.7652,-1.7564,-1.7564,-1.7453,-1.7182,-1.6831,-1.6831,-1.6647,-1.6367,0.0,0.0,-0.2219,-0.1938,-0.185,-0.1803,-0.1803,-0.1803,-0.1906,-0.2252,-0.2618,-0.3032,-0.3527,-0.3941,-0.4243,-0.4392,-0.4307,-0.4177,-0.4137,-0.3805,-0.3605,-0.367,-0.4284,-0.4666,-0.4794,-0.5176,-0.5543,-0.5825,-0.5946,-0.6164,-0.6343,-0.6343,-0.6371,-0.642,-0.642,-0.6392,-0.6343,-0.6672,-0.6565,-0.6332,-0.6321,-0.6082,-0.5617,0.0,0.0,0.0,0.0,0.0,0.0,0.0,0.0,0.0,0.0,0.0,0.0,0.0,0.0,0.0,0.0,0.0,0.0,0.0,0.0,0.0,0.0,0.0,0.0,0.0,0.0,0.0,0.0,0.0,0.0,0.0,0.0,-0.854,-0.7817,-0.7833,-0.8255,-0.9194,-0.9419,-0.9931,-1.0865,-1.1413,-1.2253,-1.3606,-1.3729,-1.4387,-1.5708,-1.6026,-1.656,-1.7326,-1.7437,-1.7533,-1.7636,-1.7723,-1.7771,-1.7771,-1.8033,-1.8152,-1.816,-1.8414,-1.8541,-1.8541,-1.8541,-1.8541,-1.8533,-1.8451,-1.8367,-1.8146,-1.7293,-1.6919,-1.6742,-1.6551,-1.6455,-1.6367,0.0,-0.2481,-0.2241,-0.2066,-0.1891,-0.1803,-0.1803,-0.1803,-0.1937,-0.2367,-0.2706,-0.3127,-0.37,-0.3995,-0.4212,-0.4358,-0.4244,-0.414,-0.4016,-0.3812,-0.3788,-0.406,-0.4576,-0.4865,-0.4994,-0.5387,-0.5704,-0.5876,-0.6129,-0.6246,-0.642,-0.642,-0.642,-0.642,-0.642,-0.6416,-0.6548,-0.6815,-0.6876,-0.6889,-0.6961,-0.6721,-0.6294,-0.6204,-0.5892,-0.5481,-0.5264,-0.5163,-0.5119,-0.5157,0.0,0.0,0.0,0.0,0.0,0.0,0.0,0.0,0.0,0.0,0.0,0.0,0.0,0.0,0.0,0.0,0.0,0.0,0.0,0.0,0.0,0.0,0.0,0.0,-0.9101,-1.0089,-0.9655,-0.9668,-0.9817,-1.025,-1.068,-1.1313,-1.2365,-1.2775,-1.3373,-1.4458,-1.4972,-1.5634,-1.6484,-1.7017,-1.7478,-1.7763,-1.7914,-1.7993,-1.7993,-1.8144,-1.8216,-1.8216,-1.8422,-1.8518,-1.8526,-1.8732,-1.8827,0.0,-1.8827,-1.8827,-1.8827,-1.8827,-1.8651,0.0,0.0,0.0,0.0,0.0,-1.6769,-1.6769,0.0,-0.2546,-0.235,-0.2259,-0.2044,-0.1869,-0.1869,-0.1847,-0.204,-0.2641,-0.2836,-0.3178,-0.389,-0.3999,-0.4083,-0.4233,-0.4233,-0.4107,-0.3883,-0.3911,-0.4113,-0.4553,-0.4737,-0.4903,-0.5185,-0.5526,-0.5735,-0.5954,-0.6148,-0.6292,-0.6448,-0.6448,-0.6461,-0.6477,-0.6477,-0.661,-0.6805,-0.6941,-0.7061,-0.7236,-0.7428,-0.7253,-0.6805,-0.6676,-0.6478,-0.622,-0.6086,-0.5916,-0.5856,-0.5903,0.0,0.0,0.0,0.0,0.0,0.0,0.0,0.0,0.0,0.0,0.0,0.0,0.0,0.0,0.0,0.0,0.0,0.0,0.0,0.0,0.0,0.0,0.0,0.0,-1.0255,-1.1506,-1.149,-1.2127,-1.2357,-1.1646,-1.1955,-1.2612,-1.3506,-1.3845,-1.4185,-1.4708,-1.5928,-1.6789,-1.7198,0.0,0.0,0.0,0.0,-1.8359,-1.8359,-1.8669,-1.8827,-1.8827,-1.8827,-1.8827,-1.8827,-1.8827,-1.8827,-1.8827,-1.8827,-1.8827,-1.8827,-1.8743,-1.8658,-1.8388,-1.8388,-1.8102,-1.7628,-1.7426,-1.7326,0.0,0.0,-0.2891,-0.2735,-0.2562,-0.2442,-0.2359,-0.2359,-0.2176,-0.2211,-0.2728,-0.2835,-0.3138,-0.3687,-0.402,-0.4235,-0.4494,-0.4437,-0.4385,-0.4371,-0.474,-0.4945,-0.4904,-0.5285,-0.5542,-0.5575,-0.5895,-0.6113,-0.6148,-0.6284,-0.6427,-0.6643,-0.6631,-0.6704,-0.6917,-0.7057,-0.7123,-0.7193,-0.7478,-0.7527,-0.7455,-0.7653,-0.747,-0.7097,-0.7054,-0.6913,-0.667,-0.6627,-0.6677,-0.6788,-0.7012,-0.6928,-0.687,-0.7247,-0.6899,0.0,0.0,0.0,0.0,0.0,0.0,0.0,0.0,0.0,0.0,0.0,0.0,0.0,0.0,0.0,0.0,0.0,0.0,0.0,-1.1275,-1.2006,-1.2627,-1.2855,-1.378,-1.4008,-1.3046,-1.316,-1.3479,-1.3696,-1.4894,-1.5752,-1.597,-1.6568,-1.7221,-1.7842,-1.7948,0.0,-1.8613,-1.8692,-1.8724,-1.8724,-1.8796,-1.8827,-1.8827,0.0,0.0,-1.8827,-1.8827,-1.8827,-1.8827,-1.8827,-1.8827,-1.8827,-1.8658,-1.8288,-1.7815,-1.7815,-1.7628,-1.7333,-1.7333,-1.7326,-1.7326,-0.326,-0.3062,-0.2864,-0.2719,-0.2599,-0.2495,-0.2495,-0.2263,-0.2319,-0.2976,-0.2872,-0.3089,-0.3981,-0.4085,-0.4122,-0.4338,-0.4489,-0.4693,-0.4968,-0.5649,-0.607,-0.6164,-0.6185,-0.624,-0.627,-0.6233,-0.6254,-0.6277,-0.6479,-0.6643,-0.6826,-0.6818,-0.6933,-0.7023,-0.7233,-0.7304,-0.7451,-0.7659,-0.7817,-0.7855,-0.8162,-0.8184,-0.7972,-0.754,-0.7308,-0.7238,-0.7125,-0.7237,-0.7424,-0.7478,-0.7611,-0.7892,-0.815,-0.8001,-0.7711,0.0,0.0,0.0,0.0,0.0,0.0,0.0,0.0,0.0,0.0,0.0,0.0,0.0,0.0,-1.0155,0.0,0.0,-1.2069,-1.2732,-1.345,-1.3892,-1.3732,-1.4503,-1.4714,-1.3668,-1.4158,-1.4655,-1.4977,-1.5624,-1.6297,-1.6881,-1.7232,-1.7566,-1.8201,-1.8308,-1.8561,-1.8819,-1.8827,-1.8827,-1.8827,-1.8827,-1.8827,-1.8827,-1.8827,-1.8827,-1.8827,-1.8827,-1.8743,-1.8658,-1.8658,-1.8558,-1.8458,-1.8187,-1.7916,-1.7721,-1.7527,-1.7426,-1.7326,-1.7326,-1.7326,-1.7326,-0.3408,-0.3169,-0.295,-0.2902,-0.2751,-0.2647,-0.2647,-0.2372,-0.2453,-0.3246,-0.2971,-0.3151,-0.4334,-0.4224,-0.4091,-0.4243,-0.476,-0.5213,-0.5546,-0.6479,-0.7089,-0.7393,-0.7178,-0.7081,-0.7181,-0.6732,-0.6497,-0.668,-0.668,-0.6794,-0.7005,-0.7005,-0.7097,-0.713,-0.7343,-0.7559,-0.7708,-0.792,-0.8036,-0.8193,-0.8536,-0.869,-0.8695,-0.7997,-0.7871,-0.8069,-0.782,-0.7932,-0.8202,-0.7888,-0.8246,-0.883,-0.883,-0.8933,-0.8877,-0.8407,-0.8191,0.0,0.0,0.0,0.0,0.0,0.0,0.0,0.0,0.0,-0.9636,-1.094,-1.1411,-1.2004,-1.3333,-1.3885,-1.4037,-1.3874,-1.4595,-1.5042,-1.4469,-1.4932,-1.5095,-1.4199,-1.4925,-1.5632,-1.6134,-1.6137,-1.6505,-1.7439,-1.7644,-1.7987,-1.8465,-1.8651,-1.8827,-1.8827,-1.8827,-1.8827,-1.8827,-1.8827,-1.8827,-1.8827,-1.8827,-1.8827,-1.8827,-1.8827,-1.8651,-1.8481,-1.8473,-1.828,-1.7994,-1.7815,-1.7628,-1.7621,-1.7426,-1.7326,-1.7326,-1.7326,-1.7326,-1.7326,0.0,-0.3317,-0.3254,-0.3257,-0.3165,-0.3122,-0.3122,-0.2751,-0.2715,-0.3478,-0.3274,-0.3407,-0.4302,-0.4465,-0.4572,-0.469,-0.5518,-0.601,-0.5887,-0.6997,-0.772,-0.7768,-0.808,-0.8329,-0.8291,-0.7712,-0.7428,-0.7568,-0.6962,-0.6867,-0.7196,-0.7196,-0.7356,-0.774,-0.7888,-0.8112,-0.8335,-0.8481,-0.8529,-0.8349,-0.8203,-0.8418,-0.8762,-0.8641,-0.8977,-0.9566,-0.9346,-0.9307,-0.9381,-0.9049,-0.9267,-0.9658,-0.9658,-0.9688,-0.9694,-0.9671,-0.9061,-0.8443,-0.87,-0.8845,-0.9066,-0.9761,-1.0097,-1.0701,0.0,0.0,-1.2356,-1.3139,-1.3502,-1.3829,-1.423,-1.4678,-1.5142,-1.5354,-1.5499,-1.5556,-1.5546,-1.5591,-1.5598,-1.5516,-1.5545,-1.5708,-1.597,-1.659,-1.7002,-1.7198,-1.7965,-1.8442,-1.8481,-1.8651,-1.8827,-1.8827,-1.8827,-1.8827,-1.8827,-1.8827,-1.8827,-1.8827,-1.8827,-1.8827,-1.8827,-1.8827,-1.8651,-1.8481,-1.828,-1.7994,-1.7721,-1.7721,-1.7535,-1.7333,-1.7333,-1.7326,-1.7326,-1.7326,-1.7326,-1.7326,0.0,-0.3408,-0.3345,-0.3309,-0.3272,-0.3257,-0.3257,-0.2929,-0.2911,-0.3569,-0.3434,-0.3613,-0.4491,-0.4665,-0.484,-0.5166,-0.5938,-0.6441,-0.6646,-0.7889,-0.8679,-0.8897,-0.8845,-0.892,-0.9064,-0.8425,-0.8215,-0.8572,-0.83,-0.8379,-0.8786,-0.8861,-0.906,-0.9226,-0.9518,-0.9744,-0.982,-0.9976,-0.992,-0.9679,-0.9856,-1.0015,-1.0067,-1.0253,-1.0513,-1.0662,-0.9874,-0.9582,0.0,-0.9234,-0.9468,-0.9814,-0.9814,-0.9976,-1.0179,-0.9976,-0.9914,-1.001,-1.0358,-1.0614,-1.0833,0.0,-1.1621,-1.2186,-1.2925,-1.2973,-1.3068,-1.3751,-1.4172,-1.4514,-1.5067,-1.5539,-1.5866,0.0,-1.611,-1.6075,-1.6124,-1.5989,-1.5914,-1.5914,-1.5914,-1.6118,-1.656,-1.6908,-1.7293,-1.7942,-1.8303,-1.8574,-1.8658,-1.8735,-1.8827,-1.8827,-1.8827,-1.8827,-1.8827,-1.8827,-1.8827,-1.8827,-1.8827,-1.8827,-1.8827,-1.8827,-1.8643,-1.828,-1.78,-1.7613,-1.7434,-1.7434,-1.7426,-1.7326,-1.7326,-1.7326,-1.7326,-1.7326,-1.7326,-1.7326,0.0,-0.3457,-0.3408,-0.3338,-0.333,-0.3321,-0.33,-0.3031,-0.3051,-0.3668,-0.3655,-0.3905,-0.4762,-0.4903,-0.5055,-0.5329,-0.6092,-0.6681,-0.7048,-0.8365,-0.9252,-0.9546,-0.943,-0.9463,-0.9662,-0.9099,-0.8953,-0.9386,-0.9178,-0.9314,-0.9627,-0.9988,-1.009,-1.017,-1.0605,-1.0864,-1.0864,-1.0953,-1.0815,-1.0611,-1.0817,-1.0849,-1.0802,-1.1085,-1.1248,-1.1118,-1.0294,-0.9903,-0.9814,-0.9496,-0.9585,-0.9832,-0.9832,-1.012,-1.0438,-1.0272,-1.0653,-1.1185,-1.1424,-1.1821,0.0,-1.2401,-1.2989,-1.3545,-1.3648,-1.3672,-1.3807,-1.4307,-1.4617,-1.4943,-1.5451,-1.5904,-1.6293,-1.6466,-1.65,-1.6503,-1.6335,-1.6246,-1.6194,-1.6102,-1.6087,-1.6316,-1.6888,-1.7106,-1.754,-1.8334,-1.8473,-1.8658,-1.8743,-1.8735,-1.8827,-1.8827,-1.8827,-1.8827,-1.8827,-1.8827,-1.8827,-1.8827,-1.8827,-1.8827,-1.8827,-1.8743,-1.8458,-1.8087,-1.7613,-1.7333,-1.7326,-1.7326,-1.7326,-1.7326,-1.7326,-1.7326,-1.7326,-1.7326,-1.7326,-1.7326,0.0,0.0,-0.3485,-0.3408,-0.3387,-0.3372,-0.33,-0.3068,-0.3128,-0.3803,-0.3955,-0.431,-0.5173,-0.5277,-0.5203,-0.5033,-0.5996,-0.6641,-0.6802,-0.8067,-0.8951,-0.9183,-0.9748,-1.006,-1.0066,-0.9706,-0.9592,-0.9807,-0.9136,-0.8917,-0.9006,-0.9586,-0.9913,-1.0142,-1.0598,-1.0944,-1.1093,-1.0761,-1.0647,-1.0593,-1.006,-1.0086,-1.0388,-1.0519,-1.0509,-1.0585,-1.0848,-1.0735,-1.0431,-1.0008,-0.9889,-0.9889,-0.9889,-1.0184,-1.0534,-1.0867,-1.1209,-1.1479,-1.1487,0.0,-1.2765,-1.337,-1.4069,-1.4689,-1.5038,-1.5125,-1.5125,-1.5149,-1.5165,-1.5173,-1.5197,-1.5753,-1.6134,-1.5927,-1.6472,-1.6699,-1.6216,-1.6369,-1.6461,-1.6125,-1.6087,-1.6224,0.0,-1.7164,-1.7637,-1.8033,-1.855,-1.8743,-1.8481,-1.8651,-1.8827,-1.8827,-1.8827,-1.8827,-1.8827,-1.8827,-1.8827,-1.8827,-1.8827,-1.8827,-1.8827,-1.8566,-1.8381,-1.8087,-1.7815,-1.7527,-1.7326,-1.7326,-1.7326,-1.7326,-1.7326,-1.7326,-1.7326,-1.7326,-1.7326,-1.7326,0.0,0.0,0.0,-0.3408,-0.3408,-0.3393,-0.3372,-0.3254,-0.3353,-0.3904,-0.4303,0.0,0.0,0.0,0.0,0.0,-0.6171,-0.6713,-0.6927,-0.792,-0.8651,-0.8938,-0.9325,-0.9719,-1.0107,-1.0085,-1.0249,-1.0593,-1.0454,-1.0453,-1.0585,-1.1032,-1.1286,-1.1362,-1.1733,-1.199,-1.199,-1.1888,-1.184,-1.1792,-1.1249,-1.1073,-1.1162,-1.0668,-1.0334,-1.0196,0.0,-1.0208,-1.0049,-0.97,-0.9731,-0.9922,-0.9922,-1.0176,-1.0593,-1.0891,-1.1233,-1.1646,-1.2361,0.0,-1.3759,-1.4466,-1.499,-1.5364,-1.5483,-1.534,-1.5189,-1.5189,-1.499,-1.4824,-1.4824,-1.513,-1.5372,-1.5529,-1.6056,-1.6377,-1.6408,-1.6705,-1.6789,-1.6469,-1.6614,0.0,0.0,0.0,0.0,-1.7887,-1.8123,-1.8407,-1.8635,-1.8735,-1.8827,-1.8827,-1.8827,-1.8827,-1.8827,-1.8827,-1.8827,-1.8827,-1.8651,-1.8566,-1.8566,-1.8195,-1.8036,-1.8145,-1.7853,-1.7875,-1.7969,-1.7969,-1.7969,-1.7969,-1.7969,-1.7845,-1.7655,-1.7655,-1.7516,-1.7326,0.0,0.0,0.0,0.0,0.0,0.0,0.0,0.0,0.0,0.0,0.0,0.0,0.0,0.0,0.0,0.0,0.0,-0.6446,-0.684,-0.7508,-0.8116,-0.8631,-0.8831,-0.9158,-0.9639,-0.9762,-1.0005,-1.0423,-1.0485,-1.064,-1.0866,-1.13,-1.1486,-1.1493,-1.1992,-1.2175,-1.2167,-1.2058,-1.2006,-1.1963,-1.1428,-1.1143,-1.1019,-1.0504,-1.0113,0.0,-0.9588,-0.9557,-0.9525,-0.9295,-0.9453,-0.9731,-0.9731,-1.024,-1.0875,-1.1106,-1.1598,-1.2266,-1.3203,-1.387,-1.4498,-1.534,-1.5713,-1.5864,-1.5864,-1.5602,-1.5292,-1.5038,-1.4601,-1.426,-1.426,-1.4379,-1.459,-1.5101,-1.5808,-1.6451,-1.6707,-1.706,-1.7133,-1.6804,-1.6855,0.0,0.0,0.0,0.0,-1.8001,-1.8146,-1.8331,-1.8819,-1.8743,-1.8743,-1.8827,-1.8827,-1.8827,-1.8827,-1.8827,-1.8827,-1.8827,-1.8566,-1.8543,-1.8652,-1.8183,-1.8175,-1.8402,-1.8193,-1.8213,-1.8299,-1.8299,-1.8299,-1.8299,-1.8299,-1.8174,-1.7991,-1.7991,-1.7852,-1.7647,0.0,0.0,0.0,0.0,0.0,0.0,0.0,0.0,0.0,0.0,0.0,0.0,0.0,0.0,0.0,0.0,0.0,0.0,-0.6506,-0.6847,-0.7408,-0.827,-0.8387,-0.849,-0.8778,-0.8784,-0.8978,-0.937,-0.928,-0.9435,-0.9891,-1.037,-1.0569,-1.0583,-1.1247,-1.1578,-1.1556,-1.118,-1.1048,-1.1019,-1.0675,-1.0353,-1.0092,-0.9971,-0.9733,-0.941,-0.9046,-0.8905,-0.8905,-0.8905,-0.9159,-0.9485,0.0,0.0,-1.1551,-1.1567,-1.2321,-1.3298,-1.3982,-1.4434,-1.4959,-1.5975,-1.6222,-1.6206,-1.6206,-1.5904,-1.5435,-1.4752,-1.4037,-1.3521,0.0,0.0,-1.3826,-1.4642,-1.5866,-1.6783,-1.6892,-1.7355,-1.7476,0.0,0.0,0.0,0.0,0.0,0.0,-1.8427,0.0,-1.855,-1.8735,-1.8566,-1.8566,-1.8827,-1.8827,-1.8827,-1.8827,-1.8827,-1.8743,-1.8759,-1.8597,-1.8668,-1.8884,-1.8709,-1.8618,-1.8745,-1.8745,-1.8548,-1.835,-1.835,-1.835,-1.835,-1.835,-1.8343,-1.8328,-1.8328,-1.8321,-1.8211,0.0,0.0,0.0,0.0,0.0,0.0,0.0,0.0,0.0,0.0,0.0,0.0,0.0,0.0,0.0,0.0,0.0,0.0,-0.5925,-0.662,-0.7121,-0.7355,-0.7889,-0.8323,-0.8565,-0.8767,-0.8957,-0.9157,-0.9554,-0.9708,-0.9681,-1.0157,-1.0356,-1.0363,-1.0682,-1.0836,-1.0828,-1.0748,-1.0711,-1.066,-1.0213,-0.9879,-0.9732,-0.946,-0.9128,-0.8769,-0.8873,-0.8905,-0.8905,0.0,0.0,0.0,0.0,-1.1781,-1.2345,0.0,0.0,-1.4005,-1.472,-1.5348,-1.5936,-1.6468,-1.6397,-1.6206,-1.6206,-1.5531,-1.4776,-1.4339,-1.3489,-1.2734,0.0,0.0,0.0,-1.3917,-1.5482,0.0,-1.6692,-1.7439,0.0,-1.7041,0.0,-1.7279,-1.7124,-1.7508,0.0,0.0,-1.814,-1.83,-1.8558,-1.8658,-1.8743,-1.8827,-1.8827,-1.8827,-1.8827,-1.8658,-1.8683,-1.8824,-1.8468,-1.8459,-1.8777,-1.8476,-1.8555,-1.8773,-1.8773,-1.8912,-1.903,-1.903,-1.903,-1.903,-1.903,-1.8877,-1.8664,-1.8664,-1.8511,-1.8277,0.0,0.0,0.0,0.0,0.0,0.0,0.0,0.0,0.0,0.0,0.0,0.0,0.0,0.0,0.0,0.0,0.0,0.0,0.0,-0.6172,-0.662,-0.7056,-0.7364,-0.7722,-0.8194,-0.8391,-0.8523,-0.8595,-0.9011,-0.9167,-0.9116,-0.9389,-0.9528,-0.9528,-0.9693,-0.9753,-0.9753,-0.9753,-0.9753,0.0,0.0,-0.9311,-0.9244,-0.9067,-0.8842,-0.8604,-0.8637,-0.8969,0.0,0.0,0.0,-1.1146,-1.1996,-1.2607,-1.3084,-1.3433,0.0,-1.4919,-1.5483,-1.6023,-1.6484,-1.6683,-1.6468,-1.6087,-1.5626,-1.4943,-1.4172,-1.3362,-1.2607,0.0,0.0,0.0,0.0,0.0,0.0,0.0,-1.6556,-1.7266,-1.7574,0.0,-1.7416,0.0,-1.7268,-1.7695,-1.79,0.0,-1.7919,-1.8179,-1.8473,-1.8566,-1.8658,-1.8658,-1.8735,-1.8907,-1.9066,-1.8785,-1.8855,-1.9182,-1.8626,-1.8611,-1.8925,-1.8618,-1.8694,-1.9001,0.0,-1.9103,-1.9279,-1.9279,-1.9279,-1.9279,-1.9279,-1.9162,-1.9001,-1.9001,-1.8884,-1.873,0.0,0.0,0.0,0.0,0.0,0.0,0.0,0.0,0.0,0.0,0.0,0.0,0.0,0.0,0.0,0.0,0.0,0.0,0.0,0.0,-0.6115,-0.7059,-0.6928,-0.7107,-0.7755,-0.782,-0.7909,-0.7982,-0.8169,-0.8325,-0.8457,-0.8501,-0.8522,-0.8522,-0.8638,-0.8692,-0.8692,-0.8692,-0.8663,-0.8665,-0.8743,-0.8714,-0.8693,0.0,-0.866,-0.8637,-0.8545,-0.9064,0.0,0.0,-1.1431,-1.1447,-1.2456,-1.3211,-1.3807,-1.4204,-1.4967,-1.5761,-1.6166,-1.65,-1.6722,-1.6675,-1.6365,-1.5809,-1.48,-1.4228,-1.3521,-1.2162,0.0,-1.1392,-1.1296,-1.1392,-1.1897,-1.3115,0.0,-1.5204,-1.6461,-1.6936,-1.7348,-1.7591,-1.7426,-1.7333,-1.7333,-1.7527,-1.7527,-1.7333,-1.7807,-1.8187,-1.8388,-1.8481,-1.8481,-1.8481,-1.8651,-1.8909,-1.9368,-1.8964,-1.9062,-1.945,-1.8973,-1.8847,-1.9246,-1.8956,-1.9008,-1.9279,0.0,0.0,-1.9279,-1.9279,-1.9279,-1.9279,-1.9279,-1.9279,-1.9279,-1.9279,-1.9279,-1.9279,0.0,0.0,0.0,0.0,0.0,0.0,0.0,0.0,0.0,0.0,-0.5404,-0.5309,0.0,0.0,0.0,0.0,0.0,0.0,0.0,0.0,0.0,-0.6419,-0.6733,-0.7076,-0.7553,-0.7666,0.0,0.0,0.0,-0.8238,-0.8245,-0.856,-0.8685,-0.8685,-0.8685,-0.8692,-0.8692,-0.8692,-0.8623,-0.8461,-0.8535,-0.8405,-0.8146,-0.8359,0.0,0.0,-0.8996,0.0,0.0,-1.1281,-1.2282,-1.2861,-1.3608,-1.4125,-1.4585,-1.5221,-1.5531,-1.5817,-1.6468,-1.6683,-1.6667,-1.6373,-1.5825,-1.5157,-1.4379,-1.3489,0.0,0.0,-1.113,-1.0899,-1.0303,-1.0899,0.0,-1.3115,0.0,0.0,0.0,0.0,-1.7256,0.0,0.0,0.0,0.0,0.0,0.0,0.0,0.0,0.0,-1.8187,-1.8381,-1.8481,-1.8481,-1.828,-1.8426,-1.8956,-1.859,-1.8611,-1.9298,-1.8903,-1.8979,-1.9295,-1.9191,-1.922,-1.9279,0.0,0.0,-1.9279,-1.9279,-1.9279,-1.9279,-1.9279,-1.9279,-1.9279,-1.9279,-1.9279,-1.9279,0.0,0.0,0.0,0.0,0.0,0.0,0.0,-0.5358,-0.5457,-0.6216,-0.611,-0.5845,-0.5538,-0.5371,-0.5309,0.0,0.0,0.0,0.0,0.0,0.0,0.0,-0.6539,-0.6926,0.0,0.0,0.0,0.0,0.0,0.0,0.0,0.0,0.0,0.0,0.0,0.0,0.0,-0.818,-0.8179,-0.8152,0.0,0.0,0.0,0.0,0.0,0.0,0.0,0.0,0.0,0.0,-1.1797,-1.2687,-1.3561,-1.4212,-1.4744,-1.5268,-1.5674,-1.6063,-1.6595,-1.673,-1.6651,-1.6293,-1.569,-1.4903,-1.3823,0.0,0.0,0.0,-1.0438,-1.0335,-0.9986,0.0,0.0,0.0,0.0,0.0,0.0,0.0,0.0,0.0,0.0,0.0,0.0,0.0,0.0,0.0,0.0,0.0,-1.7908,-1.8001,-1.8195,-1.828,-1.8001,-1.8244,-1.9036,-1.8671,-1.8805,-1.9441,-1.914,-1.9125,-1.9279,-1.9279,-1.9279,-1.9279,-1.9279,0.0,-1.9279,-1.9279,-1.9279,-1.9279,-1.9279,-1.9279,-1.9279,-1.9279,-1.9279,-1.9279,0.0,0.0,0.0,0.0,0.0,0.0,0.0,-0.5884,-0.5937,-0.7053,-0.6982,-0.6605,-0.6023,-0.5678,-0.545,0.0,0.0,0.0,0.0,0.0,0.0,0.0,0.0,0.0,0.0,0.0,0.0,0.0,0.0,0.0,0.0,0.0,0.0,0.0,0.0,0.0,0.0,0.0,0.0,0.0,0.0,0.0,0.0,0.0,0.0,0.0,0.0,0.0,0.0,0.0,-1.0963,-1.1749,-1.2806,-1.368,-1.4395,-1.4824,-1.5443,-1.6079,-1.6508,-1.6675,-1.6635,-1.6198,-1.5578,-1.4704,-1.3298,-1.2154,0.0,0.0,-0.9922,-0.9873,-0.9873,0.0,0.0,0.0,0.0,0.0,0.0,0.0,0.0,0.0,0.0,0.0,0.0,0.0,0.0,0.0,0.0,0.0,0.0,-1.7721,-1.7815,-1.7994,-1.7789,-1.811,-1.9003,-1.8783,-1.9011,-1.9576,-1.9376,-1.9279,-1.9279,-1.9279,-1.9279,-1.9279,-1.9279,0.0,0.0,-1.9279,-1.9279,-1.9279,-1.9279,-1.9279,-1.9279,-1.9279,-1.9279,-1.9279,0.0,0.0,0.0,0.0,0.0,0.0,0.0,-0.6703,-0.7097,-0.8293,-0.7898,-0.7308,-0.6824,-0.6402,-0.5929,0.0,0.0,0.0,0.0,0.0,0.0,0.0,0.0,0.0,0.0,0.0,0.0,0.0,0.0,0.0,0.0,0.0,0.0,0.0,0.0,0.0,0.0,0.0,0.0,0.0,0.0,0.0,0.0,0.0,0.0,0.0,0.0,0.0,0.0,0.0,0.0,-1.0295,-1.1352,-1.2393,-1.3362,-1.4021,0.0,0.0,-1.6079,-1.6484,-1.6571,-1.5896,-1.5205,-1.4323,-1.2933,0.0,0.0,-1.0081,-0.9922,-0.9873,-0.9735,-1.0047,0.0,0.0,0.0,-1.2497,0.0,0.0,0.0,0.0,0.0,0.0,0.0,0.0,0.0,0.0,0.0,0.0,0.0,-1.7721,-1.7721,-1.7721,-1.7816,-1.8141,-1.8716,-1.8807,-1.8921,-1.9376,-1.9272,-1.9279,-1.9279,-1.9279,-1.9279,-1.9279,0.0,0.0,0.0,-1.9279,-1.9279,-1.9279,-1.9279,-1.9279,-1.9279,-1.9279,-1.9279,-1.9279,0.0,0.0,0.0,0.0,0.0,0.0,-0.6614,-0.66,-0.6859,-0.8087,-0.7944,-0.7554,-0.7062,-0.6765,-0.6332,-0.5561,0.0,0.0,0.0,0.0,0.0,0.0,0.0,0.0,0.0,0.0,0.0,0.0,0.0,0.0,0.0,0.0,0.0,0.0,0.0,0.0,0.0,0.0,0.0,0.0,0.0,0.0,0.0,0.0,0.0,0.0,0.0,0.0,0.0,0.0,0.0,0.0,-0.9859,-1.0661,0.0,0.0,-1.3989,-1.4736,-1.5642,-1.615,-1.6301,-1.5801,-1.5157,-1.4275,-1.2885,0.0,-1.0788,-1.0073,-0.9825,-0.9784,-0.9686,-0.9872,-1.0083,-1.0429,-1.0483,-1.1049,0.0,0.0,0.0,0.0,0.0,0.0,0.0,0.0,0.0,0.0,0.0,0.0,0.0,-1.7434,-1.7434,-1.7434,-1.7647,-1.7977,-1.8405,-1.8728,-1.895,-1.9279,-1.9279,-1.9279,-1.9279,-1.9279,-1.9279,-1.9279,0.0,0.0,0.0,-1.9279,-1.9279,-1.9279,-1.9279,-1.9279,-1.9279,-1.9279,-1.9279,-1.9279,0.0,0.0,0.0,0.0,0.0,-0.5438,-0.6666,-0.6639,-0.6859,-0.7978,-0.7944,-0.7638,-0.7172,-0.6869,-0.6449,-0.5783,-0.6238,0.0,0.0,0.0,0.0,0.0,0.0,0.0,0.0,0.0,0.0,0.0,-0.7814,0.0,0.0,0.0,0.0,0.0,0.0,0.0,0.0,0.0,0.0,0.0,0.0,0.0,0.0,0.0,0.0,0.0,0.0,0.0,0.0,0.0,0.0,0.0,0.0,0.0,-1.0454,0.0,-1.3108,-1.4013,-1.4959,-1.5554,-1.5817,-1.5459,-1.4847,-1.3989,0.0,-1.159,-1.0693,-1.0192,-0.9854,-0.9717,-0.9768,-0.9789,-0.9799,-0.9799,-0.9761,-1.0214,-1.1586,0.0,0.0,0.0,0.0,0.0,0.0,0.0,0.0,0.0,0.0,0.0,0.0,-1.7326,-1.7377,-1.7472,-1.7786,-1.8116,-1.8445,-1.8767,-1.9052,-1.9279,-1.9279,-1.9279,-1.9279,-1.9279,-1.9279,-1.9279,0.0,0.0,0.0,-1.9279,-1.9279,-1.9279,-1.9279,-1.9279,-1.9279,-1.9279,-1.9279,-1.9279,0.0,0.0,0.0,0.0,0.0,0.0,-0.6797,-0.7063,-0.7412,-0.8273,-0.8108,-0.7726,-0.727,-0.6658,-0.6311,-0.6297,-0.6466,0.0,0.0,0.0,0.0,0.0,0.0,0.0,0.0,0.0,-0.7712,-0.7712,-0.8041,-0.8034,0.0,0.0,0.0,0.0,0.0,0.0,0.0,0.0,0.0,0.0,0.0,0.0,0.0,0.0,0.0,0.0,0.0,0.0,0.0,0.0,0.0,0.0,0.0,0.0,-0.962,-1.0701,-1.2011,-1.3251,-1.3942,-1.4649,-1.511,-1.4736,-1.4117,-1.3322,0.0,-1.1225,-1.0522,-1.0514,-1.0077,-0.9738,-0.9982,-0.9895,-0.9799,-0.9799,-0.9953,-1.0607,-1.2108,0.0,0.0,0.0,0.0,0.0,0.0,0.0,0.0,0.0,0.0,0.0,0.0,0.0,-1.7472,-1.7801,-1.813,-1.8452,-1.8782,-1.9111,-1.9272,-1.9279,-1.9279,-1.9279,-1.9279,-1.9279,-1.9279,0.0,0.0,0.0,0.0,-1.9279,-1.9279,-1.9279,-1.9279,-1.9279,-1.9279,-1.9279,-1.9279,-1.9279,0.0,0.0,0.0,0.0,0.0,0.0,0.0,-0.6436,-0.6754,-0.7117,-0.7323,-0.7277,-0.6893,-0.6519,-0.6364,-0.6566,-0.6474,0.0,0.0,0.0,0.0,0.0,0.0,0.0,0.0,-0.7342,-0.7821,-0.8048,-0.8151,-0.826,-0.8377,0.0,0.0,0.0,0.0,0.0,0.0,0.0,0.0,0.0,0.0,0.0,0.0,0.0,0.0,0.0,0.0,0.0,0.0,0.0,0.0,0.0,0.0,0.0,0.0,-0.9469,-1.0558,0.0,-1.2798,-1.3394,-1.3727,-1.3608,-1.3227,-1.2671,-1.1845,-1.1225,-1.0764,-1.0569,-1.0171,-0.9921,-0.9976,-0.9836,-0.982,-1.0269,-1.0615,-1.1049,0.0,0.0,0.0,0.0,0.0,0.0,0.0,0.0,0.0,0.0,0.0,0.0,0.0,0.0,-1.7479,-1.7801,-1.813,-1.846,-1.8789,-1.9111,-1.9279,-1.9279,-1.9279,-1.9279,-1.9279,-1.9279,0.0,0.0,0.0,0.0,0.0,-1.9279,-1.9279,-1.9279,-1.9279,-1.9279,-1.9279,-1.9279,-1.9279,-1.9279,0.0,0.0,0.0,0.0,0.0,0.0,0.0,-0.596,-0.6098,-0.6205,-0.6378,-0.6465,-0.6363,-0.6095,-0.6097,-0.651,-0.6291,0.0,0.0,0.0,0.0,0.0,0.0,0.0,-0.6702,-0.7219,-0.7748,-0.8202,-0.8326,-0.8533,-0.8778,-0.879,-0.8701,0.0,0.0,0.0,0.0,0.0,0.0,0.0,0.0,0.0,0.0,0.0,0.0,0.0,0.0,0.0,0.0,0.0,0.0,0.0,0.0,0.0,0.0,0.0,-0.9525,-1.047,0.0,-1.2321,-1.2687,-1.2687,-1.2417,-1.2011,-1.1431,-1.1042,-1.074,-1.0561,-1.0205,-0.9999,-0.9999,-0.9777,-0.9746,-1.0155,-1.0492,0.0,0.0,0.0,0.0,0.0,0.0,0.0,0.0,0.0,0.0,0.0,0.0,0.0,0.0,0.0,-1.7479,-1.7801,-1.813,-1.846,-1.8789,-1.9111,-1.9279,-1.9279,-1.9279,-1.9279,-1.9279,-1.9279,0.0,0.0,0.0,0.0,0.0,-1.9279,-1.9279,-1.9279,-1.9279,-1.9279,-1.9279,-1.9279,-1.9279,-1.9279,0.0,0.0,0.0,0.0,0.0,0.0,0.0,-0.5618,-0.5543,-0.5547,-0.5424,-0.5455,-0.58,-0.5532,-0.5576,-0.6249,0.0,0.0,0.0,0.0,0.0,0.0,0.0,0.0,-0.6695,-0.7022,-0.7558,-0.8238,-0.8538,-0.8801,-0.8994,-0.9279,-0.9156,-0.873,-0.8715,0.0,0.0,0.0,0.0,0.0,0.0,0.0,0.0,0.0,0.0,0.0,0.0,0.0,0.0,0.0,0.0,0.0,0.0,0.0,0.0,0.0,0.0,0.0,0.0,-1.1328,0.0,-1.1829,-1.1598,-1.1296,-1.0995,-1.0685,0.0,-1.047,-1.0205,-1.0007,-1.0029,-0.9799,-0.9643,-0.9738,0.0,0.0,0.0,0.0,0.0,0.0,0.0,0.0,0.0,0.0,0.0,0.0,0.0,0.0,0.0,0.0,0.0,-1.7772,-1.8101,-1.8438,-1.8789,-1.9089,-1.925,-1.9279,-1.9279,-1.9279,-1.9279,-1.9279,0.0,0.0,0.0,0.0,0.0,-1.9279,-1.9279,-1.9279,-1.9279,-1.9279,-1.9279,-1.9279,-1.9279,-1.9279,0.0,0.0,0.0,0.0,0.0,0.0,0.0,0.0,0.0,0.0,-0.5494,-0.5831,-0.6006,-0.5734,-0.5722,0.0,0.0,0.0,0.0,0.0,0.0,0.0,0.0,0.0,-0.6695,-0.7022,-0.7668,-0.8575,-0.8741,-0.9078,-0.9612,-0.9631,-0.9414,-0.9081,-0.892,-0.8699,0.0,0.0,0.0,0.0,0.0,0.0,0.0,0.0,0.0,0.0,0.0,0.0,0.0,0.0,0.0,0.0,0.0,0.0,0.0,0.0,-0.8691,-0.8977,-0.9302,0.0,-1.001,-1.001,-1.0153,-1.0272,0.0,-1.0277,-1.0368,-1.0368,-1.0058,-0.9926,-1.018,-0.9895,-0.9943,0.0,0.0,0.0,0.0,0.0,0.0,0.0,0.0,0.0,0.0,0.0,0.0,0.0,0.0,0.0,0.0,0.0,0.0,-1.7443,-1.7757,-1.8203,-1.8782,-1.8869,-1.903,-1.9279,-1.9279,-1.9279,-1.9279,-1.9279,0.0,0.0,0.0,0.0,-1.9279,-1.9279,-1.9279,-1.9279,-1.9279,-1.9279,-1.9279,-1.9279,-1.9279,-1.9279,0.0,0.0,0.0,0.0,0.0,0.0,0.0,0.0,0.0,0.0,0.0,-0.5403,-0.583,-0.5586,0.0,0.0,0.0,0.0,0.0,0.0,0.0,0.0,0.0,-0.6432,-0.6695,-0.6877,-0.7558,-0.8692,-0.8778,-0.916,-0.9792,-0.9809,-0.9606,-0.9198,-0.8838,-0.8556,0.0,0.0,0.0,0.0,0.0,0.0,0.0,0.0,0.0,0.0,0.0,-0.7652,0.0,-0.8055,-0.8341,-0.8588,0.0,0.0,0.0,0.0,-0.8508,-0.8659,-0.8659,-0.9263,-0.989,-0.9785,-1.0103,-1.0364,-1.0312,-1.0293,-1.0316,-1.0316,0.0,0.0,0.0,0.0,0.0,0.0,0.0,0.0,0.0,0.0,0.0,0.0,0.0,0.0,0.0,0.0,0.0,0.0,0.0,0.0,0.0,0.0,0.0,0.0,-1.7501,-1.7904,-1.8555,-1.8716,-1.895,-1.9279,-1.9279,-1.9279,-1.9279,-1.9279,0.0,0.0,0.0,0.0,-1.9279,-1.9279,-1.9279,-1.9279,-1.9279,-1.9279,-1.9279,-1.9279,-1.9279,-1.9279,0.0,0.0,0.0,0.0,0.0,0.0,0.0,0.0,0.0,0.0,0.0,0.0,0.0,0.0,0.0,0.0,0.0,0.0,0.0,0.0,0.0,0.0,-0.6222,-0.6397,-0.676,-0.6731,-0.7342,-0.8692,-0.8732,-0.9089,-0.9725,-0.9925,-0.9734,-0.919,-0.8696,-0.8462,0.0,0.0,0.0,0.0,0.0,0.0,0.0,0.0,0.0,0.0,0.0,0.0,0.0,-0.7755,-0.8198,-0.8699,-0.8452,0.0,0.0,0.0,0.0,0.0,-0.8542,-0.9524,-1.0431,-1.0113,-1.047,-1.0846,-1.0623,-1.0384,-1.0265,0.0,0.0,0.0,0.0,-1.032,0.0,0.0,0.0,0.0,0.0,0.0,0.0,0.0,0.0,0.0,0.0,0.0,0.0,0.0,0.0,0.0,0.0,0.0,0.0,0.0,-1.7326,-1.7618,-1.8218,-1.8547,-1.8877,-1.9199,-1.925,-1.9279,-1.9279,-1.9279,0.0,0.0,0.0,0.0,-1.9279,-1.9279,-1.9279,-1.9279,-1.9279,-1.9279,-1.9279,-1.9279,-1.9279,-1.9279,0.0,0.0,0.0,0.0,0.0,0.0,0.0,0.0,0.0,0.0,0.0,0.0,0.0,0.0,0.0,0.0,0.0,0.0,0.0,0.0,0.0,-0.5874,-0.5874,-0.6279,-0.7095,-0.6848,-0.7342,-0.8692,-0.8825,-0.9066,-0.9447,-1.003,-0.994,-0.9336,-0.8993,-0.8659,-0.8414,-0.8414,0.0,0.0,0.0,0.0,0.0,0.0,0.0,0.0,0.0,0.0,0.0,-0.7597,-0.7866,-0.8,-0.8294,0.0,0.0,0.0,0.0,0.0,-0.908,-0.9843,-1.0256,-0.932,-0.9851,-1.047,-0.9961,-0.9926,-0.9999,0.0,0.0,0.0,0.0,0.0,0.0,0.0,0.0,0.0,0.0,0.0,0.0,0.0,0.0,0.0,0.0,0.0,0.0,0.0,0.0,0.0,0.0,0.0,0.0,0.0,0.0,-1.7508,-1.7889,-1.8211,-1.854,-1.8869,-1.914,-1.9279,-1.9279,-1.9279,-1.9279,0.0,0.0,-1.9279,-1.9279,-1.9279,-1.9279,-1.9279,-1.9279,-1.9279,-1.9279,-1.9279,-1.9279,-1.9279,0.0,0.0,0.0,0.0,0.0,0.0,0.0,0.0,0.0,0.0,0.0,0.0,0.0,0.0,0.0,0.0,0.0,0.0,0.0,0.0,-0.5892,-0.6069,-0.6076,-0.6417,-0.7175,-0.7212,-0.7821,-0.8955,-0.9045,-0.9207,-0.9511,-0.9551,-0.9477,-0.9274,-0.8601,-0.823,-0.8063,-0.7881,-0.7698,0.0,0.0,0.0,0.0,0.0,0.0,0.0,0.0,0.0,0.0,0.0,-0.7658,-0.8119,-0.8087,0.0,0.0,0.0,0.0,0.0,-0.8754,-0.9447,-0.9966,-0.9439,-1.0289,-1.1146,-1.089,-1.0763,-1.0692,0.0,0.0,0.0,0.0,0.0,0.0,0.0,0.0,0.0,0.0,0.0,0.0,0.0,0.0,0.0,0.0,0.0,0.0,0.0,0.0,0.0,0.0,0.0,0.0,0.0,0.0,-1.7399,-1.7552,-1.805,-1.8467,-1.8789,-1.9118,-1.9279,-1.9279,-1.9279,-1.9279,-1.9279,0.0,-1.9279,-1.9279,-1.9279,-1.9279,-1.9279,-1.9279,-1.9279,-1.9279,-1.9279,-1.9279,-1.9279,0.0,0.0,0.0,0.0,0.0,0.0,0.0,0.0,0.0,0.0,0.0,0.0,0.0,0.0,0.0,0.0,0.0,0.0,0.0,-0.5767,-0.5922,-0.6172,-0.6334,-0.6717,-0.7441,-0.7624,-0.8194,-0.9175,-0.9175,-0.9329,-0.9658,-0.9287,-0.9113,-0.9065,-0.8275,-0.7865,-0.7652,-0.742,-0.7253,0.0,0.0,0.0,0.0,0.0,0.0,0.0,0.0,0.0,0.0,0.0,0.0,0.0,0.0,0.0,0.0,-0.8452,-0.8373,-0.8413,-0.8572,-0.9126,-0.9725,-0.9838,-1.0709,-1.1557,-1.1751,-1.1548,-1.1368,-1.1546,0.0,0.0,0.0,0.0,0.0,0.0,0.0,0.0,0.0,0.0,0.0,0.0,0.0,0.0,0.0,0.0,0.0,0.0,0.0,0.0,0.0,0.0,0.0,0.0,0.0,0.0,-1.7326,-1.7904,-1.835,-1.8679,-1.9081,-1.9279,-1.9279,-1.9279,-1.9279,-1.9279,-1.9279,-1.9279,-1.9279,-1.9279,-1.9279,-1.9279,-1.9279,-1.9279,-1.9279,-1.9279,-1.9279,-1.9279,0.0,0.0,0.0,0.0,0.0,0.0,0.0,0.0,0.0,0.0,0.0,0.0,0.0,0.0,0.0,0.0,0.0,0.0,0.0,-0.5612,-0.5826,-0.5848,-0.6387,-0.7117,-0.8114,-0.7858,-0.8194,-0.9175,-0.9175,-0.9386,-0.9792,-0.9577,-0.9228,-0.871,-0.8474,-0.796,-0.734,-0.7309,-0.7126,-0.684,-0.6816,0.0,0.0,0.0,0.0,0.0,0.0,0.0,0.0,0.0,0.0,0.0,0.0,0.0,-0.8446,-0.8422,-0.8291,-0.8357,-0.9032,-0.9399,-0.9707,-1.0212,-1.0539,-1.0867,-1.1646,-1.1548,-1.1509,-1.2233,0.0,0.0,0.0,0.0,0.0,0.0,0.0,0.0,0.0,0.0,0.0,0.0,0.0,0.0,0.0,0.0,0.0,0.0,0.0,0.0,0.0,0.0,0.0,0.0,0.0,0.0,-1.7326,-1.7677,-1.8013,-1.8343,-1.8979,-1.9279,-1.9279,-1.9279,-1.9279,-1.9279,-1.9279,-1.9279,-1.9279,-1.9279,-1.9279,-1.9279,-1.9279,-1.9279,-1.9279,-1.9279,-1.9279,-1.9279,0.0,0.0,0.0,0.0,0.0,0.0,0.0,0.0,0.0,0.0,0.0,0.0,0.0,0.0,0.0,0.0,0.0,0.0,0.0,-0.5407,-0.5686,-0.6098,-0.6504,-0.6971,-0.7587,-0.807,-0.8692,-0.9446,-0.9263,-0.9283,-0.9479,-0.9079,-0.8829,-0.8663,-0.822,-0.7888,-0.7602,-0.7173,-0.6919,-0.6792,-0.657,0.0,0.0,0.0,0.0,0.0,0.0,0.0,0.0,0.0,-0.6951,-0.7348,-0.7589,-0.7984,-0.8373,-0.8299,-0.8258,-0.8271,-0.8528,-0.9182,-0.9775,-0.9971,-1.0643,-1.139,-1.2106,-1.2439,-1.2866,-1.3572,-1.3733,0.0,0.0,0.0,0.0,0.0,0.0,0.0,0.0,0.0,0.0,0.0,0.0,0.0,0.0,0.0,0.0,0.0,0.0,0.0,0.0,0.0,0.0,0.0,0.0,0.0,0.0,-1.7655,-1.7874,-1.8006,-1.8657,-1.8972,-1.8979,-1.9184,-1.9279,-1.9279,-1.9279,-1.9279,-1.9279,-1.9279,-1.9279,-1.9279,-1.9279,-1.9279,-1.9279,-1.9279,-1.9279,-1.9279,0.0,0.0,0.0,0.0,0.0,0.0,0.0,0.0,0.0,0.0,0.0,0.0,0.0,0.0,0.0,0.0,0.0,0.0,-0.4953,-0.518,-0.5495,-0.5973,-0.6365,-0.6709,-0.703,-0.7931,-0.8692,-0.9321,-0.9219,-0.9166,-0.9089,-0.8671,-0.854,-0.8604,-0.7991,-0.7756,-0.7747,-0.7059,-0.6767,-0.6776,-0.6419,-0.6315,0.0,0.0,0.0,0.0,0.0,0.0,0.0,0.0,-0.676,-0.7146,-0.7303,-0.774,-0.819,-0.8129,-0.8203,-0.8288,-0.8288,-0.8943,-0.9644,-0.9843,-1.074,-1.178,-1.2636,-1.3258,-1.3894,-1.475,-1.4845,-1.4809,-1.4904,0.0,0.0,0.0,0.0,0.0,0.0,0.0,0.0,0.0,0.0,0.0,0.0,0.0,0.0,0.0,0.0,0.0,0.0,0.0,0.0,0.0,0.0,0.0,-1.7326,-1.7552,-1.7662,-1.7669,-1.8218,-1.8591,-1.8796,-1.9023,-1.9177,-1.9279,-1.9279,-1.9279,-1.9279,-1.9279,-1.9279,-1.9279,-1.9279,-1.9279,-1.9279,-1.9279,-1.9279,-1.9279,0.0,0.0,0.0,0.0,0.0,0.0,0.0,0.0,0.0,0.0,0.0,0.0,0.0,0.0,0.0,0.0,0.0,0.0,-0.4293,-0.4924,-0.5283,-0.5297,-0.5944,-0.6409,-0.6688,-0.7328,-0.8026,-0.8685,-0.9007,-0.8999,-0.867,-0.8476,-0.8444,-0.845,-0.7805,-0.7617,-0.7747,-0.6939,-0.6692,-0.6784,-0.6435,-0.6315,0.0,0.0,0.0,0.0,0.0,0.0,0.0,0.0,-0.6767,-0.6817,-0.7469,-0.7695,-0.7726,-0.7929,-0.8222,-0.8488,-0.8415,-0.8778,-0.9336,0.0,0.0,0.0,-1.3206,-1.3762,-1.4362,-1.5657,-1.5672,-1.554,-1.5862,0.0,0.0,0.0,0.0,0.0,0.0,0.0,0.0,0.0,0.0,0.0,0.0,0.0,0.0,0.0,0.0,0.0,0.0,0.0,0.0,0.0,0.0,0.0,-1.7326,-1.7326,-1.7326,-1.7333,-1.7655,-1.8152,-1.8782,-1.8782,-1.8964,-1.9272,-1.9272,-1.9272,-1.9279,-1.9279,-1.9279,-1.9279,-1.9279,-1.9279,-1.9279,-1.9279,-1.9279,-1.9279,0.0,0.0,0.0,0.0,0.0,0.0,0.0,0.0,0.0,0.0,0.0,0.0,0.0,0.0,0.0,0.0,0.0,0.0,-0.4279,-0.4475,-0.4814,-0.5275,-0.573,-0.597,-0.6065,-0.6666,-0.7423,-0.8348,-0.8216,-0.8143,-0.8126,-0.8072,-0.8097,-0.8173,-0.8277,-0.8105,-0.7648,-0.7268,-0.7087,-0.7072,-0.6759,-0.6649,-0.6649,0.0,0.0,0.0,0.0,0.0,0.0,0.0,0.0,0.0,-0.7036,-0.7548,-0.8036,-0.7964,-0.8354,-0.8792,-0.8475,-0.9259,0.0,-1.0397,0.0,0.0,0.0,-1.4443,0.0,0.0,-1.6499,-1.6389,0.0,0.0,0.0,0.0,0.0,0.0,0.0,0.0,0.0,0.0,0.0,0.0,0.0,0.0,0.0,0.0,0.0,0.0,0.0,0.0,0.0,0.0,0.0,0.0,-1.7326,-1.7326,-1.7326,-1.7326,-1.7428,-1.7691,-1.8108,-1.8343,-1.8621,-1.8935,-1.8935,-1.9067,-1.9279,-1.9279,-1.9279,-1.9279,-1.9279,-1.9279,-1.9279,-1.9279,-1.9279,-1.9279,0.0,0.0,0.0,0.0,0.0,0.0,0.0,0.0,0.0,0.0,-0.4853,-0.4684,0.0,0.0,0.0,0.0,0.0,0.0,0.0,-0.4368,-0.469,-0.5085,-0.5539,-0.587,-0.6003,-0.6358,-0.6841,-0.7434,-0.7492,-0.7562,-0.7643,-0.7777,-0.7938,-0.8157,-0.8412,-0.825,-0.7779,-0.7375,-0.7173,-0.7149,-0.6773,-0.66,-0.6633,0.0,0.0,0.0,0.0,0.0,0.0,0.0,0.0,0.0,-0.6619,-0.7068,-0.7517,-0.7758,-0.8252,-0.8792,-0.8848,-0.971,0.0,-1.1231,-1.2431,-1.3748,-1.4706,0.0,0.0,0.0,0.0,0.0,0.0,0.0,0.0,0.0,0.0,0.0,0.0,0.0,0.0,0.0,0.0,0.0,0.0,0.0,0.0,0.0,0.0,0.0,0.0,0.0,0.0,0.0,0.0,0.0,-1.7326,-1.7326,-1.7326,-1.7326,-1.7326,-1.7428,-1.7633,-1.7962,-1.8284,-1.8591,-1.8591,-1.8782,-1.9081,-1.9081,-1.9162,-1.9279,-1.9279,-1.9279,-1.9279,-1.9279,-1.9279,-1.9279,0.0,0.0,0.0,0.0,0.0,0.0,0.0,0.0,0.0,0.0,-0.4735,-0.4486,0.0,0.0,0.0,0.0,0.0,0.0,0.0,-0.4421,-0.4748,-0.48,-0.5429,-0.5951,-0.6245,-0.626,-0.6226,-0.6226,-0.6834,-0.7117,-0.7114,-0.7473,-0.7886,-0.8282,-0.8195,-0.8082,-0.7939,-0.722,-0.6983,-0.7031,-0.6483,-0.6289,-0.6349,-0.6331,0.0,0.0,0.0,0.0,0.0,0.0,0.0,0.0,-0.6286,-0.6405,-0.6615,-0.7397,-0.8024,-0.8618,-0.9379,0.0,0.0,-1.2204,-1.3082,0.0,0.0,0.0,0.0,0.0,0.0,0.0,0.0,0.0,0.0,0.0,0.0,0.0,0.0,0.0,0.0,0.0,0.0,0.0,0.0,0.0,0.0,0.0,0.0,0.0,0.0,0.0,0.0,0.0,0.0,0.0,-1.7326,-1.7326,-1.7326,0.0,-1.7326,-1.7326,-1.7333,-1.764,-1.7947,-1.8255,-1.8291,-1.8467,-1.8752,-1.8774,-1.8964,-1.9235,-1.9264,-1.9279,-1.9279,-1.9279,-1.9279,-1.9279,0.0,0.0,0.0,0.0,0.0,0.0,0.0,0.0,0.0,0.0,0.0,0.0,0.0,0.0,0.0,0.0,0.0,0.0,0.0,-0.4016,-0.4303,-0.4785,-0.5429,-0.5848,-0.5914,-0.5922,-0.5787,-0.5506,-0.6176,-0.6457,-0.6358,-0.7022,-0.7297,-0.7334,-0.7765,-0.7654,-0.71,-0.6477,-0.6233,-0.6226,-0.5998,-0.5903,-0.597,-0.6248,-0.6156,0.0,0.0,0.0,0.0,0.0,0.0,0.0,-0.6234,-0.6577,-0.6913,-0.7238,-0.8009,-0.8864,-0.9195,-1.0097,0.0,0.0,0.0,0.0,0.0,0.0,0.0,0.0,0.0,0.0,0.0,0.0,0.0,0.0,0.0,0.0,0.0,0.0,0.0,0.0,0.0,0.0,0.0,0.0,0.0,0.0,0.0,0.0,0.0,0.0,0.0,0.0,0.0,-1.7326,-1.7326,-1.7326,-1.7326,0.0,-1.7326,-1.7326,-1.7333,-1.7399,-1.7611,-1.7933,-1.8196,-1.8343,-1.843,-1.8686,-1.8833,-1.8921,-1.9177,-1.9279,-1.9279,-1.9279,-1.9279,-1.9279,0.0,0.0,0.0,0.0,0.0,0.0,0.0,0.0,0.0,0.0,0.0,0.0,0.0,0.0,0.0,0.0,0.0,0.0,0.0,-0.4009,-0.4384,-0.5012,-0.5517,-0.5811,-0.5811,-0.5655,-0.5467,-0.5309,-0.5489,-0.5684,-0.5863,-0.6861,-0.7306,-0.7278,-0.781,-0.758,-0.6748,-0.6201,-0.5903,-0.5834,-0.5521,-0.5596,-0.5869,-0.5937,-0.588,-0.5773,-0.6036,0.0,0.0,0.0,0.0,0.0,0.0,0.0,-0.6513,-0.7046,-0.7739,-0.8483,-0.9224,0.0,0.0,0.0,0.0,0.0,0.0,0.0,0.0,0.0,0.0,0.0,0.0,0.0,0.0,0.0,0.0,0.0,0.0,0.0,0.0,0.0,0.0,0.0,0.0,0.0,0.0,0.0,0.0,0.0,0.0,0.0,0.0,0.0,-1.7326,-1.7326,-1.7326,-1.7326,-1.7326,-1.7326,-1.7326,-1.7326,-1.7326,-1.7326,-1.7421,-1.7589,-1.7765,-1.7925,-1.8079,-1.8255,-1.8503,-1.8803,-1.8979,-1.914,-1.9279,-1.9279,-1.9279,-1.9279,0.0,0.0,0.0,0.0,0.0,0.0,0.0,0.0,0.0,0.0,0.0,0.0,0.0,0.0,0.0,0.0,0.0,0.0,0.0,-0.4141,-0.4558,-0.51,-0.5436,-0.5612,-0.5612,-0.5307,-0.515,-0.5135,-0.4827,-0.495,-0.5491,-0.6765,-0.7368,-0.7379,-0.7872,-0.7588,-0.6603,-0.6116,-0.5746,-0.5536,-0.5156,-0.5292,-0.5732,-0.5584,-0.5602,-0.571,-0.5897,-0.5936,-0.5888,-0.5888,0.0,0.0,0.0,0.0,-0.6054,-0.6826,-0.7331,-0.7873,-0.8985,0.0,-1.2079,0.0,0.0,0.0,0.0,0.0,0.0,0.0,0.0,0.0,0.0,0.0,0.0,0.0,0.0,0.0,0.0,0.0,0.0,0.0,0.0,0.0,0.0,0.0,0.0,0.0,0.0,0.0,0.0,0.0,-1.7326,-1.7326,-1.7326,-1.7326,-1.7326,-1.7326,-1.7326,-1.7326,-1.7326,-1.7326,-1.7326,-1.7326,-1.7326,-1.7326,-1.7326,-1.7479,-1.7735,-1.7794,-1.8167,-1.8708,-1.8767,-1.8986,-1.9279,-1.9279,-1.9279,-1.9279,0.0,0.0,0.0,0.0,0.0,0.0,0.0,0.0,0.0,0.0,-0.4268,-0.4158,-0.3952,-0.3911,0.0,0.0,0.0,0.0,-0.3911,0.0,0.0,-0.4424,-0.4763,-0.4939,-0.4939,-0.4718,-0.4539,-0.4435,-0.4323,-0.4452,-0.4868,-0.6173,-0.682,-0.6832,-0.7466,-0.7251,-0.6408,-0.5999,-0.5498,-0.501,-0.501,-0.5048,-0.5177,-0.5547,-0.5621,-0.5554,-0.5819,-0.5881,-0.5811,-0.5811,-0.6003,0.0,0.0,0.0,0.0,0.0,-0.6819,-0.735,0.0,0.0,0.0,0.0,0.0,0.0,0.0,0.0,0.0,0.0,0.0,0.0,0.0,0.0,0.0,0.0,0.0,0.0,0.0,0.0,0.0,0.0,0.0,0.0,0.0,0.0,0.0,0.0,0.0,0.0,0.0,-1.7326,-1.7326,-1.7326,-1.7326,-1.7326,-1.7326,-1.7326,-1.7326,-1.7326,-1.7326,-1.7326,-1.7326,-1.7326,-1.7326,-1.7326,-1.7326,-1.7355,-1.7413,-1.7699,-1.8035,-1.8394,-1.8679,-1.8986,-1.9279,-1.9279,-1.9279,-1.9279,0.0,0.0,0.0,0.0,0.0,0.0,0.0,0.0,0.0,0.0,0.0,-0.4125,-0.3931,-0.3911,0.0,0.0,0.0,0.0,-0.3911,-0.4141,0.0,-0.4293,-0.4631,-0.4807,-0.4807,-0.4415,-0.4257,-0.4293,-0.3831,-0.402,-0.4886,-0.6029,-0.6789,-0.7224,-0.7482,-0.7209,-0.6514,-0.5727,-0.5138,-0.4692,-0.482,-0.5274,-0.5807,-0.5559,-0.5772,-0.6135,-0.5912,-0.5819,-0.5811,-0.5811,-0.6032,0.0,0.0,0.0,0.0,0.0,0.0,0.0,-0.867,0.0,0.0,0.0,0.0,0.0,0.0,0.0,0.0,0.0,0.0,0.0,0.0,0.0,0.0,0.0,0.0,0.0,0.0,0.0,0.0,0.0,0.0,0.0,0.0,0.0,0.0,0.0,0.0,0.0,0.0,-1.7326,-1.7326,-1.7326,-1.7326,-1.7326,-1.7326,-1.7326,-1.7326,-1.7326,-1.7326,-1.7326,-1.7326,-1.7326,-1.7326,-1.7326,-1.7326,-1.7326,-1.734,-1.7479,-1.7735,-1.8064,-1.8386,-1.8716,-1.9023,-1.9206,-1.9279,-1.9279,0.0,0.0,0.0,0.0,0.0,0.0,0.0,0.0,0.0,0.0,0.0,0.0,-0.3911,0.0,0.0,0.0,0.0,0.0,-0.3911,0.0,0.0,0.0,-0.4434,-0.4541,-0.4467,-0.4018,-0.3867,-0.3985,-0.3404,-0.3793,-0.5157,-0.6038,-0.6887,-0.7668,-0.7678,-0.7262,-0.6537,-0.5764,-0.5237,-0.4955,-0.5187,-0.5786,-0.6505,-0.6173,-0.6428,-0.6884,-0.6446,-0.6219,0.0,0.0,0.0,0.0,0.0,0.0,0.0,0.0,0.0,0.0,0.0,0.0,0.0,0.0,0.0,0.0,0.0,0.0,0.0,0.0,0.0,0.0,0.0,0.0,0.0,0.0,0.0,0.0,0.0,0.0,0.0,0.0,0.0,0.0,0.0,0.0,0.0,0.0,0.0,0.0,-1.7326,-1.7326,-1.7326,-1.7326,-1.7326,-1.7326,-1.7326,-1.7326,-1.7326,-1.7326,-1.7326,-1.7326,-1.7326,-1.7326,-1.7326,-1.7326,-1.7326,-1.7326,-1.7326,-1.7326,-1.7523,-1.7845,-1.8174,-1.8503,-1.8833,-1.9155,-1.9279,-1.9279,0.0,0.0,0.0,0.0,0.0,0.0,0.0,0.0,0.0,0.0,0.0,0.0,-0.3911,-0.3911,-0.3911,-0.3911,-0.3911,0.0,0.0,0.0,0.0,0.0,0.0,0.0,-0.3574,-0.3359,-0.3214,-0.3165,-0.3125,-0.3897,-0.5481,-0.6288,-0.7123,-0.7894,-0.8171,-0.7518,-0.6236,-0.629,-0.6265,-0.6142,-0.647,-0.6637,-0.6804,-0.7692,-0.7902,-0.766,-0.7624,0.0,0.0,0.0,0.0,0.0,0.0,0.0,0.0,0.0,0.0,0.0,0.0,0.0,0.0,0.0,0.0,0.0,0.0,0.0,0.0,0.0,0.0,0.0,0.0,0.0,0.0,0.0,0.0,0.0,0.0,0.0,0.0,0.0,0.0,0.0,0.0,0.0,0.0,0.0,0.0,0.0,-1.7326,-1.7326,-1.7326,-1.7326,-1.7326,-1.7326,-1.7326,-1.7326,-1.7326,-1.7326,-1.7326,-1.7326,-1.7326,-1.7326,-1.7326,-1.7326,-1.7326,-1.7326,-1.7326,-1.7326,-1.7523,-1.7845,-1.8174,-1.8503,-1.8833,-1.9155,-1.9279,-1.9279,0.0,0.0,0.0,0.0,0.0,0.0,0.0,0.0,0.0,0.0,0.0,0.0,0.0,-0.3911,-0.3911,-0.3911,-0.3911,0.0,0.0,0.0,0.0,0.0,0.0,0.0,-0.3315,-0.3074,-0.2995,-0.3104,-0.2836,-0.3473,-0.4935,-0.5343,-0.5763,-0.6192,-0.7234,-0.7393,-0.6854,-0.6327,-0.6094,-0.6123,-0.6779,-0.7097,-0.7266,-0.7702,-0.8209,-0.8597,0.0,0.0,0.0,0.0,0.0,0.0,-0.6739,-0.657,-0.6468,-0.5934,-0.6073,-0.6535,0.0,0.0,0.0,0.0,0.0,0.0,0.0,0.0,0.0,0.0,0.0,0.0,0.0,0.0,0.0,0.0,0.0,0.0,0.0,0.0,0.0,0.0,0.0,0.0,0.0,0.0,0.0,0.0,0.0,0.0,-1.7326,-1.7326,-1.7326,-1.7326,-1.7326,-1.7326,-1.7326,-1.7326,-1.7326,-1.7326,-1.7326,-1.7326,-1.7326,-1.7326,-1.7326,-1.7326,-1.7326,-1.7326,-1.7326,-1.7326,-1.7399,-1.7538,-1.7867,-1.8189,-1.8518,-1.884,-1.9096,-1.9279,0.0,0.0,0.0,0.0,0.0,0.0,0.0,0.0,-0.4042,-0.3897,0.0,0.0,0.0,0.0,-0.3988,-0.3966,-0.3886,-0.3848,-0.3877,-0.3877,0.0,0.0,0.0,0.0,-0.3208,-0.2945,-0.2824,-0.29,-0.2696,-0.3283,-0.4604,-0.4791,-0.5103,-0.5492,-0.6324,-0.684,-0.7028,-0.6662,-0.6632,-0.6811,-0.746,-0.7795,-0.7962,-0.8457,-0.8948,0.0,0.0,0.0,0.0,0.0,0.0,0.0,-0.711,-0.6644,-0.6336,-0.5904,-0.6161,-0.6629,-0.6848,0.0,0.0,0.0,0.0,0.0,0.0,0.0,0.0,0.0,0.0,0.0,0.0,0.0,0.0,0.0,0.0,0.0,0.0,0.0,0.0,0.0,0.0,0.0,0.0,0.0,0.0,0.0,0.0,0.0,-1.7326,-1.7326,-1.7326,-1.7326,-1.7326,-1.7326,-1.7326,-1.7326,-1.7326,-1.7326,-1.7326,-1.7326,-1.7326,-1.7326,-1.7326,-1.7326,-1.7326,-1.7326,-1.7326,-1.7326,-1.7326,-1.7362,-1.7691,-1.7947,-1.8196,-1.8628,-1.8928,-1.9133,0.0,0.0,0.0,0.0,0.0,0.0,0.0,0.0,-0.3877,-0.3815,0.0,0.0,0.0,0.0,0.0,-0.412,-0.3871,-0.3745,-0.3787,-0.3808,0.0,0.0,0.0,0.0,-0.3208,-0.2945,-0.2707,-0.2517,-0.2712,-0.3402,-0.4572,-0.4761,-0.5208,-0.5845,-0.5661,-0.5921,-0.652,-0.7354,-0.7926,-0.8246,0.0,-0.8692,-0.8853,0.0,0.0,0.0,-1.0375,-1.0199,0.0,0.0,0.0,0.0,0.0,-0.6592,-0.5855,-0.5841,-0.6083,-0.6341,0.0,0.0,0.0,0.0,0.0,0.0,0.0,0.0,0.0,0.0,0.0,0.0,0.0,0.0,0.0,0.0,0.0,0.0,0.0,0.0,0.0,0.0,0.0,0.0,0.0,0.0,0.0,0.0,0.0,-1.7304,-1.7311,-1.7326,-1.7326,-1.7326,-1.7326,-1.7326,-1.7326,-1.7326,-1.7326,-1.7326,-1.7326,-1.7326,-1.7326,-1.7326,-1.7326,-1.7326,-1.7326,-1.7326,-1.7326,-1.7326,-1.7326,-1.7362,-1.7677,-1.7808,-1.7889,-1.8525,-1.8774,-1.8833,0.0,0.0,0.0,0.0,0.0,-0.3821,-0.3808,-0.3821,-0.3908,0.0,0.0,0.0,-0.4553,-0.453,-0.4389,-0.411,-0.4044,-0.392,-0.3745,-0.3731,-0.364,-0.3465,-0.345,-0.333,-0.3138,-0.2923,-0.2772,-0.2707,-0.2769,-0.3085,-0.3669,-0.3805,-0.4091,-0.4503,-0.5323,-0.5627,-0.556,-0.5751,0.0,-0.8061,-0.8007,-0.8357,0.0,0.0,0.0,0.0,0.0,-1.0975,-1.0975,0.0,-1.0177,-0.946,0.0,-0.7236,-0.6782,-0.6513,-0.6878,-0.7214,-0.6739,0.0,0.0,0.0,0.0,0.0,0.0,0.0,0.0,0.0,0.0,0.0,0.0,0.0,0.0,0.0,0.0,0.0,0.0,0.0,0.0,0.0,0.0,0.0,0.0,0.0,0.0,0.0,-1.663,-1.674,-1.6974,-1.7201,-1.7326,-1.7326,-1.7326,-1.7326,-1.7326,-1.7326,-1.7326,-1.7326,-1.7326,-1.7326,-1.7326,-1.7326,-1.7326,-1.7326,-1.7326,-1.7326,-1.7326,-1.7326,-1.7326,-1.7333,-1.7428,-1.7611,-1.7838,-1.8021,-1.8287,-1.8506,0.0,0.0,0.0,-0.401,-0.4017,-0.4023,-0.409,-0.4134,-0.4221,0.0,0.0,0.0,-0.4746,-0.4975,-0.4919,-0.4434,-0.42,-0.3997,-0.384,-0.373,-0.3598,-0.3465,-0.3429,-0.3402,-0.3427,-0.3126,-0.2973,-0.3005,-0.2864,-0.2907,-0.3093,-0.3159,-0.3388,-0.3755,-0.4484,-0.4881,-0.5034,-0.4845,0.0,0.0,-0.8551,0.0,0.0,-1.0275,-1.066,0.0,0.0,0.0,-1.1615,-1.1494,-1.077,0.0,0.0,-0.7916,-0.7357,-0.7168,-0.7514,-0.7807,-0.7248,-0.766,-0.8224,0.0,0.0,0.0,0.0,0.0,0.0,0.0,0.0,0.0,0.0,0.0,0.0,0.0,0.0,0.0,0.0,0.0,0.0,0.0,0.0,0.0,0.0,0.0,0.0,0.0,-1.6367,-1.6448,-1.6638,-1.6828,-1.6989,-1.7128,-1.7128,-1.7194,-1.7326,-1.7326,-1.7326,-1.7326,-1.7326,-1.7326,-1.7326,-1.7326,-1.7326,-1.7326,-1.7326,-1.7326,-1.7326,-1.7326,-1.7326,-1.7326,-1.7326,-1.7443,-1.7625,-1.7765,-1.7869,-1.8017,0.0,0.0,-0.3901,-0.4155,-0.4281,-0.4368,-0.4521,-0.4614,-0.4681,0.0,-0.4747,-0.4898,-0.5117,-0.5564,-0.5591,-0.5,-0.4422,-0.4066,-0.4043,-0.3788,-0.3653,-0.3668,-0.3547,-0.3586,-0.3831,-0.3443,-0.3236,-0.3227,-0.2939,-0.2772,-0.2778,-0.2815,-0.3043,-0.343,-0.3483,-0.3977,-0.4704,-0.4611,0.0,-0.8201,-0.9365,-0.994,0.0,0.0,-1.0916,0.0,-1.1714,-1.1875,-1.1714,-1.1992,-1.1106,0.0,0.0,-0.8707,-0.8004,-0.7865,-0.8077,-0.8282,-0.7924,-0.8085,-0.848,-0.8992,0.0,0.0,0.0,-0.957,0.0,0.0,0.0,0.0,0.0,0.0,0.0,0.0,0.0,0.0,0.0,0.0,0.0,0.0,0.0,0.0,0.0,0.0,0.0,-1.6265,-1.6301,-1.6316,-1.6316,-1.6352,-1.6506,-1.6882,-1.6799,-1.6952,-1.7274,-1.7274,-1.7296,-1.7326,-1.7326,-1.7326,-1.7326,-1.7326,-1.7326,-1.7326,-1.7326,-1.7326,-1.7326,-1.7326,-1.7326,-1.7326,-1.7326,-1.7326,-1.7362,-1.7655,-1.7601,-1.748,0.0,-0.3936,-0.405,-0.4106,-0.4354,-0.46,-0.4801,-0.4719,-0.4851,-0.5467,-0.5984,-0.6354,-0.6567,-0.6317,-0.6062,-0.5941,-0.5144,-0.4542,-0.4329,-0.4066,-0.3797,-0.3555,-0.3757,-0.3729,-0.3421,-0.3381,-0.318,-0.2808,-0.2745,-0.2659,-0.256,-0.2951,-0.3062,-0.2957,-0.3436,-0.3835,-0.4267,0.0,0.0,-0.7447,-0.7979,0.0,-1.0536,-1.0924,-1.1255,-1.1428,-1.1875,-1.2167,-1.2343,0.0,-1.2036,-1.137,0.0,0.0,-0.9826,-0.8802,-0.8897,-0.9211,-0.8648,-0.8912,-0.9248,-0.8875,0.0,0.0,0.0,-0.927,0.0,0.0,0.0,0.0,0.0,0.0,0.0,0.0,0.0,0.0,0.0,0.0,0.0,0.0,0.0,0.0,0.0,0.0,-1.5613,-1.5613,-1.5855,-1.6001,-1.6001,-1.6235,-1.6396,-1.6462,-1.6462,-1.6616,-1.6945,-1.6945,-1.7077,-1.7326,-1.7326,-1.7326,-1.7326,-1.7326,-1.7326,-1.7326,-1.7326,-1.7326,-1.7326,-1.7326,-1.7326,-1.7326,-1.7326,-1.7326,-1.7333,-1.7399,-1.7406,-1.7452,-0.3787,-0.4106,-0.4382,-0.4307,-0.4607,-0.4941,-0.5242,-0.525,-0.5451,-0.6095,-0.6848,-0.713,-0.664,-0.676,-0.6613,-0.5985,-0.5397,-0.4937,-0.4608,-0.4215,-0.3925,-0.3754,-0.3689,-0.3657,-0.3656,-0.3365,-0.3174,-0.3104,-0.2827,-0.2681,-0.2664,-0.288,-0.3324,-0.3886,-0.387,-0.4309,-0.5138,0.0,-0.6786,-0.7533,-0.8693,0.0,-1.0638,-1.1128,-1.1483,-1.1689,-1.2109,-1.2592,-1.2928,-1.2445,-1.2167,0.0,0.0,-1.0697,-1.0675,0.0,-0.9855,-0.9958,-0.9321,-0.9497,-0.9782,-0.9468,0.0,0.0,0.0,0.0,0.0,0.0,0.0,0.0,0.0,0.0,0.0,0.0,0.0,0.0,0.0,0.0,0.0,0.0,0.0,0.0,0.0,0.0,-1.5013,-1.5174,-1.5343,-1.5504,-1.5665,-1.5818,-1.5979,-1.614,-1.614,-1.6294,-1.6608,-1.6867,-1.6938,-1.7099,-1.7252,-1.7326,-1.7326,-1.7326,-1.7326,-1.7326,-1.7326,-1.7326,-1.7326,-1.7326,-1.7326,-1.7326,-1.7326,-1.7326,-1.7326,-1.7326,-1.7254,-1.7208,-0.3745,-0.4216,-0.462,-0.4495,-0.4885,-0.5377,-0.5752,-0.584,-0.6111,-0.6713,-0.7442,-0.7609,-0.6801,-0.7244,-0.7194,-0.6306,-0.5798,-0.5404,-0.508,-0.4549,-0.422,-0.4166,-0.3801,-0.3723,-0.4012,-0.3495,-0.3266,-0.3417,-0.2969,-0.281,-0.288,-0.299,-0.3694,-0.4899,-0.446,-0.4982,-0.6206,0.0,0.0,-0.802,0.0,-1.0492,-1.0565,-1.1224,-1.1571,-1.1718,-1.2365,-1.2994,-1.3367,-1.2511,0.0,-1.2094,-1.1392,-1.1253,0.0,0.0,0.0,0.0,0.0,0.0,0.0,0.0,0.0,-1.0053,0.0,0.0,0.0,-0.9855,0.0,0.0,0.0,0.0,0.0,0.0,0.0,0.0,0.0,0.0,0.0,0.0,0.0,0.0,0.0,0.0,-1.4443,-1.4823,-1.4735,-1.486,-1.5313,-1.5335,-1.5489,-1.5811,-1.5826,-1.5972,-1.6279,-1.6543,-1.6733,-1.6857,-1.7113,-1.7181,-1.7326,-1.7239,-1.7239,-1.7326,-1.7326,-1.7326,-1.7326,-1.7326,-1.7326,-1.7326,-1.7326,-1.7326,-1.7326,-1.7326,-1.7246,-1.7066,-0.3674,-0.409,-0.4488,-0.4435,-0.5144,-0.58,-0.6095,-0.6185,-0.6535,-0.7298,-0.7695,-0.8076,-0.8464,-0.813,-0.7929,-0.8063,-0.7068,0.0,-0.6062,0.0,-0.501,-0.4721,-0.4646,-0.4458,-0.4084,-0.4022,-0.3676,-0.3056,-0.3005,-0.3025,-0.3165,-0.3638,-0.4106,-0.4589,-0.5027,-0.5596,0.0,0.0,-0.7734,0.0,-0.9688,-1.0155,0.0,-1.088,-1.1311,-1.1748,-1.2621,-1.3184,-1.3433,0.0,-1.2899,-1.2731,0.0,-1.1897,0.0,0.0,0.0,0.0,0.0,0.0,0.0,0.0,-1.0938,0.0,0.0,0.0,-1.0207,-0.9438,0.0,0.0,0.0,0.0,0.0,0.0,0.0,0.0,0.0,0.0,0.0,0.0,0.0,0.0,0.0,0.0,0.0,-1.4479,-1.3982,-1.4048,-1.4867,-1.4999,-1.5145,-1.5474,-1.5489,-1.5643,-1.5965,-1.6009,-1.6301,-1.6857,-1.6718,-1.6878,-1.7326,-1.716,-1.7153,-1.7326,-1.7326,-1.7326,-1.7326,-1.7326,-1.7326,-1.7326,-1.7326,-1.7326,-1.7326,-1.7326,-1.7333,-1.7239,-0.3583,-0.4259,-0.4692,-0.424,-0.4942,-0.5638,-0.5894,-0.6673,-0.7305,-0.7486,-0.8036,-0.847,-0.855,0.0,0.0,0.0,0.0,-0.6942,0.0,0.0,-0.5692,-0.5325,-0.4866,-0.4594,-0.4578,-0.3957,-0.3581,-0.3475,-0.3163,-0.3132,-0.3385,-0.3608,-0.4375,-0.554,-0.5612,0.0,-0.766,0.0,0.0,0.0,0.0,0.0,0.0,-1.0967,-1.1677,-1.2197,-1.2797,-1.3221,-1.3418,0.0,-1.2723,0.0,0.0,0.0,0.0,0.0,0.0,0.0,0.0,0.0,0.0,0.0,0.0,0.0,0.0,0.0,-0.9965,0.0,0.0,0.0,0.0,0.0,0.0,0.0,0.0,0.0,0.0,0.0,0.0,0.0,0.0,0.0,0.0,0.0,0.0,0.0,0.0,-1.3558,-1.434,-1.4735,-1.4925,-1.5145,-1.5328,-1.5496,-1.5635,-1.5826,-1.614,-1.6572,-1.6505,-1.6757,-1.716,-1.6871,-1.6777,-1.6864,-1.6864,-1.6864,-1.6864,-1.6864,-1.6864,-1.6864,-1.6864,-1.6965,-1.716,-1.716,-1.7059,-1.6864,-0.3647,-0.433,-0.4754,-0.4212,-0.4881,-0.5624,-0.6005,-0.7054,-0.7782,-0.7768,-0.8283,0.0,-0.8617,-0.8611,0.0,0.0,-0.8056,-0.7615,0.0,0.0,-0.6333,-0.6199,-0.5418,0.0,0.0,-0.433,-0.3844,-0.3847,-0.3477,-0.334,-0.3489,-0.359,-0.4436,-0.5839,-0.6045,-0.705,-0.8584,0.0,0.0,-0.9372,-0.9738,-1.0038,-1.0382,-1.1333,-1.2036,-1.2577,-1.2994,-1.3294,-1.3411,-1.2848,-1.2658,0.0,-1.2548,0.0,0.0,0.0,0.0,0.0,-1.1158,0.0,0.0,0.0,0.0,0.0,0.0,0.0,0.0,0.0,0.0,0.0,0.0,0.0,0.0,0.0,0.0,0.0,0.0,0.0,0.0,0.0,0.0,0.0,0.0,0.0,0.0,0.0,0.0,0.0,-1.3667,-1.4326,-1.4678,-1.4772,-1.5173,-1.5347,-1.5347,-1.558,-1.5849,-1.625,-1.631,-1.6535,-1.6944,-1.6734,-1.6683,-1.6683,-1.6588,-1.6588,-1.6588,-1.6588,-1.6588,-1.6588,-1.6588,-1.6683,-1.6791,-1.6878,-1.6784,-1.6588,-0.3978,-0.4266,-0.4502,-0.4395,-0.5117,-0.5992,-0.6847,-0.7268,-0.7735,-0.8319,0.0,0.0,0.0,0.0,0.0,0.0,0.0,-0.8637,-0.8337,0.0,-0.7121,0.0,0.0,-0.6156,0.0,0.0,-0.4838,-0.3992,-0.398,-0.3803,-0.3505,-0.3832,-0.4213,-0.4719,-0.6324,-0.7503,-0.8275,-0.9156,-1.0119,-1.0975,-1.0675,-1.1121,-1.1963,0.0,-1.2226,-1.2606,-1.325,0.0,0.0,-1.3104,-1.2994,0.0,0.0,0.0,0.0,0.0,0.0,0.0,0.0,0.0,0.0,-1.0909,0.0,0.0,0.0,0.0,-1.0382,0.0,0.0,0.0,0.0,0.0,-1.0441,-1.0133,-1.0089,0.0,0.0,0.0,0.0,0.0,0.0,0.0,0.0,0.0,0.0,0.0,0.0,0.0,-1.2972,-1.366,-1.4219,-1.4596,-1.4925,-1.509,-1.509,-1.5097,-1.5353,-1.5935,-1.5986,-1.6296,-1.6887,-1.6729,-1.6777,-1.6979,-1.6683,-1.6588,-1.6588,-1.6588,-1.6588,-1.6588,-1.6588,-1.6407,-1.6218,-1.6494,-1.6588,-1.6588,0.0,-0.4489,-0.4636,0.0,0.0,-0.5725,-0.66,-0.7495,-0.821,0.0,0.0,0.0,0.0,0.0,-0.9653,0.0,0.0,-0.9265,-0.8965,-0.8477,0.0,0.0,0.0,-0.707,0.0,0.0,-0.5793,-0.5584,-0.4695,-0.4425,-0.4748,-0.424,-0.4652,-0.585,-0.672,-0.7575,0.0,0.0,0.0,0.0,0.0,-1.1172,-1.1992,0.0,0.0,-1.2899,-1.3338,-1.3492,0.0,-1.3367,-1.3184,-1.3031,-1.3133,-1.2943,-1.2709,-1.2811,-1.2767,0.0,0.0,0.0,-1.2584,-1.1502,0.0,0.0,0.0,0.0,0.0,0.0,0.0,0.0,0.0,-1.0368,-1.0485,-1.0155,-1.0104,-0.9841,0.0,0.0,0.0,0.0,0.0,0.0,0.0,0.0,0.0,0.0,0.0,0.0,0.0,-1.3075,-1.3857,-1.4212,-1.4663,-1.5047,-1.5082,-1.509,-1.524,-1.5469,-1.5322,-1.5555,-1.6141,-1.6061,-1.622,-1.6508,-1.6407,-1.6312,-1.6312,-1.6116,-1.6116,-1.6116,-1.6116,-1.6021,-1.5933,-1.6218,-1.6211,-1.6021,-0.4716,0.0,0.0,0.0,0.0,0.0,0.0,0.0,0.0,0.0,-0.9218,0.0,-1.0067,0.0,-0.9953,0.0,-1.0007,-0.9713,-0.9419,-0.9125,0.0,-0.8691,-0.8203,0.0,0.0,-0.7177,-0.6627,-0.6306,-0.5421,-0.5094,-0.5297,-0.4564,-0.4861,-0.6024,-0.672,-0.7487,-0.8357,0.0,-1.0166,0.0,0.0,-1.1545,0.0,0.0,-1.2826,-1.3053,0.0,-1.3492,-1.3492,-1.3492,-1.336,-1.3221,-1.3433,-1.3206,-1.2914,-1.3119,-1.3031,-1.284,-1.2723,-1.2928,0.0,-1.2116,-1.1992,0.0,-1.0697,0.0,0.0,0.0,0.0,0.0,0.0,0.0,-1.0632,-1.0477,-1.025,-0.9768,0.0,0.0,0.0,0.0,0.0,0.0,0.0,0.0,-0.9687,-0.9907,0.0,0.0,0.0,0.0,-1.3375,-1.3741,-1.4367,-1.4849,-1.5082,-1.4999,-1.5014,-1.5127,-1.5074,-1.5306,-1.5798,-1.5824,-1.5944,-1.6224,-1.6123,-1.6028,-1.6028,-1.5832,-1.5832,-1.5832,-1.5832,-1.5832,-1.5825,-1.6028,-1.5927,-1.5832,0.0,0.0,0.0,0.0,-0.5872,0.0,0.0,0.0,-0.8918,0.0,-0.9519,-0.982,-1.0127,-1.016,-1.0281,-1.0638,-1.0347,0.0,-0.9786,-0.9479,0.0,0.0,-0.9011,-0.8724,-0.8494,-0.8116,0.0,-0.6222,-0.6154,-0.5791,-0.5201,-0.4876,-0.4959,-0.5418,-0.6489,0.0,-0.7948,-0.9821,-1.0734,-1.1005,-1.1723,-1.2174,-1.2577,-1.2892,0.0,-1.3075,-1.3389,-1.3492,-1.3492,-1.3492,-1.3492,-1.3492,-1.3492,-1.3492,-1.3492,-1.3492,-1.3492,-1.3426,-1.3119,-1.3272,-1.3367,-1.2731,0.0,0.0,0.0,0.0,-1.1831,0.0,0.0,0.0,0.0,0.0,-1.0898,-1.1033,-1.0477,-0.9738,-0.8838,0.0,0.0,0.0,0.0,0.0,0.0,0.0,-0.8948,-0.9526,-0.9614,0.0,0.0,0.0,0.0,-1.3374,-1.3929,-1.4494,-1.5061,-1.4817,-1.4824,-1.5006,-1.5127,-1.5343,-1.5658,-1.57,-1.5917,-1.6204,-1.592,-1.5832,-1.5832,-1.5832,-1.5832,-1.5832,-1.5832,-1.5832,-1.5832,-1.5832,-1.5832,-1.5832,-0.5645,-0.6012,-0.6386,0.0,-0.6707,-0.7114,0.0,0.0,0.0,0.0,-0.9826,-1.02,-1.0708,-1.0768,-1.0889,-1.1176,-1.1136,0.0,0.0,0.0,0.0,-1.0221,-0.9733,-0.9426,-0.9352,-0.8637,0.0,-0.8095,-0.6748,-0.6225,-0.6495,-0.5743,-0.5707,-0.6305,0.0,0.0,-0.814,-0.9712,-1.0816,-1.1617,-1.1776,-1.2246,0.0,0.0,-1.3155,-1.3382,-1.347,-1.3492,-1.3492,-1.3492,-1.3492,-1.3492,-1.3492,-1.3419,-1.3346,-1.3492,-1.3419,-1.3251,-1.3317,-1.3609,-1.3762,-1.3353,-1.3309,-1.3221,0.0,0.0,0.0,0.0,0.0,0.0,0.0,0.0,0.0,-1.047,-0.9826,-0.9329,0.0,0.0,0.0,0.0,0.0,0.0,0.0,0.0,-0.9014,-0.8933,0.0,0.0,0.0,0.0,0.0,-1.2734,-1.3502,-1.4003,-1.4316,-1.4539,-1.4573,-1.4341,-1.4565,-1.4679,-1.4818,-1.5198,-1.5595,-1.5903,-1.6028,-1.6123,-1.6123,-1.5927,-1.5832,-1.5832,-1.5832,-1.5832,-1.5832,-1.5832,-1.5832,-1.5832,-0.6293,0.0,0.0,-0.7589,0.0,0.0,-0.8263,0.0,0.0,-0.9626,-1.0053,0.0,-1.0768,-1.1029,-1.1249,-1.141,-1.1423,0.0,0.0,0.0,0.0,-1.0631,-1.0367,-1.0134,-0.988,-0.9265,0.0,-0.8617,0.0,-0.6761,-0.682,-0.6175,-0.6052,-0.6471,0.0,-0.7802,0.0,-0.9493,-1.065,-1.1539,-1.181,0.0,0.0,-1.302,-1.3259,-1.3492,-1.3492,-1.3492,-1.3492,-1.3492,-1.3419,-1.3346,-1.3346,-1.32,-1.3119,-1.32,-1.3219,-1.3252,-1.34,-1.3737,-1.4122,-1.3935,-1.3923,-1.3865,-1.3264,-1.3271,-1.3338,0.0,0.0,0.0,0.0,0.0,0.0,-0.9937,-0.9438,0.0,0.0,0.0,0.0,0.0,0.0,0.0,0.0,0.0,0.0,0.0,0.0,0.0,0.0,0.0,0.0,-1.229,-1.3063,-1.3673,-1.4109,-1.4414,-1.4489,-1.4243,-1.4243,-1.4314,-1.4529,-1.4994,-1.5298,-1.5609,-1.59,-1.6028,-1.6028,-1.5832,-1.5832,-1.5832,-1.5832,-1.5832,-1.5832,-1.5832,-1.5832,-1.5832,0.0,0.0,0.0,0.0,0.0,0.0,0.0,-0.9192,0.0,-0.976,0.0,-1.0752,-1.0792,-1.1182,-1.1496,-1.1536,0.0,-1.1436,-1.1182,-1.1363,-1.1256,-1.0819,-1.0935,-1.0788,-1.0247,-0.9873,0.0,0.0,0.0,-0.717,-0.658,-0.633,-0.6196,-0.6236,0.0,0.0,0.0,-0.9336,-1.0395,0.0,-1.1808,-1.229,-1.2742,-1.302,-1.3273,-1.3419,-1.3419,-1.3492,-1.3492,-1.3492,-1.3346,-1.32,-1.3193,-1.3046,-1.29,-1.29,-1.3082,-1.3223,-1.3265,-1.3775,-1.423,-1.4272,-1.451,-1.451,-1.3592,-1.3397,-1.339,-1.3312,-1.2628,-1.2445,0.0,0.0,0.0,-0.9631,0.0,0.0,0.0,0.0,0.0,0.0,0.0,0.0,0.0,0.0,0.0,0.0,0.0,0.0,0.0,0.0,0.0,0.0,-1.2638,0.0,-1.4142,0.0,-1.4398,-1.4398,-1.4243,-1.4215,-1.4476,-1.481,-1.5104,-1.5357,-1.5685,-1.5832,-1.5832,-1.5832,-1.5832,-1.5832,-1.5832,-1.5832,-1.5832,-1.5832,-1.5832,-1.5832,0.0,0.0,0.0,0.0,0.0,-0.9613,-0.9853,-0.9933,-1.0067,-1.043,-1.0915,0.0,-1.1617,-1.173,-1.1891,-1.2124,-1.2151,0.0,0.0,0.0,0.0,-1.1713,-1.1456,-1.1189,-1.0848,-1.008,-0.9486,0.0,-0.7756,-0.6927,-0.658,-0.633,-0.6196,-0.6236,0.0,0.0,-0.9486,-0.9885,0.0,-1.1641,-1.2005,-1.2472,-1.2896,-1.2952,-1.2973,-1.3046,-1.3046,-1.3193,-1.3492,-1.3346,-1.32,-1.3193,-1.2973,-1.2826,-1.2673,-1.2826,-1.2788,-1.281,-1.3202,-1.3621,-1.3957,-1.4216,-1.451,-1.4629,-1.4216,-1.4118,-1.4034,-1.3811,-1.3452,-1.3012,-1.2734,0.0,0.0,0.0,0.0,0.0,0.0,0.0,0.0,0.0,0.0,0.0,0.0,0.0,0.0,0.0,0.0,0.0,0.0,0.0,0.0,0.0,0.0,0.0,0.0,0.0,-1.4321,-1.4166,-1.4321,-1.4271,-1.4182,-1.4716,-1.499,-1.507,-1.5598,-1.5832,-1.5832,-1.5832,-1.5832,-1.5832,-1.5832,-1.5832,-1.5832,-1.5832,-1.5832,-1.5832,0.0,0.0,0.0,0.0,0.0,0.0,0.0,-1.0828,0.0,-1.0808,-1.1156,-1.1483,-1.1623,-1.1911,-1.2151,-1.2291,-1.2305,-1.2305,-1.2305,-1.2171,-1.2031,-1.1877,-1.173,0.0,-1.1223,-1.0508,-0.992,-0.9472,-0.8143,-0.7181,-0.6587,-0.6485,-0.6256,-0.5979,0.0,-0.8464,0.0,0.0,0.0,-1.1377,-1.183,-1.2332,-1.2746,-1.2746,-1.2826,-1.29,-1.29,-1.3046,-1.3193,-1.3046,-1.2973,-1.29,-1.2746,-1.2709,-1.2682,-1.2839,-1.2981,-1.3189,-1.3403,-1.3668,-1.4015,-1.4166,-1.4309,-1.433,-1.4036,-1.3967,-1.3878,-1.3729,-1.3417,-1.2968,-1.2263,-1.157,0.0,0.0,0.0,0.0,0.0,0.0,0.0,0.0,0.0,0.0,0.0,0.0,0.0,0.0,0.0,0.0,0.0,0.0,0.0,0.0,0.0,0.0,0.0,0.0,0.0,-1.4088,-1.4159,-1.4166,-1.4108,-1.4696,-1.4963,-1.4997,-1.5578,-1.5832,-1.5832,-1.5832,-1.5832,-1.5832,-1.5832,-1.5832,-1.5832,-1.5832,-1.5832,-1.5832,0.0,-0.9613,0.0,0.0,-1.0508,0.0,0.0,-1.1722,-1.177,-1.1249,-1.143,-1.161,-1.161,-1.2024,-1.2305,-1.2305,-1.2305,-1.2305,-1.2305,-1.2305,-1.2204,-1.1971,-1.1964,-1.1824,-1.1523,-1.0949,-1.0334,0.0,0.0,-0.7595,-0.6774,-0.6713,-0.654,0.0,0.0,0.0,0.0,0.0,-1.0855,-1.1229,-1.175,-1.2243,-1.2526,-1.2526,-1.2599,-1.2746,-1.2746,-1.2788,-1.285,-1.285,-1.2769,-1.2695,-1.2621,-1.2756,-1.2923,-1.2923,-1.318,-1.3567,-1.3546,-1.3814,-1.4008,-1.4075,-1.4088,-1.3995,-1.3634,-1.3547,-1.344,-1.3308,-1.3036,-1.2614,-1.1923,-1.1549,0.0,0.0,0.0,0.0,0.0,0.0,0.0,0.0,0.0,0.0,0.0,0.0,0.0,0.0,0.0,0.0,-0.8276,-0.8659,0.0,0.0,0.0,-1.2178,-1.3013,0.0,-1.4021,0.0,-1.4088,-1.4088,-1.4108,-1.4696,-1.4963,-1.4997,-1.5578,-1.5832,-1.5832,-1.5832,-1.5832,-1.5832,-1.5832,-1.5832,-1.5832,-1.5832,-1.5832,-1.5832,0.0,0.0,0.0,0.0,0.0,0.0,0.0,-1.2374,-1.2144,-1.183,-1.2044,-1.2225,-1.2225,-1.2271,-1.2305,-1.2305,-1.2305,-1.2305,-1.2305,-1.2305,-1.2291,-1.2265,-1.2265,-1.2124,-1.1837,-1.1256,-1.0534,0.0,0.0,-0.8057,-0.7419,-0.7108,-0.7388,0.0,0.0,0.0,0.0,-1.0802,-1.1276,-1.1817,-1.2131,-1.2278,-1.2305,-1.2305,-1.2305,-1.2378,-1.2378,-1.2553,-1.2782,-1.2782,-1.2851,-1.2927,-1.2858,-1.2997,-1.3166,-1.3166,-1.3206,-1.3307,-1.3492,-1.3579,-1.3748,-1.4021,-1.4088,-1.3941,-1.338,-1.3253,-1.3086,-1.2505,-1.2365,-1.2158,-1.1536,-1.1817,-1.1861,0.0,0.0,0.0,0.0,0.0,0.0,0.0,0.0,0.0,0.0,0.0,0.0,0.0,0.0,0.0,-0.834,-0.8434,0.0,-1.012,0.0,-1.1764,-1.2385,-1.3247,0.0,-1.4088,-1.4088,-1.4088,-1.4108,-1.4696,-1.4963,-1.4997,-1.5578,-1.5832,-1.5832,-1.5832,-1.5832,-1.5832,-1.5832,-1.5832,-1.5832,-1.5832,-1.5832,-1.5832,0.0,0.0,0.0,0.0,0.0,0.0,0.0,-1.3366,-1.2983,-1.2855,-1.2517,-1.2305,-1.2305,-1.2305,-1.2305,-1.2305,-1.2305,-1.2305,-1.2305,-1.2305,-1.2305,-1.2305,-1.2305,-1.2245,-1.2131,-1.173,-1.1176,0.0,0.0,-0.8764,-0.8057,-0.7889,0.0,0.0,0.0,-1.0047,-1.0848,-1.1316,-1.1657,-1.1897,-1.2184,-1.2305,-1.2318,-1.2498,-1.2565,-1.2592,-1.2779,-1.2926,-1.3026,-1.3026,-1.3104,-1.3097,-1.3026,-1.3227,-1.3467,-1.3467,-1.3594,-1.3761,-1.3874,-1.3908,-1.3941,-1.4055,-1.3955,-1.3714,-1.3307,-1.3066,-1.2812,-1.2392,-1.2305,-1.2231,-1.1997,-1.1857,-1.1737,0.0,0.0,0.0,0.0,0.0,0.0,0.0,0.0,0.0,0.0,0.0,0.0,0.0,0.0,0.0,0.0,-0.8277,0.0,-0.9826,0.0,-1.1891,-1.2298,-1.3373,-1.3968,-1.4088,-1.4088,-1.4088,-1.4108,-1.4696,-1.5157,-1.5498,-1.5732,-1.5832,-1.5832,-1.5832,-1.5832,-1.5832,-1.5832,-1.5832,-1.5832,-1.5832,-1.5832,-1.5832,-1.3848,0.0,-1.3743,0.0,-1.4098,-1.4175,-1.4885,-1.4322,-1.389,-1.4178,-1.3317,-1.2592,-1.2305,-1.2305,-1.2305,-1.2305,-1.2305,-1.2305,-1.2305,-1.2305,-1.2305,-1.2305,-1.2305,0.0,-1.2305,-1.2017,-1.1623,-1.1122,-1.0414,0.0,-0.9072,-0.9072,0.0,0.0,-1.0281,-1.0701,-1.1283,-1.1784,-1.2044,-1.2151,-1.2452,-1.2572,-1.2592,-1.2806,-1.2879,-1.2913,-1.3133,-1.3267,-1.334,-1.334,-1.3394,-1.3454,-1.3367,-1.354,-1.3774,-1.3774,-1.3921,-1.4088,-1.4088,-1.4088,-1.4088,-1.4088,-1.3868,-1.3567,-1.3273,-1.2973,-1.2735,-1.2365,-1.2305,-1.2305,-1.2305,-1.1964,-1.1764,-1.2004,0.0,0.0,0.0,0.0,0.0,0.0,0.0,-0.8637,0.0,0.0,0.0,0.0,0.0,0.0,0.0,0.0,0.0,0.0,0.0,0.0,0.0,-1.34,-1.4001,-1.4088,-1.4088,-1.4088,-1.4108,-1.4696,-1.5284,-1.5832,-1.5832,-1.5832,-1.5832,-1.5832,-1.5832,-1.5832,-1.5832,-1.5832,-1.5832,-1.5832,-1.5832,-1.5832,-1.4296,-1.4223,-1.4258,-1.4538,-1.4593,-1.4887,-1.5683,-1.5108,-1.4895,-1.5692,-1.4466,-1.3171,-1.2372,-1.2305,-1.2305,-1.2305,-1.2305,-1.2305,-1.2305,-1.2305,-1.2305,0.0,0.0,-1.2305,-1.2305,-1.2017,-1.1724,-1.1423,0.0,0.0,-1.0598,0.0,-1.0695,-1.0975,-1.0982,-1.1309,-1.1877,-1.2171,-1.2465,-1.2842,-1.3073,-1.32,-1.32,-1.32,-1.3206,-1.3206,-1.3213,-1.3394,-1.3641,-1.3641,-1.3834,-1.4021,-1.3734,-1.3841,-1.4082,-1.4082,-1.4082,-1.4088,-1.4088,-1.4088,-1.4088,-1.4088,-1.3868,-1.3567,-1.3273,-1.2973,-1.2735,-1.2365,-1.2305,-1.2305,-1.2305,-1.2291,-1.2104,-1.153,0.0,0.0,0.0,0.0,0.0,0.0,-0.8911,-0.849,-0.8778,0.0,0.0,0.0,0.0,0.0,0.0,0.0,0.0,-1.0564,-1.1122,0.0,-1.2291,-1.32,-1.3794,-1.4088,-1.4088,-1.4088,-1.4108,-1.4696,-1.5284,-1.5832,-1.5832,-1.5832,-1.5832,-1.5832,-1.5832,-1.5832,-1.5832,-1.5832,-1.5832,-1.5832,-1.5832,-1.5832,-1.6051,-1.6008,-1.6044,-1.6158,-1.6184,-1.6254,-1.6482,-1.5903,-1.5542,-1.5762,-1.4895,-1.4263,-1.4281,-1.3594,-1.3098,0.0,-1.36,-1.3673,0.0,-1.3297,-1.3096,-1.2311,-1.2498,-1.2605,-1.2605,-1.2318,-1.2118,-1.2024,0.0,0.0,0.0,-1.0855,-1.1116,-1.1597,-1.1797,-1.2098,-1.256,-1.2792,-1.2979,-1.3073,-1.3173,-1.3213,-1.3233,-1.3427,-1.3507,-1.3534,-1.3734,-1.3868,-1.3948,-1.3948,-1.4008,-1.4075,-1.3975,-1.4008,-1.4088,-1.4088,-1.4088,-1.4088,-1.4088,-1.4088,-1.4088,-1.4088,-1.3868,-1.3567,-1.3273,-1.2812,-1.2418,-1.2318,-1.2305,-1.2305,-1.2305,-1.2305,-1.2178,-1.179,-1.1557,0.0,0.0,0.0,0.0,0.0,0.0,-0.8925,0.0,-0.8818,0.0,0.0,0.0,0.0,0.0,0.0,0.0,0.0,-1.1603,0.0,-1.2305,-1.3394,-1.3995,-1.4088,-1.4088,-1.4295,-1.4696,-1.5084,-1.5471,-1.5832,-1.5832,-1.5832,-1.5832,-1.5832,-1.5832,-1.5832,-1.5832,-1.5832,-1.5832,-1.5832,-1.5832,-1.5832,-1.6908,-1.6908,-1.6908,-1.6908,-1.6908,-1.6908,-1.6908,-1.6668,-1.6404,-1.6404,-1.5872,-1.561,-1.5848,-1.5216,0.0,-1.4416,-1.4778,-1.4851,-1.4408,-1.4531,-1.4328,-1.3604,-1.3791,-1.3746,-1.3446,0.0,0.0,-1.2645,-1.2278,-1.2004,-1.1824,-1.1824,-1.2024,-1.2378,-1.2559,-1.2746,-1.2939,-1.3247,-1.3373,-1.3387,-1.3494,-1.354,-1.3561,-1.3741,-1.3808,-1.3834,-1.4021,-1.4088,-1.4088,-1.4088,-1.4088,-1.4088,-1.4088,-1.4088,-1.4088,-1.4088,-1.4088,-1.4088,-1.4088,-1.4088,-1.4088,-1.4088,-1.3868,-1.3534,-1.3126,-1.2739,-1.2438,-1.2325,-1.2305,-1.2305,-1.2305,-1.2305,-1.2204,-1.1917,-1.1617,-1.1223,-1.0705,0.0,0.0,0.0,0.0,0.0,0.0,-0.9399,0.0,0.0,0.0,0.0,0.0,0.0,0.0,-1.0762,-1.2058,0.0,-1.2806,-1.3654,-1.4088,-1.4088,-1.4202,-1.4502,-1.4977,-1.5264,-1.5558,-1.5832,-1.5832,-1.5832,-1.5832,-1.5832,-1.5832,-1.5832,-1.5832,-1.5832,-1.5832,-1.5832,-1.5832,-1.5832,-1.6908,-1.6908,0.0,0.0,-1.6908,0.0,-1.6945,-1.7257,-1.7504,-1.7541,-1.7273,-1.7061,-1.7087,-1.7087,-1.6868,-1.6114,0.0,0.0,0.0,-1.5912,-1.5912,-1.5811,-1.5835,-1.5466,-1.4621,-1.4521,-1.413,-1.3286,-1.3286,-1.3286,-1.3286,-1.3213,-1.3213,-1.3213,-1.3233,-1.324,-1.326,-1.3547,-1.3592,-1.3701,-1.3975,-1.4088,-1.4088,-1.4088,-1.4088,-1.4088,-1.4088,-1.4088,-1.4088,-1.4088,-1.4088,-1.4088,-1.4088,-1.4088,-1.4088,-1.4088,-1.4088,-1.4088,-1.4088,-1.4088,-1.4088,-1.4088,-1.3868,-1.3494,-1.2939,-1.2849,-1.2741,-1.2392,-1.2318,-1.2305,-1.2305,-1.2305,-1.2198,-1.1891,-1.1603,-1.1216,-1.0615,0.0,0.0,0.0,0.0,0.0,0.0,-1.0007,-1.0167,0.0,0.0,0.0,0.0,0.0,-1.0468,-1.1857,-1.2567,-1.308,-1.3634,-1.3941,-1.4088,-1.4088,-1.4402,-1.4696,-1.4977,-1.5284,-1.5571,-1.5832,-1.5832,-1.5832,-1.5832,-1.5832,-1.5832,-1.5832,-1.5832,-1.5832,-1.5832,-1.5832,-1.5832,-1.5832,0.0,0.0,-1.6908,-1.6908,-1.6908,-1.7009,-1.7312,-1.744,-1.7614,-1.7935,-1.7906,-1.7929,-1.8226,-1.8339,-1.838,-1.8433,-1.7926,-1.7353,-1.6741,-1.6927,-1.6635,-1.5827,-1.6076,-1.6063,-1.5905,-1.4952,-1.4435,-1.4209,-1.4209,-1.4209,-1.4209,-1.3516,-1.3213,-1.322,-1.344,-1.354,-1.3561,-1.3854,-1.3981,-1.3988,-1.4055,-1.4088,-1.4088,-1.4088,-1.4088,-1.4088,-1.4088,-1.4088,-1.4088,-1.4088,-1.4088,-1.4088,-1.4088,-1.4088,-1.4088,-1.4088,-1.4088,-1.4088,-1.4088,-1.4088,-1.4088,-1.4088,-1.3868,-1.3607,-1.3467,-1.3073,-1.2802,-1.2735,-1.2458,-1.2305,-1.2305,-1.2305,-1.2131,-1.161,-1.147,-1.1142,-1.0334,-1.01,0.0,0.0,-1.0154,-1.0274,-1.0409,-1.0615,-1.0695,0.0,0.0,0.0,0.0,-1.1223,-1.161,-1.2184,-1.2999,-1.35,-1.3559,-1.3941,-1.4088,-1.4095,-1.4609,-1.4897,-1.4983,-1.5491,-1.5765,-1.5832,-1.5832,-1.5832,-1.5832,-1.5832,-1.5832,-1.5832,-1.5832,-1.5832,-1.5832,-1.5832,-1.5832,-1.5832,-1.6908,-1.6908,-1.6908,-1.6908,-1.7055,-1.7248,-1.7468,-1.7816,-1.8137,-1.8366,-1.855,-1.8742,-1.8962,-1.8981,-1.9063,-1.9283,-1.8907,-1.8506,-1.8113,-1.8231,-1.8005,-1.7398,-1.7586,-1.746,-1.7062,-1.6468,-1.5897,-1.5499,-1.5499,-1.5499,-1.5507,-1.4633,-1.4244,-1.417,-1.3933,-1.3848,-1.3854,-1.4015,-1.4088,-1.4088,-1.4088,-1.4088,-1.4088,-1.4088,-1.4088,-1.4088,-1.4088,-1.4088,-1.4088,-1.4088,-1.4088,-1.4088,-1.4088,-1.4088,-1.4088,-1.4088,-1.4088,-1.4088,-1.4088,-1.4088,-1.4088,-1.4088,-1.3968,-1.3808,-1.3592,-1.3394,-1.312,-1.2986,-1.2719,-1.2505,-1.2505,-1.2285,-1.1957,-1.1496,-1.1316,-1.0969,-1.0221,-1.0114,0.0,-1.0301,-1.0461,-1.0732,-1.0929,-1.1223,-1.1269,-1.0982,0.0,0.0,-1.1583,-1.2158,-1.2492,-1.2505,-1.3247,-1.3707,-1.3841,-1.4008,-1.4088,-1.4095,-1.4683,-1.4963,-1.4983,-1.5565,-1.5832,-1.5832,-1.5832,-1.5832,-1.5832,-1.5832,-1.5832,-1.5832,-1.5832,-1.5832,-1.5832,-1.5832,-1.5832,-1.5832,-1.6908,-1.6908,-1.6908,-1.6908,-1.7229,-1.7513,-1.7578,-1.8229,-1.8733,-1.8788,-1.9091,-1.9301,-1.9301,-1.9301,-1.9301,-1.9301,-1.9301,-1.9301,-1.9301,-1.9301,-1.9301,-1.9301,-1.9301,-1.8975,-1.8238,-1.8158,-1.7755,-1.6862,-1.6862,-1.6862,-1.6862,-1.5966,-1.5643,-1.5553,-1.4824,-1.4496,-1.4496,-1.4496,-1.4496,-1.4496,-1.4334,-1.4334,-1.425,-1.4173,-1.4088,-1.4088,-1.4088,-1.4088,-1.4088,-1.4088,-1.4088,-1.4088,-1.4088,-1.4088,-1.4088,-1.4088,-1.4088,-1.4088,-1.4088,-1.4088,-1.4088,-1.4088,-1.4088,-1.4021,-1.3768,-1.3674,-1.3574,-1.3327,-1.3033,-1.2882,-1.2829,-1.2372,-1.1824,-1.1483,-1.1182,-1.0802,-1.0261,0.0,-1.0361,-1.0655,-1.0792,-1.0969,-1.151,-1.175,-1.1784,-1.157,-1.2017,-1.2318,0.0,-1.2946,-1.3153,-1.297,-1.342,-1.3834,-1.4082,-1.4088,-1.4088,-1.4095,-1.4683,-1.4963,-1.4983,-1.5565,-1.5832,-1.5832,-1.5832,-1.5832,-1.5832,-1.5832,-1.5832,-1.5832,-1.5832,-1.5832,-1.5832,-1.5832,-1.5832,-1.5832,-1.6908,-1.6908,-1.6908,-1.6908,-1.7229,-1.7614,-1.7972,-1.8421,-1.8834,-1.9164,-1.9265,-1.9301,-1.9301,-1.9301,-1.9301,-1.9301,-1.9301,-1.9301,-1.9301,-1.9301,-1.9301,-1.9301,-1.9301,-1.9222,-1.9134,-1.9134,-1.8647,-1.7836,-1.7836,-1.7836,-1.7755,-1.6944,-1.6535,-1.6453,-1.637,-1.6288,-1.6288,-1.6288,-1.6288,-1.6206,-1.5477,-1.5235,-1.5151,-1.4419,-1.4088,-1.4088,-1.4088,-1.4088,-1.4088,-1.4088,-1.4088,-1.4088,-1.4088,-1.4088,-1.4088,-1.4088,-1.4088,-1.4088,-1.4088,-1.4088,-1.4088,-1.4088,-1.4088,-1.4075,-1.4028,-1.3821,-1.3627,-1.3587,-1.3347,-1.306,-1.2876,-1.2465,-1.2058,-1.151,-1.1182,-1.0875,-1.0598,0.0,-1.0969,-1.1256,-1.1516,-1.1797,-1.2131,-1.1984,-1.1951,-1.2151,-1.2251,-1.2412,-1.2741,-1.3247,-1.3554,-1.3507,-1.3834,-1.4041,-1.4088,-1.4088,-1.4088,-1.4095,-1.4683,-1.4963,-1.4983,-1.5565,-1.5832,-1.5832,-1.5832,-1.5832,-1.5832,-1.5832,-1.5832,-1.5832,-1.5832,-1.5832,-1.5832,-1.5832,-1.5832,-1.5832,-1.6908,-1.6908,-1.6908,-1.6908,-1.7293,-1.777,-1.8256,-1.8733,-1.9091,-1.9283,-1.9301,-1.9301,-1.9301,-1.9301,-1.9301,-1.9301,-1.9301,-1.9301,-1.9301,-1.9301,-1.9301,-1.9301,-1.9301,-1.9301,-1.9301,-1.9301,-1.9134,-1.8727,-1.8727,-1.8727,-1.8647,-1.7836,-1.7432,-1.735,-1.6944,-1.6698,-1.6698,-1.6698,-1.6698,-1.6617,-1.5718,-1.5394,-1.5311,-1.4419,-1.4182,-1.4322,-1.4322,-1.4322,-1.4322,-1.4322,-1.4215,-1.4088,-1.4088,-1.4088,-1.4088,-1.4088,-1.4088,-1.4088,-1.4088,-1.4088,-1.4088,-1.4088,-1.4088,-1.4088,-1.4088,-1.3981,-1.3881,-1.3881,-1.3647,-1.3353,-1.3053,-1.2619,-1.2211,-1.1937,-1.139,0.0,0.0,-1.1109,-1.1162,-1.161,-1.1784,-1.1984,-1.2271,-1.2178,-1.2225,-1.2518,-1.2545,-1.2739,-1.3206,-1.3494,-1.3714,-1.3874,-1.4015,-1.4088,-1.4088,-1.4088,-1.4088,-1.4095,-1.4683,-1.4963,-1.4983,-1.5565,-1.5832,-1.5832,-1.5832,-1.5832,-1.5832,-1.5832,-1.5832,-1.5832,-1.5832,-1.5832,-1.5832,-1.5832,-1.5832,-1.5832,-1.6908,-1.6908,-1.6908,-1.6908,-1.7248,-1.7743,-1.8403,-1.8953,-1.9301,-1.9301,-1.9301,-1.9301,-1.9301,-1.9301,-1.9301,-1.9301,-1.9301,-1.9301,-1.9301,-1.9301,-1.9301,-1.9301,-1.9301,-1.9301,-1.9301,-1.9301,-1.9301,-1.9301,-1.9301,-1.9301,-1.9301,-1.8647,-1.8318,-1.8238,-1.7594,-1.7261,-1.7261,-1.7261,-1.7261,-1.7269,-1.637,-1.5884,-1.5643,-1.4825,-1.4494,-1.4529,-1.4596,-1.4623,-1.4609,-1.4543,-1.4369,-1.4175,-1.4108,-1.4088,-1.4088,-1.4088,-1.4088,-1.4088,-1.4088,-1.4088,-1.4088,-1.4088,-1.4088,-1.4088,-1.4088,-1.4088,-1.4088,-1.4088,-1.3908,-1.3654,-1.3367,-1.2872,-1.2465,-1.2325,0.0,0.0,0.0,-1.1436,-1.1363,-1.1817,-1.1931,-1.2058,-1.2278,-1.2365,-1.2498,-1.2802,-1.295,-1.3153,-1.3621,-1.3707,-1.3848,-1.4082,-1.4088,-1.4088,-1.4088,-1.4088,-1.4088,-1.4095,-1.4683,-1.4963,-1.4983,-1.5565,-1.5832,-1.5832,-1.5832,-1.5832,-1.5832,-1.5832,-1.5832,-1.5832,-1.5832,-1.5832,-1.5832,-1.5832,-1.5832,-1.5832,-1.6908,-1.6908,-1.6908,-1.6908,-1.6936,-1.7312,-1.8339,-1.8953,-1.9301,-1.9301,-1.9301,-1.9301,-1.9301,-1.9301,-1.9301,-1.9301,-1.9301,-1.9301,-1.9301,-1.9301,-1.9301,-1.9301,-1.9301,-1.9301,-1.9301,-1.9301,-1.9301,-1.9301,-1.9301,-1.9301,-1.9301,-1.9222,-1.9213,-1.9222,-1.9143,-1.9134,-1.9134,-1.9134,-1.9134,-1.9054,-1.8158,-1.7342,-1.6566,-1.5885,-1.5175,-1.4556,-1.483,-1.493,-1.489,-1.4609,-1.4502,-1.4442,-1.4168,-1.4088,-1.4088,-1.4088,-1.4088,-1.4088,-1.4088,-1.4088,-1.4088,-1.4088,-1.4088,-1.4088,-1.4088,-1.4088,-1.4088,-1.4088,-1.4068,-1.3968,-1.3667,-1.3353,-1.2959,-1.2392,0.0,0.0,-1.149,-1.1657,-1.1824,-1.1864,-1.2104,-1.2278,-1.2298,-1.2552,-1.2802,-1.2822,-1.326,-1.3594,-1.3641,-1.3908,-1.4062,-1.4088,-1.4088,-1.4088,-1.4088,-1.4088,-1.4088,-1.4095,-1.4683,-1.4963,-1.4983,-1.5565,-1.5832,-1.5832,-1.5832,-1.5832,-1.5832,-1.5832,-1.5832,-1.5832,-1.5832,-1.5832,-1.5832,-1.5832,-1.5832,-1.5832,-1.6908,-1.6908,-1.6908,-1.6908,-1.7321,-1.7798,-1.821,-1.8861,-1.9301,-1.9301,-1.9301,-1.9301,-1.9301,-1.9301,-1.9301,-1.9301,-1.9301,-1.9301,-1.9301,-1.9301,-1.9301,-1.9301,-1.9301,-1.9301,-1.9301,-1.9301,-1.9301,-1.9301,-1.9301,-1.9301,-1.9301,-1.9301,-1.9301,-1.9301,-1.9301,-1.9301,-1.9301,-1.9301,-1.9448,-1.9606,-1.8693,-1.8328,-1.8128,-1.671,-1.6111,-1.5949,-1.5456,-1.5231,-1.5217,-1.5104,-1.4943,-1.4776,-1.4663,-1.4509,-1.4322,-1.4142,-1.4088,-1.4088,-1.4088,-1.4088,-1.4088,-1.4088,-1.4088,-1.4088,-1.4088,-1.4088,-1.4088,-1.4088,-1.4088,-1.3995,-1.3701,-1.3554,-1.3407,-1.3173,0.0,-1.2291,-1.2739,-1.2265,-1.2078,-1.2632,-1.2632,-1.2652,-1.2846,-1.2966,-1.3106,-1.3287,-1.3514,-1.3728,-1.3908,-1.4021,-1.4088,-1.4088,-1.4088,-1.4088,-1.4088,-1.4088,-1.4088,-1.4088,-1.4496,-1.4783,-1.4977,-1.5378,-1.5658,-1.5832,-1.5832,-1.5832,-1.5832,-1.5832,-1.5832,-1.5832,-1.5832,-1.5832,-1.5832,-1.5832,-1.5832,-1.5832,-1.6908,-1.6908,-1.6908,-1.6908,-1.7367,-1.7908,-1.8421,-1.8953,-1.9301,-1.9301,-1.9301,-1.9301,-1.9301,-1.9301,-1.9301,-1.9301,-1.9301,-1.9301,-1.9301,-1.9301,-1.9301,-1.9301,-1.9301,-1.9301,-1.9301,-1.9301,-1.9301,-1.9301,-1.9301,-1.9301,-1.9301,-1.9301,-1.9301,-1.9301,-1.9301,-1.9301,-1.9311,-1.9439,-1.9668,-1.9852,-1.9392,-1.9167,-1.9059,-1.7858,-1.7249,-1.6835,-1.6225,-1.5996,-1.5982,-1.5517,-1.5531,-1.5521,-1.517,-1.4823,-1.4603,-1.4309,-1.4222,-1.4202,-1.4115,-1.4088,-1.4088,-1.4088,-1.4088,-1.4088,-1.4088,-1.4088,-1.4088,-1.4088,-1.4088,-1.4021,-1.3821,-1.3781,-1.3748,-1.3661,-1.3126,-1.2906,-1.3434,-1.2806,-1.2518,-1.314,-1.3019,-1.2973,-1.3186,-1.3293,-1.3427,-1.3627,-1.3728,-1.3874,-1.4075,-1.4088,-1.4088,-1.4088,-1.4088,-1.4088,-1.4088,-1.4088,-1.4088,-1.4088,-1.4382,-1.4629,-1.4836,-1.5224,-1.5504,-1.5698,-1.5792,-1.5832,-1.5832,-1.5832,-1.5832,-1.5832,-1.5832,-1.5832,-1.5832,-1.5832,-1.5832,-1.5832,-1.6908,-1.6908,-1.6908,-1.6908,-1.6908,-1.7449,-1.9054,-1.9292,-1.9301,-1.9301,-1.9301,-1.9301,-1.9301,-1.9301,-1.9301,-1.9301,-1.9301,-1.9301,-1.9301,-1.9301,-1.9301,-1.9301,-1.9301,-1.9301,-1.9301,-1.9301,-1.9301,-1.9301,-1.9301,-1.9301,-1.9301,-1.9301,-1.9301,-1.9301,-1.9301,-1.9301,-1.9329,-1.976,-1.9934,-1.9971,-2.0365,-2.0005,-1.9273,-1.9564,-1.854,-1.6963,-1.7208,-1.7326,-1.7095,-1.5862,-1.6113,-1.6686,-1.541,-1.497,-1.491,-1.4609,-1.4522,-1.4456,-1.4168,-1.4088,-1.4088,-1.4088,-1.4088,-1.4088,-1.4088,-1.4088,-1.4088,-1.4088,-1.4088,-1.4088,-1.4088,-1.4088,-1.3988,-1.3694,-1.3559,-1.354,-1.326,-1.3213,-1.3213,-1.322,-1.3213,-1.3213,-1.322,-1.348,-1.3566,-1.3566,-1.3921,-1.4088,-1.4088,-1.4088,-1.4088,-1.4088,-1.4088,-1.4088,-1.4088,-1.4088,-1.4088,-1.4088,-1.4382,-1.4516,-1.4536,-1.5124,-1.5391,-1.5411,-1.5705,-1.5832,-1.5832,-1.5832,-1.5832,-1.5832,-1.5832,-1.5832,-1.5832,-1.5832,-1.5832,-1.5832,-1.6968,-1.6908,-1.6908,-1.6908,-1.7211,-1.7752,-1.8614,-1.9063,-1.9301,-1.9301,-1.9301,-1.9301,-1.9301,-1.9301,-1.9301,-1.9301,-1.9301,-1.9301,-1.9301,-1.9301,-1.9301,-1.9301,-1.9301,-1.9301,-1.9301,-1.9301,-1.9301,-1.9301,-1.9301,-1.9301,-1.9301,-1.9301,-1.9301,-1.9311,-1.9613,-1.9742,-1.9769,-2.0173,-2.0503,-2.0769,-2.0879,-2.0925,-2.0934,-2.0321,-1.9364,-1.8187,-1.7569,-1.6857,-1.619,-1.5819,-1.5879,-1.6012,-1.5449,-1.5264,-1.5211,-1.4917,-1.4683,-1.4502,-1.4416,-1.4242,-1.4088,-1.4088,-1.4088,-1.4088,-1.4088,-1.4088,-1.4088,-1.4088,-1.4088,-1.4088,-1.4088,-1.4088,-1.4055,-1.3968,-1.3781,-1.3687,-1.3808,-1.3474,-1.3367,-1.3774,-1.3641,-1.3594,-1.3808,-1.3901,-1.3955,-1.3955,-1.4035,-1.4088,-1.4088,-1.4088,-1.4088,-1.4088,-1.4088,-1.4088,-1.4088,-1.4088,-1.4088,-1.4088,-1.4175,-1.4322,-1.4536,-1.4917,-1.5204,-1.5411,-1.5705,-1.5832,-1.5832,-1.5832,-1.5832,-1.5832,-1.5832,-1.5832,-1.5832,-1.5832,-1.5832,-1.5832,-1.7304,-1.7038,-1.6908,-1.6908,-1.7348,-1.7889,-1.8421,-1.8953,-1.9301,-1.9301,-1.9301,-1.9301,-1.9301,-1.9301,-1.9301,-1.9301,-1.9301,-1.9301,-1.9301,-1.9301,-1.9301,-1.9301,-1.9301,-1.9301,-1.9301,-1.9301,-1.9301,-1.9301,-1.9301,-1.9301,-1.9301,-1.9476,-1.9549,-1.9567,-1.998,-2.0163,-2.0191,-2.0585,-2.0888,-2.1117,-2.1291,-2.1511,-2.1642,-2.1087,-2.0257,-1.9338,-1.8696,-1.8141,-1.749,-1.6669,-1.6109,-1.5798,-1.5625,-1.5565,-1.5511,-1.5217,-1.4923,-1.4669,-1.4556,-1.4309,-1.4088,-1.4088,-1.4088,-1.4088,-1.4088,-1.4088,-1.4088,-1.4088,-1.4088,-1.4088,-1.4088,-1.4088,-1.4088,-1.4088,-1.3935,-1.3881,-1.4062,-1.3781,-1.3687,-1.4041,-1.3928,-1.3895,-1.4068,-1.4088,-1.4088,-1.4088,-1.4088,-1.4088,-1.4088,-1.4088,-1.4088,-1.4088,-1.4088,-1.4088,-1.4088,-1.4088,-1.4088,-1.4088,-1.4088,-1.4175,-1.4355,-1.4656,-1.4943,-1.5244,-1.5531,-1.5725,-1.5832,-1.5832,-1.5832,-1.5832,-1.5832,-1.5832,-1.5832,-1.5832,-1.5832,-1.5832,-1.7774,-1.7373,-1.7038,-1.7038,-1.7509,-1.8045,-1.8469,-1.9022,-1.9381,-1.9301,-1.9301,-1.9301,-1.9301,-1.9301,-1.9301,-1.9301,-1.9301,-1.9301,-1.9301,-1.9301,-1.9301,-1.9301,-1.9301,-1.9301,-1.9301,-1.9301,-1.9301,-1.9301,-1.9301,-1.932,-1.9366,-1.9751,-1.9952,-1.9998,-2.0393,-2.0567,-2.0594,-2.0998,-2.1163,-2.12,-2.1585,-2.1741,-2.1741,-2.1741,-2.1087,-2.0339,-2.0339,-2.0249,-1.9886,-1.8056,-1.6763,-1.592,-1.592,-1.5825,-1.5778,-1.5511,-1.5231,-1.4937,-1.4643,-1.4349,-1.4122,-1.4095,-1.4088,-1.4088,-1.4088,-1.4088,-1.4088,-1.4088,-1.4088,-1.4088,-1.4088,-1.4088,-1.4088,-1.4088,-1.4088,-1.4088,-1.4088,-1.4088,-1.4088,-1.4088,-1.4088,-1.4088,-1.4088,-1.4088,-1.4088,-1.4088,-1.4088,-1.4088,-1.4088,-1.4088,-1.4088,-1.4088,-1.4088,-1.4088,-1.4088,-1.4088,-1.4088,-1.4088,-1.4088,-1.4088,-1.4095,-1.4389,-1.4669,-1.4943,-1.5257,-1.5545,-1.5792,-1.5818,-1.5832,-1.5832,-1.5832,-1.5832,-1.5832,-1.5832,-1.5832,-1.5832,-1.8442,-1.824,-1.8172,-1.8172,-1.8834,-1.9199,-1.8905,-1.9507,-1.9854,-1.9381,-1.9301,-1.9301,-1.9301,-1.9301,-1.9301,-1.9301,-1.9301,-1.9301,-1.9301,-1.9301,-1.9301,-1.9301,-1.9301,-1.9301,-1.9301,-1.9301,-1.9301,-1.9301,-1.9301,-1.9467,-1.9797,-1.9888,-2.0099,-2.0411,-2.0805,-2.0979,-2.1007,-2.142,-2.1603,-2.1612,-2.1695,-2.1741,-2.1741,-2.1741,-2.1087,-2.0339,-2.0339,-1.9795,-1.9063,-1.8603,-1.7777,-1.6951,-1.6951,-1.6393,-1.5818,-1.5752,-1.5531,-1.5237,-1.495,-1.4649,-1.4369,-1.4142,-1.4088,-1.4088,-1.4088,-1.4088,-1.4088,-1.4088,-1.4088,-1.4088,-1.4088,-1.4088,-1.4088,-1.4088,-1.4088,-1.4088,-1.4088,-1.4088,-1.4088,-1.4088,-1.4088,-1.4088,-1.4088,-1.4088,-1.4088,-1.4088,-1.4088,-1.4088,-1.4088,-1.4088,-1.4088,-1.4088,-1.4088,-1.4088,-1.4088,-1.4088,-1.4088,-1.4088,-1.4088,-1.4088,-1.4095,-1.4389,-1.4556,-1.4643,-1.517,-1.5431,-1.5504,-1.5732,-1.5832,-1.5832,-1.5832,-1.5832,-1.5832,-1.5832,-1.5832,-1.5832,-1.8977,-1.871,-1.8509,-1.8509,-1.9233,-1.9683,-1.9403,-1.9839,-2.0089,-1.9775,-1.946,-1.9301,-1.9301,-1.9301,-1.9301,-1.9301,-1.9301,-1.9301,-1.9301,-1.9301,-1.9301,-1.9301,-1.9301,-1.9301,-1.9301,-1.9301,-1.9301,-1.9301,-1.9301,-1.9522,-1.9934,-2.0127,-2.042,-2.0814,-2.1227,-2.141,-2.142,-2.164,-2.1741,-2.1741,-2.1741,-2.1741,-2.1741,-2.1741,-2.1365,-2.0988,-2.0988,-2.0348,-1.9521,-1.9521,-1.888,-1.8064,-1.8064,-1.7318,-1.6487,-1.6487,-1.5992,-1.5331,-1.5044,-1.4743,-1.4449,-1.4162,-1.4088,-1.4088,-1.4088,-1.4088,-1.4088,-1.4088,-1.4088,-1.4088,-1.4088,-1.4088,-1.4088,-1.4088,-1.4088,-1.4088,-1.4088,-1.4088,-1.4088,-1.4088,-1.4088,-1.4088,-1.4088,-1.4088,-1.4088,-1.4088,-1.4088,-1.4088,-1.4088,-1.4088,-1.4088,-1.4088,-1.4088,-1.4088,-1.4088,-1.4088,-1.4088,-1.4088,-1.4088,-1.4088,-1.4088,-1.4249,-1.4389,-1.4536,-1.4843,-1.5137,-1.5404,-1.5558,-1.5705,-1.5832,-1.5832,-1.5832,-1.5832,-1.5832,-1.5832,-1.5832,-1.9441,-1.911,-1.8777,-1.8777,-1.9522,-2.0042,-1.9971,-2.0292,-2.0469,-2.0391,-1.9854,-1.945,-1.945,-1.9381,-1.9301,-1.9301,-1.9301,-1.9301,-1.9301,-1.9301,-1.9301,-1.9301,-1.9301,-1.9301,-1.9301,-1.9301,-1.9301,-1.9301,-1.9301,-1.9522,-1.9943,-2.0328,-2.0723,-2.1126,-2.1548,-2.1741,-2.1741,-2.1741,-2.1741,-2.1741,-2.1741,-2.1741,-2.1741,-2.1741,-2.1741,-2.1741,-2.1741,-2.1177,-2.0529,-2.0529,-1.9886,-1.9063,-1.9063,-1.8334,-1.7606,-1.7606,-1.6679,-1.5681,-1.5382,-1.4994,-1.4522,-1.4235,-1.4122,-1.4088,-1.4088,-1.4088,-1.4088,-1.4088,-1.4088,-1.4088,-1.4088,-1.4088,-1.4088,-1.4088,-1.4088,-1.4088,-1.4088,-1.4088,-1.4088,-1.4088,-1.4088,-1.4088,-1.4088,-1.4088,-1.4088,-1.4088,-1.4088,-1.4088,-1.4088,-1.4088,-1.4088,-1.4088,-1.4088,-1.4088,-1.4088,-1.4088,-1.4088,-1.4088,-1.4088,-1.4088,-1.4088,-1.4088,-1.4215,-1.4449,-1.4496,-1.4796,-1.5251,-1.5304,-1.5464,-1.5678,-1.5678,-1.5712,-1.5758,-1.5812,-1.5832,-1.5832,-2.0009,-1.9944,-1.9868,-1.9868,-2.0733,-2.115,-2.0634,-2.1281,-2.1634,-2.1165,-2.0469,-2.0089,-2.0089,-1.9618,-1.9301,-1.9301,-1.9301,-1.9301,-1.9301,-1.9301,-1.9301,-1.9301,-1.9301,-1.9301,-1.9301,-1.9301,-1.9301,-1.9301,-1.9301,-1.9522,-1.9943,-2.0328,-2.0723,-2.1126,-2.1548,-2.1741,-2.1741,-2.1741,-2.1741,-2.1741,-2.1741,-2.1741,-2.1741,-2.1741,-2.1741,-2.1741,-2.1741,-2.1642,-2.1553,-2.1553,-2.0898,-2.0068,-2.0068,-1.943,-1.8603,-1.8603,-1.784,-1.7001,-1.6766,-1.5826,-1.483,-1.4536,-1.4269,-1.4088,-1.4088,-1.4088,-1.4088,-1.4088,-1.4088,-1.4088,-1.4088,-1.4088,-1.4088,-1.4088,-1.4088,-1.4088,-1.4088,-1.4088,-1.4088,-1.4088,-1.4088,-1.4088,-1.4088,-1.4088,-1.4088,-1.4088,-1.4088,-1.4088,-1.4088,-1.4088,-1.4088,-1.4088,-1.4088,-1.4088,-1.4088,-1.4088,-1.4088,-1.4088,-1.4088,-1.4088,-1.4088,-1.4088,-1.4108,-1.4162,-1.4409,-1.4563,-1.4656,-1.4917,-1.505,-1.5077,-1.5077,-1.5237,-1.5484,-1.5732,-1.5832,-1.5832,-2.0085,-2.0085,-2.0085,-2.0085,-2.0718,-2.1196,-2.1177,-2.15,-2.1732,-2.168,-2.1165,-2.0779,-2.0779,-2.0157,-1.9696,-1.9301,-1.9301,-1.9301,-1.9301,-1.9301,-1.9301,-1.9301,-1.9301,-1.9301,-1.9301,-1.9301,-1.9301,-1.9301,-1.9301,-1.9522,-1.9943,-2.0328,-2.0723,-2.1126,-2.1548,-2.1741,-2.1741,-2.1741,-2.1741,-2.1741,-2.1741,-2.1741,-2.1741,-2.1741,-2.1741,-2.1741,-2.1741,-2.1741,-2.1741,-2.1741,-2.1454,-2.1087,-2.1087,-2.0439,-1.9613,-1.9613,-1.8972,-1.7987,-1.7091,-1.6325,-1.5581,-1.4677,-1.4302,-1.4088,-1.4088,-1.4088,-1.4088,-1.4088,-1.4088,-1.4088,-1.4088,-1.4088,-1.4088,-1.4088,-1.4088,-1.4088,-1.4088,-1.4088,-1.4088,-1.4088,-1.4088,-1.4088,-1.4088,-1.4088,-1.4088,-1.4088,-1.4088,-1.4088,-1.4088,-1.4088,-1.4088,-1.4088,-1.4088,-1.4088,-1.4088,-1.4088,-1.4088,-1.4088,-1.3913,-1.3997,-1.4088,-1.4088,-1.4088,-1.4095,-1.4222,-1.4369,-1.4529,-1.4663,-1.481,-1.4963,-1.4963,-1.5137,-1.5411,-1.5538,-1.5597,-1.5635]},{"header":{"parameterUnit":"m.s-1","parameterCategory":1,"la1":30.6,"la2":28.766,"lo1":-90.7593,"lo2":-88.6598,"dy":0.0162,"dx":0.0183,"nx":116,"ny":114,"refTime":"2024-06-04T06:00:00:Z","depth":0,"parameterNumber":3,"parameterNumberName":"V-component_of_WINDS"},"data":[0.0,0.0,0.0,0.0,0.0,0.0,0.0,0.0,0.0,0.0,0.0,0.0,0.0,0.0,0.0,0.0,0.0,0.0,0.0,0.0,0.0,0.0,0.0,0.0,0.0,0.0,0.0,0.0,0.0,0.0,0.0,0.0,0.0,0.0,0.0,0.0,0.0,0.0,0.0,0.0,0.0,0.0,0.0,0.0,0.0,0.0,0.0,0.0,0.0,0.0,0.0,0.0,0.0,0.0,0.0,0.0,0.0,0.0,0.0,0.0,0.0,0.0,0.0,0.0,0.0,0.0,0.0,0.0,0.0,0.0,0.0,0.0,0.0,0.0,0.0,0.0,0.0,0.0,0.0,0.0,0.0,0.0,0.0,0.0,0.0,0.0,0.0,0.0,0.0,0.0,0.0,0.0,0.0,0.0,0.0,0.0,0.0,0.0,0.0,0.0,0.0,0.0,0.0,0.0,0.0,0.0,0.0,0.0,0.0,0.0,0.0,0.0,0.0,0.0,0.0,0.0,0.0,0.0,0.0,0.0,0.0,0.0,0.0,0.0,0.0,0.0,0.0,0.0,0.0,0.0,0.0,0.0,0.0,0.0,0.0,0.0,0.0,0.0,0.0,0.0,0.0,0.0,0.0,0.0,0.0,0.0,0.0,0.0,0.0,0.0,0.0,0.0,0.0,0.0,0.0,0.0,0.0,0.0,0.0,0.0,0.0,0.0,0.0,0.0,0.0,0.0,0.0,0.0,0.0,0.0,0.0,0.0,0.0,0.0,0.0,0.0,0.0,0.0,0.0,0.0,0.0,0.0,0.0,0.0,0.0,0.0,0.0,0.0,0.0,0.0,0.0,0.0,0.0,0.0,0.0,0.0,0.0,0.0,0.0,0.0,0.0,0.0,0.0,0.0,0.0,0.0,0.0,0.0,0.0,0.0,0.0,0.0,0.0,0.0,0.0,0.0,0.0,0.0,0.0,0.0,0.0,0.0,0.0,0.0,0.0,0.0,0.0,0.0,0.0,0.0,0.0,0.0,0.0,0.0,0.0,0.0,0.0,0.0,0.0,0.0,0.0,0.0,0.0,0.0,0.0,0.0,0.0,0.0,0.0,0.0,0.0,0.0,0.0,0.0,0.0,0.0,0.0,0.0,0.0,0.0,0.0,0.0,0.0,0.0,0.0,0.0,0.0,0.0,0.0,0.0,0.0,0.0,0.0,0.0,0.0,0.0,0.0,0.0,0.0,0.0,0.0,0.0,0.0,0.0,0.0,0.0,0.0,0.0,0.0,0.0,0.0,0.0,0.0,0.0,0.0,0.0,0.0,0.0,0.0,0.0,0.0,0.0,0.0,0.0,0.0,0.0,0.0,0.0,0.0,0.0,0.0,0.0,0.0,0.0,0.0,0.0,0.0,0.0,0.0,0.0,0.0,0.0,0.0,0.0,0.0,0.0,0.0,0.0,0.0,0.0,0.0,0.0,0.0,0.0,0.0,0.0,0.0,0.0,0.0,0.0,0.0,0.0,0.0,0.0,0.0,0.0,0.0,0.0,0.0,0.0,0.0,0.0,0.0,0.0,0.0,0.0,0.0,0.0,0.0,0.0,0.0,0.0,0.0,0.0,0.0,0.0,0.0,0.0,0.0,0.0,0.0,0.0,0.0,0.0,0.0,0.0,0.0,0.0,0.0,0.0,0.0,0.0,0.0,0.0,0.0,0.0,0.0,0.0,0.0,0.0,0.0,0.0,0.0,0.0,0.0,0.0,0.0,0.0,0.0,0.0,0.0,0.0,0.0,0.0,0.0,0.0,0.0,0.0,0.0,0.0,0.0,0.0,0.0,0.0,0.0,0.0,0.0,0.0,0.0,0.0,0.0,0.0,0.0,0.0,0.0,0.0,0.0,0.0,0.0,0.0,0.0,0.0,0.0,0.0,0.0,0.0,0.0,0.0,0.0,0.0,0.0,0.0,0.0,0.0,0.0,0.0,0.0,0.0,0.0,0.0,0.0,0.0,0.0,0.0,0.0,0.0,0.0,0.0,0.0,0.0,0.0,0.0,0.0,0.0,0.0,0.0,0.0,0.0,0.0,0.0,0.0,0.0,0.0,0.0,0.0,0.0,0.0,0.0,0.0,0.0,0.0,0.0,0.0,0.0,0.0,0.0,0.0,0.0,0.0,0.0,0.0,0.0,0.0,0.0,0.0,0.0,0.0,0.0,0.0,0.0,0.0,0.0,0.0,0.0,0.0,0.0,0.0,0.0,0.0,0.0,0.0,0.0,0.0,0.0,0.0,0.0,0.0,0.0,0.0,0.0,0.0,0.0,0.0,0.0,0.0,0.0,0.0,0.0,0.0,0.0,0.0,0.0,0.0,0.0,0.0,0.0,0.0,0.0,0.0,0.0,0.0,0.0,0.0,0.0,0.0,0.0,0.0,0.0,0.0,0.0,0.0,0.0,0.0,0.0,0.0,0.0,0.0,0.0,0.0,0.0,0.0,0.0,0.0,0.0,0.0,0.0,0.0,0.0,0.0,0.0,0.0,0.0,0.0,0.0,0.0,0.0,0.0,0.0,0.0,0.0,0.0,0.0,0.0,0.0,0.0,0.0,0.0,0.0,0.0,0.0,0.0,0.0,0.0,0.0,0.0,0.0,0.0,0.0,0.0,0.0,0.0,0.0,0.0,0.0,0.0,0.0,0.0,0.0,0.0,0.0,0.0,0.0,0.0,0.0,0.0,0.0,0.0,0.0,0.0,0.0,0.0,0.0,0.0,0.0,0.0,0.0,0.0,0.0,0.0,0.0,0.0,0.0,0.0,0.0,0.0,0.0,0.0,0.0,0.0,0.0,0.0,0.0,0.0,0.0,0.0,0.0,0.0,0.0,0.0,0.0,0.0,0.0,0.0,0.0,0.0,0.0,0.0,0.0,0.0,0.0,0.0,0.0,0.0,0.0,0.0,0.0,0.0,0.0,0.0,0.0,0.0,0.0,0.0,0.0,0.0,0.0,0.0,0.0,0.0,0.0,0.0,0.0,0.0,0.0,0.0,0.0,0.0,0.0,0.0,0.0,0.0,0.0,0.0,0.0,0.0,0.0,0.0,0.0,0.0,0.0,0.0,0.0,0.0,0.0,0.0,0.0,0.0,0.0,0.0,0.0,0.0,0.0,0.0,0.0,0.0,0.0,0.0,0.0,0.0,0.0,0.0,0.0,0.0,0.0,0.0,0.0,0.0,0.0,0.0,0.0,0.0,0.0,0.0,0.0,0.0,0.0,0.0,0.0,0.0,0.0,0.0,0.0,0.0,0.0,0.0,0.0,0.0,0.0,0.0,0.0,0.0,0.0,0.0,0.0,0.0,0.0,0.0,0.0,0.0,0.0,0.0,0.0,0.0,0.0,0.0,0.0,0.0,0.0,0.0,0.0,0.0,0.0,0.0,0.0,0.0,0.0,0.0,0.0,0.0,0.0,0.0,0.0,0.0,0.0,0.0,0.0,0.0,0.0,0.0,0.0,0.0,0.0,0.0,0.0,0.0,0.0,0.0,0.0,0.0,0.0,0.0,0.0,0.0,0.0,0.0,0.0,0.0,0.0,0.0,0.0,0.0,0.0,0.0,0.0,0.0,0.0,0.0,0.0,0.0,0.0,0.0,0.0,0.0,0.0,0.0,0.0,0.0,0.0,0.0,0.0,0.0,0.0,0.0,0.0,0.0,0.0,0.0,0.0,0.0,0.0,0.0,0.0,0.0,0.0,0.0,0.0,0.0,0.0,0.0,0.0,0.0,0.0,0.0,0.0,0.0,0.0,0.0,0.0,0.0,0.0,0.0,0.0,0.0,0.0,0.0,0.0,0.0,0.0,0.0,0.0,0.0,0.0,0.0,0.0,0.0,0.0,0.0,0.0,0.0,0.0,0.0,0.0,0.0,0.0,0.0,0.0,0.0,0.0,0.0,0.0,0.0,0.0,0.0,0.0,0.0,0.0,0.0,0.0,0.0,0.0,0.0,0.0,0.0,0.0,0.0,0.0,0.0,0.0,0.0,0.0,0.0,0.0,0.0,0.0,0.0,0.0,0.0,0.0,0.0,0.0,0.0,0.0,0.0,0.0,0.0,0.0,0.0,0.0,0.0,0.0,0.0,0.0,0.0,0.0,0.0,0.0,0.0,0.0,0.0,0.0,0.0,0.0,0.0,0.0,0.0,0.0,0.0,0.0,0.0,0.0,0.0,0.0,0.0,0.0,0.0,0.0,0.0,0.0,0.0,0.0,0.0,0.0,0.0,0.0,0.0,0.0,0.0,0.0,0.0,0.0,0.0,0.0,0.0,0.0,0.0,0.0,0.0,0.0,0.0,0.0,0.0,0.0,0.0,0.0,0.0,0.0,0.0,0.0,0.0,0.0,0.0,0.0,0.0,0.0,0.0,0.0,0.0,0.0,0.0,0.0,0.0,0.0,0.0,0.0,0.0,0.0,0.0,0.0,0.0,0.0,0.0,0.0,0.0,0.0,0.0,0.0,0.0,0.0,0.0,0.0,0.0,0.0,0.0,0.0,0.0,0.0,0.0,0.0,0.0,0.0,0.0,0.0,0.0,0.0,0.0,0.0,0.0,0.0,0.0,0.0,0.0,0.0,0.0,0.0,0.0,0.0,0.0,0.0,0.0,0.0,0.0,0.0,0.0,0.0,0.0,0.0,0.0,0.0,0.0,0.0,0.0,0.0,0.0,0.0,0.0,0.0,0.0,0.0,0.0,0.0,0.0,0.0,0.0,0.0,0.0,0.0,0.0,0.0,0.0,0.0,0.0,0.0,0.0,0.0,0.0,0.0,0.0,0.0,0.0,0.0,0.0,0.0,0.0,0.0,0.0,0.0,0.0,0.0,0.0,0.0,0.0,0.0,0.0,0.0,0.0,0.0,0.0,0.0,0.0,0.0,0.0,0.0,0.0,0.0,0.0,0.0,0.0,0.0,0.0,0.0,0.0,0.0,0.0,0.0,0.0,0.0,0.0,0.0,0.0,0.0,0.0,0.0,0.0,0.0,0.0,0.0,0.0,0.0,0.0,0.0,0.0,0.0,0.0,0.0,0.0,0.0,0.0,0.0,0.0,0.0,0.0,0.0,0.0,0.0,0.0,0.0,0.0,0.0,0.0,0.0,0.0,0.0,0.0,0.0,0.0,0.0,0.0,0.0,0.0,0.0,0.0,0.0,0.0,0.0,0.0,0.0,0.0,0.0,0.0,0.0,0.0,0.0,0.0,0.0,0.0,0.0,0.0,0.0,0.0,0.0,0.0,0.0,0.0,0.0,0.0,0.0,0.0,0.0,0.0,0.0,0.0,0.0,0.0,0.0,0.0,0.0,0.0,0.0,0.0,0.0,0.0,0.0,0.0,0.0,0.0,0.0,0.0,0.0,0.0,0.0,0.0,0.0,0.0,0.0,0.0,0.0,0.0,0.0,0.0,0.0,0.0,0.0,0.0,0.0,0.0,0.0,0.0,0.0,0.0,0.0,0.0,0.0,0.0,0.0,0.0,0.0,0.0,0.0,0.0,0.0,0.0,0.0,0.0,0.0,0.0,0.0,0.0,0.0,0.0,0.0,0.0,0.0,0.0,0.0,0.0,0.0,0.0,0.0,0.0,0.0,0.0,0.0,0.0,0.0,0.0,0.0,0.0,0.0,0.0,0.0,0.0,0.0,0.0,0.0,0.0,0.0,0.0,0.0,0.0,0.0,0.0,0.0,0.0,0.0,0.0,0.0,0.0,0.0,0.0,0.0,0.0,0.0,0.0,0.0,0.0,0.0,0.0,0.0,0.0,0.0,0.0,0.0,0.0,0.0,0.0,0.0,0.0,0.0,0.0,0.0,0.0,0.0,0.0,0.0,0.0,0.0,0.0,0.0,0.0,0.0,0.0,0.0,0.0,0.0,0.0,0.0,0.0,0.0,0.0,0.0,0.0,0.0,0.0,0.0,0.0,0.0,0.0,0.0,0.0,0.0,0.0,0.0,0.0,0.0,0.0,0.0,0.0,0.0,0.0,0.0,0.0,0.0,0.0,0.0,0.0,0.0,0.0,0.0,0.0,0.0,0.0,0.0,0.0,0.0,0.0,0.0,0.0,0.0,0.0,0.0,-1.7348,0.0,0.0,0.0,0.0,0.0,0.0,0.0,0.0,0.0,0.0,0.0,0.0,0.0,0.0,0.0,0.0,0.0,0.0,0.0,0.0,0.0,0.0,0.0,0.0,-1.0094,-1.0094,-1.0094,-1.0094,-1.0094,-1.0094,0.0,0.0,0.0,0.0,0.0,-1.0097,-1.0137,-1.0536,-1.1302,-1.1743,-1.2589,-1.3747,-1.375,-1.3311,-1.2481,0.0,0.0,0.0,0.0,0.0,0.0,0.0,0.0,0.0,0.0,0.0,0.0,0.0,0.0,0.0,0.0,0.0,0.0,0.0,0.0,0.0,0.0,0.0,0.0,0.0,0.0,0.0,0.0,0.0,0.0,0.0,0.0,0.0,0.0,0.0,0.0,0.0,0.0,0.0,0.0,0.0,0.0,0.0,0.0,0.0,0.0,0.0,0.0,0.0,0.0,0.0,0.0,0.0,0.0,0.0,0.0,0.0,0.0,0.0,0.0,0.0,0.0,0.0,0.0,0.0,0.0,0.0,0.0,0.0,0.0,0.0,-1.9056,0.0,0.0,0.0,0.0,0.0,0.0,0.0,0.0,0.0,0.0,0.0,0.0,0.0,0.0,0.0,0.0,0.0,0.0,0.0,0.0,0.0,-1.0152,-1.0306,-1.0325,-1.0383,-1.054,-1.056,-1.0483,-1.0344,-1.0325,0.0,0.0,0.0,-1.0171,-1.0325,-1.0382,-1.1196,-1.2821,-1.3325,-1.4822,-1.7293,-1.7944,-1.7603,-1.6353,-1.5042,0.0,0.0,0.0,0.0,0.0,0.0,0.0,0.0,0.0,0.0,0.0,0.0,0.0,0.0,0.0,0.0,0.0,0.0,0.0,0.0,0.0,0.0,0.0,0.0,0.0,0.0,0.0,0.0,0.0,0.0,0.0,0.0,0.0,0.0,0.0,0.0,0.0,0.0,0.0,0.0,0.0,0.0,0.0,0.0,0.0,0.0,0.0,0.0,0.0,0.0,0.0,0.0,0.0,0.0,0.0,0.0,0.0,0.0,0.0,0.0,0.0,0.0,0.0,0.0,-2.5243,-2.6555,-2.6579,-2.7033,-2.7589,-2.4349,-2.2928,-2.2861,0.0,0.0,0.0,0.0,0.0,0.0,0.0,0.0,0.0,0.0,0.0,0.0,0.0,0.0,0.0,0.0,0.0,0.0,0.0,0.0,-1.0383,-1.1156,-1.1233,-1.1521,-1.2296,-1.2353,-1.2045,-1.1271,-1.1233,0.0,0.0,-1.0094,-1.0444,-1.1214,-1.1241,-1.206,-1.3725,-1.5899,-1.8251,-2.0747,-2.0853,-2.1158,-2.1473,-1.8444,-1.7106,-1.6992,0.0,0.0,0.0,0.0,0.0,0.0,0.0,0.0,0.0,0.0,0.0,0.0,0.0,0.0,0.0,0.0,0.0,0.0,0.0,0.0,0.0,0.0,0.0,0.0,0.0,0.0,0.0,0.0,0.0,0.0,0.0,0.0,0.0,0.0,0.0,0.0,0.0,0.0,0.0,0.0,0.0,-1.5909,-1.6876,0.0,0.0,0.0,0.0,0.0,0.0,0.0,0.0,0.0,0.0,0.0,0.0,0.0,0.0,-2.5536,-2.6602,-2.7351,-2.7799,-2.8362,-2.837,-2.7978,-2.8629,-2.9362,-3.0076,-3.0225,0.0,-2.5229,-2.3825,0.0,0.0,0.0,0.0,0.0,0.0,0.0,0.0,0.0,0.0,0.0,0.0,0.0,0.0,0.0,0.0,0.0,0.0,0.0,0.0,0.0,-1.2522,-1.3156,-1.4022,-1.4541,-1.4253,-1.2882,-1.2805,-1.2209,-1.0887,-1.0829,-1.1002,-1.1387,-1.2795,-1.4807,-1.7386,-1.9906,-2.1703,-2.2811,-2.3318,-2.372,-2.4006,-2.2534,-2.1082,-1.9591,-1.7415,0.0,0.0,0.0,0.0,0.0,0.0,0.0,0.0,0.0,0.0,0.0,0.0,0.0,0.0,0.0,0.0,0.0,0.0,0.0,0.0,0.0,0.0,0.0,0.0,0.0,0.0,0.0,0.0,0.0,0.0,0.0,0.0,0.0,0.0,0.0,0.0,0.0,0.0,0.0,-1.5424,-1.7587,-1.9357,-1.9566,-1.9425,0.0,0.0,0.0,0.0,0.0,0.0,0.0,0.0,0.0,-2.4926,-2.5986,-2.7037,-2.8146,-2.9034,-2.9969,-3.0933,-3.1684,-3.2081,-3.217,-3.2509,-3.2848,-3.3169,-3.3526,-3.2456,-3.0315,-2.8407,-2.6322,-2.4379,0.0,0.0,0.0,0.0,0.0,-2.4532,0.0,0.0,0.0,0.0,0.0,0.0,0.0,0.0,0.0,0.0,0.0,0.0,-1.32,-1.408,-1.4997,-1.608,-1.6772,-1.6484,-1.4978,-1.4478,-1.3574,-1.2098,-1.1829,-1.1925,-1.2368,-1.5069,-1.7892,-2.0766,-2.2868,-2.4129,-2.4549,-2.5199,-2.5631,-2.5841,-2.5841,-2.456,-2.2229,-1.9869,-1.8285,-1.7118,0.0,0.0,0.0,0.0,0.0,0.0,0.0,0.0,0.0,0.0,0.0,0.0,0.0,0.0,0.0,0.0,0.0,0.0,0.0,0.0,0.0,0.0,0.0,0.0,0.0,0.0,0.0,0.0,0.0,0.0,0.0,0.0,0.0,0.0,0.0,0.0,0.0,-1.7444,-1.9539,-2.1604,-2.223,-2.2305,0.0,0.0,0.0,0.0,0.0,0.0,-2.4543,-2.6438,-2.7753,-2.8347,-2.9308,-3.0134,-3.0751,-3.1374,-3.2295,-3.3491,-3.4097,-3.4686,-3.5221,-3.5418,-3.5525,-3.5525,-3.5721,-3.54,-3.4508,-3.2271,-3.0119,-2.8246,-2.8182,-2.781,-2.741,-2.8354,-2.8669,-2.8869,0.0,0.0,0.0,0.0,0.0,0.0,0.0,0.0,0.0,0.0,0.0,-1.2349,-1.4811,-1.5849,-1.7023,-1.8665,-1.885,-1.8496,-1.7561,-1.6022,-1.4728,-1.3805,-1.3041,-1.3373,-1.4959,-1.8241,-2.0813,-2.2564,-2.346,-2.4721,-2.6269,-2.6326,-2.6784,-2.7568,-2.7568,-2.6612,-2.4885,-2.3116,-2.1416,-1.9687,-1.714,0.0,0.0,0.0,0.0,0.0,0.0,0.0,0.0,0.0,0.0,0.0,0.0,0.0,0.0,0.0,0.0,0.0,0.0,0.0,0.0,0.0,0.0,0.0,0.0,0.0,0.0,0.0,0.0,0.0,0.0,0.0,0.0,0.0,0.0,0.0,0.0,0.0,0.0,-2.3461,-2.4977,0.0,0.0,0.0,0.0,-2.5466,-2.6446,-2.7492,-2.8562,-2.9457,-3.0148,-3.062,-3.1972,-3.3059,-3.3865,-3.4597,-3.5007,-3.5096,-3.5132,-3.5168,-3.5239,-3.5989,-3.6328,-3.6381,-3.7131,-3.7006,-3.6096,-3.3773,-3.2322,-3.159,-3.0819,-3.0666,-3.0939,-3.1627,-3.1954,-3.2174,0.0,0.0,0.0,0.0,0.0,-1.0078,-1.0094,-1.0094,-1.021,-1.0521,-1.1998,-1.3786,-1.583,-1.7773,-1.9619,-2.1301,-2.1966,-2.1446,-1.9504,-1.8285,-1.7266,-1.6388,-1.5561,-1.6683,-1.9967,-2.1196,-2.288,-2.5077,-2.5371,-2.6097,-2.7243,-2.7243,-2.7396,-2.7701,-2.7701,-2.7377,-2.6689,-2.4958,-2.3247,-2.1538,-1.9507,-1.7375,0.0,0.0,0.0,0.0,0.0,0.0,0.0,0.0,0.0,0.0,0.0,0.0,0.0,0.0,0.0,0.0,0.0,0.0,0.0,0.0,0.0,0.0,0.0,0.0,0.0,0.0,0.0,0.0,0.0,0.0,0.0,0.0,0.0,0.0,0.0,0.0,0.0,-2.6626,-2.746,0.0,0.0,-2.7932,-2.815,-2.7994,-2.92,-3.0249,-3.0998,-3.2219,-3.3105,-3.3623,-3.4293,-3.4691,-3.4811,-3.5578,-3.5971,-3.5989,-3.7023,-3.7523,-3.7541,-3.8326,-3.8665,-3.8683,-3.8968,-3.8933,-3.8594,-3.7755,-3.613,-3.4121,-3.3894,-3.3831,-3.396,-3.4297,-3.4437,-3.4534,0.0,0.0,0.0,0.0,-1.0074,-1.0094,-1.0094,-1.0094,-1.0402,-1.1267,-1.3113,-1.5228,-1.7523,-1.9792,-2.1716,-2.3129,-2.3764,-2.3263,-2.1273,-2.0073,-1.9054,-1.8177,-1.79,-1.9435,-2.3064,-2.3409,-2.4621,-2.6847,-2.6847,-2.7275,-2.8103,-2.8103,-2.8255,-2.8542,-2.8542,-2.8389,-2.8032,-2.6874,-2.5227,-2.332,-2.1874,-1.9952,-1.7823,0.0,0.0,0.0,0.0,0.0,0.0,0.0,0.0,0.0,0.0,0.0,0.0,0.0,0.0,0.0,0.0,0.0,0.0,0.0,0.0,0.0,0.0,0.0,0.0,0.0,0.0,0.0,0.0,0.0,0.0,0.0,0.0,0.0,0.0,0.0,-2.6088,-2.8296,-2.9382,-3.0086,-3.0415,-3.0847,-3.1166,-3.1269,-3.2151,-3.2881,-3.3273,-3.4292,-3.5123,-3.5578,-3.6036,-3.6323,-3.6417,-3.7202,-3.7577,-3.7594,-3.8665,-3.9182,-3.92,-3.97,-3.9914,-3.9914,-3.9914,-3.9914,-3.9914,-3.9971,-3.8793,-3.6987,-3.7039,-3.709,-3.7158,-3.7262,-3.7295,-3.7329,0.0,0.0,0.0,-1.0089,-1.0105,-1.0094,-1.0094,-1.0094,-1.1017,-1.3536,-1.467,-1.6535,-1.9927,-2.1812,-2.3186,-2.4052,-2.411,-2.3744,-2.2889,-2.1254,-1.9919,-1.9112,-1.9934,-2.1557,-2.4034,-2.4877,-2.6102,-2.7745,-2.7733,-2.816,-2.893,-2.893,-2.9402,-3.0204,-3.0204,-2.9726,-2.8949,-2.894,-2.7496,-2.5139,-2.4258,-2.2897,-2.1103,0.0,0.0,0.0,0.0,0.0,0.0,0.0,0.0,0.0,0.0,0.0,0.0,0.0,0.0,0.0,0.0,0.0,0.0,0.0,0.0,0.0,0.0,0.0,0.0,0.0,0.0,0.0,0.0,0.0,0.0,0.0,0.0,0.0,-2.3928,-2.6532,-2.8482,-2.8465,-3.0827,-3.2411,-3.2216,-3.2924,-3.3956,-3.5324,-3.5325,-3.5347,-3.5576,-3.5788,-3.6085,-3.6488,-3.7255,-3.8041,-3.8843,-3.9557,-3.9914,-3.9914,-3.995,-3.995,-3.995,-3.9968,-3.9985,-3.9985,-3.9985,-3.9985,-3.9985,-4.0116,-4.0155,-4.0155,-4.0139,-4.0235,-4.0383,-4.0383,-4.0438,-4.051,0.0,0.0,-1.0011,-1.0089,-1.0105,-1.0094,-1.0094,-1.0094,-1.081,-1.2772,-1.4849,-1.7196,-2.0004,-2.235,-2.4062,-2.4909,-2.4428,-2.3995,-2.3764,-2.1581,-2.0446,-2.0812,-2.34,-2.5177,-2.5868,-2.663,-2.7553,-2.8632,-2.8587,-2.9,-2.9841,-2.9841,-2.9975,-3.0204,-3.0204,-3.007,-2.9841,-2.9789,-2.9013,-2.7703,-2.6844,-2.5094,-2.2955,0.0,0.0,0.0,0.0,0.0,0.0,0.0,0.0,0.0,0.0,0.0,0.0,0.0,0.0,0.0,0.0,0.0,0.0,0.0,0.0,0.0,0.0,0.0,0.0,0.0,0.0,0.0,0.0,0.0,0.0,0.0,0.0,-2.7084,-2.7037,-2.898,-3.0808,-3.1803,-3.312,-3.407,-3.446,-3.5126,-3.5586,-3.5677,-3.6236,-3.6757,-3.7232,-3.7755,-3.8313,-3.8915,-3.9165,-3.9379,-3.9611,-3.9807,-3.9914,-3.9914,-4.0503,-4.077,-4.0788,-4.1359,-4.1645,-4.1645,-4.1645,-4.1645,-4.1627,-4.1685,-4.1743,-4.1733,-4.0739,-4.0346,-4.042,-4.0456,-4.0474,-4.051,0.0,-0.9949,-1.0006,-1.0044,-1.0078,-1.0094,-1.0094,-1.0094,-1.0983,-1.3426,-1.5349,-1.7734,-2.0985,-2.2658,-2.3889,-2.4716,-2.4379,-2.3783,-2.3071,-2.162,-2.1485,-2.3024,-2.4995,-2.657,-2.7618,-2.8042,-2.8676,-2.9538,-2.9467,-2.9702,-3.0204,-3.0204,-3.0204,-3.0204,-3.0204,-3.0185,-3.0157,-3.0117,-2.9783,-2.9258,-2.8719,-2.7209,-2.5243,-2.4883,-2.3632,-2.1983,-2.1111,-2.0331,-1.9617,-1.9081,0.0,0.0,0.0,0.0,0.0,0.0,0.0,0.0,0.0,0.0,0.0,0.0,0.0,0.0,0.0,0.0,0.0,0.0,0.0,0.0,0.0,0.0,0.0,0.0,-2.8012,-2.9721,-3.0623,-3.1621,-3.2617,-3.3527,-3.4661,-3.5609,-3.6167,-3.6583,-3.6993,-3.7421,-3.7766,-3.8215,-3.8834,-3.9136,-3.9488,-3.9896,-4.0235,-4.0414,-4.0414,-4.0753,-4.0913,-4.0913,-4.1377,-4.1591,-4.1609,-4.2073,-4.2287,0.0,-4.2287,-4.2287,-4.2287,-4.2287,-4.2387,0.0,0.0,0.0,0.0,0.0,-4.1506,-4.1506,0.0,-0.9933,-0.9981,-0.9982,-1.0048,-1.0082,-1.0082,-1.0086,-1.1282,-1.4607,-1.5882,-1.8023,-2.2062,-2.2677,-2.3158,-2.4005,-2.4005,-2.3293,-2.1746,-2.19,-2.3034,-2.5178,-2.5561,-2.6781,-2.9033,-2.9109,-2.9506,-3.0279,-3.0221,-3.0251,-3.0338,-3.0338,-3.0395,-3.0472,-3.0472,-3.0443,-3.038,-3.0369,-3.0281,-3.014,-3.0073,-2.909,-2.7551,-2.6778,-2.5982,-2.5181,-2.4409,-2.3082,-2.1664,-2.1651,0.0,0.0,0.0,0.0,0.0,0.0,0.0,0.0,0.0,0.0,0.0,0.0,0.0,0.0,0.0,0.0,0.0,0.0,0.0,0.0,0.0,0.0,0.0,0.0,-3.0428,-3.2268,-3.4092,-3.4244,-3.4183,-3.4308,-3.5729,-3.6888,-3.736,-3.7528,-3.8193,-3.9603,-3.9423,-3.9553,-4.0271,0.0,0.0,0.0,0.0,-4.1234,-4.1234,-4.193,-4.2287,-4.2287,-4.2287,-4.2287,-4.2287,-4.2287,-4.2287,-4.2287,-4.2287,-4.2287,-4.2287,-4.2346,-4.2405,-4.2544,-4.2544,-4.2645,-4.2822,-4.2862,-4.2882,0.0,0.0,-0.9838,-0.9862,-0.9908,-0.9979,-1.0019,-1.0019,-1.002,-1.0991,-1.3716,-1.5485,-1.7574,-2.0392,-2.1959,-2.3131,-2.3957,-2.3372,-2.2825,-2.2489,-2.4387,-2.5442,-2.5231,-2.7186,-2.8509,-2.902,-2.9634,-3.0048,-3.0221,-3.0213,-3.0562,-3.1255,-3.1197,-3.1541,-3.2195,-3.2165,-3.213,-3.2114,-3.2069,-3.1656,-3.1051,-3.0983,-2.9962,-2.8464,-2.8294,-2.7725,-2.7001,-2.683,-2.6052,-2.5114,-2.5073,-2.339,-2.1302,-2.1198,-2.0037,0.0,0.0,0.0,0.0,0.0,0.0,0.0,0.0,0.0,0.0,0.0,0.0,0.0,0.0,0.0,0.0,0.0,0.0,0.0,-3.1189,-3.2543,-3.3771,-3.556,-3.6133,-3.6255,-3.5844,-3.6654,-3.7287,-3.7374,-3.83,-3.8989,-3.928,-3.9752,-4.0324,-4.1035,-4.1032,0.0,-4.1805,-4.1984,-4.2055,-4.2055,-4.2216,-4.2287,-4.2287,0.0,0.0,-4.2287,-4.2287,-4.2287,-4.2287,-4.2287,-4.2287,-4.2287,-4.2405,-4.2566,-4.2745,-4.2745,-4.2822,-4.29,-4.29,-4.2882,-4.2882,-0.9743,-0.9786,-0.9825,-0.9887,-0.9959,-1.0006,-1.0006,-1.0001,-1.0909,-1.3424,-1.4603,-1.6272,-1.9141,-1.9858,-2.0488,-2.1321,-2.1349,-2.1845,-2.3125,-2.4714,-2.5779,-2.6179,-2.7897,-2.9044,-2.9497,-2.9964,-3.0398,-3.0852,-3.0811,-3.1255,-3.2114,-3.2076,-3.2271,-3.2691,-3.2626,-3.261,-3.2597,-3.2528,-3.225,-3.1798,-3.1277,-3.0544,-2.9751,-2.942,-2.8774,-2.7985,-2.7551,-2.6774,-2.589,-2.5448,-2.4325,-2.3083,-2.3014,-2.2133,-2.0763,0.0,0.0,0.0,0.0,0.0,0.0,0.0,0.0,0.0,0.0,0.0,0.0,0.0,0.0,-2.5135,0.0,0.0,-3.0638,-3.3168,-3.4146,-3.5042,-3.6486,-3.6817,-3.688,-3.6802,-3.7369,-3.7931,-3.8267,-3.8914,-3.9589,-4.0256,-4.0596,-4.1133,-4.1859,-4.1855,-4.1935,-4.2269,-4.2287,-4.2287,-4.2287,-4.2287,-4.2287,-4.2287,-4.2287,-4.2287,-4.2287,-4.2287,-4.2346,-4.2405,-4.2405,-4.2427,-4.245,-4.2588,-4.2724,-4.2783,-4.2842,-4.2862,-4.2882,-4.2882,-4.2882,-4.2882,-0.9692,-0.9752,-0.98,-0.9875,-0.9919,-0.9967,-0.9967,-0.9976,-1.0839,-1.314,-1.3685,-1.4985,-1.7881,-1.7766,-1.7898,-1.8945,-1.9827,-2.1305,-2.3555,-2.4611,-2.5781,-2.7116,-2.8263,-2.9213,-2.9912,-3.0056,-3.0567,-3.1427,-3.1427,-3.1962,-3.2955,-3.2955,-3.3035,-3.3188,-3.3122,-3.3073,-3.3058,-3.2988,-3.284,-3.2559,-3.1581,-3.1073,-3.0829,-3.0108,-2.9374,-2.861,-2.7727,-2.6779,-2.5818,-2.5016,-2.4468,-2.4097,-2.4097,-2.3579,-2.268,-2.1207,-2.0662,0.0,0.0,0.0,0.0,0.0,0.0,0.0,0.0,0.0,-2.3407,-2.5464,-2.6559,-2.7941,-3.0664,-3.1744,-3.287,-3.4776,-3.5453,-3.6092,-3.7207,-3.7192,-3.7127,-3.7478,-3.7889,-3.8448,-3.9192,-3.9444,-4.0095,-4.1335,-4.1566,-4.1866,-4.2468,-4.2387,-4.2287,-4.2287,-4.2287,-4.2287,-4.2287,-4.2287,-4.2287,-4.2287,-4.2287,-4.2287,-4.2287,-4.2287,-4.2387,-4.2503,-4.2486,-4.2548,-4.2649,-4.2745,-4.2822,-4.2804,-4.2862,-4.2882,-4.2882,-4.2882,-4.2882,-4.2882,0.0,-0.9702,-0.9724,-0.9805,-0.9815,-0.9828,-0.9828,-0.9919,-1.0595,-1.223,-1.3254,-1.4468,-1.6196,-1.6961,-1.8003,-1.9724,-2.1147,-2.2431,-2.3613,-2.5665,-2.6923,-2.7092,-2.8648,-2.9532,-2.9644,-2.982,-3.0354,-3.1225,-3.1405,-3.2306,-3.3853,-3.3853,-3.4238,-3.4914,-3.4861,-3.4789,-3.4717,-3.4661,-3.4207,-3.3486,-3.2597,-3.1694,-3.081,-2.9889,-2.9361,-2.901,-2.8137,-2.7222,-2.6307,-2.5554,-2.4622,-2.3756,-2.3756,-2.3681,-2.3404,-2.2374,-2.1742,-2.1298,-2.1004,-2.0964,-2.1359,-2.2718,-2.3084,-2.4034,0.0,0.0,-2.7915,-2.9512,-3.0505,-3.1428,-3.2532,-3.3359,-3.4413,-3.6173,-3.6514,-3.6872,-3.7765,-3.7873,-3.7891,-3.7925,-3.7998,-3.8395,-3.928,-3.9806,-4.0544,-4.152,-4.2067,-4.2414,-4.2503,-4.2387,-4.2287,-4.2287,-4.2287,-4.2287,-4.2287,-4.2287,-4.2287,-4.2287,-4.2287,-4.2287,-4.2287,-4.2287,-4.2387,-4.2503,-4.2548,-4.2649,-4.2783,-4.2783,-4.286,-4.29,-4.29,-4.2882,-4.2882,-4.2882,-4.2882,-4.2882,0.0,-0.9692,-0.9714,-0.9747,-0.978,-0.9805,-0.9805,-0.9888,-1.032,-1.1408,-1.2384,-1.3368,-1.4353,-1.526,-1.6472,-1.8166,-1.9731,-2.1232,-2.2618,-2.4832,-2.6321,-2.6784,-2.8053,-2.895,-2.9416,-2.9626,-3.0394,-3.1713,-3.1806,-3.2693,-3.4283,-3.4263,-3.4413,-3.4733,-3.4614,-3.4551,-3.4529,-3.4505,-3.4033,-3.3208,-3.2238,-3.1288,-3.0305,-2.8754,-2.8118,-2.7958,-2.7313,-2.6505,0.0,-2.4864,-2.419,-2.3692,-2.3692,-2.3646,-2.341,-2.2539,-2.2801,-2.344,-2.3822,-2.4265,-2.4766,0.0,-2.6254,-2.7371,-2.903,-2.9137,-2.9351,-3.0886,-3.1831,-3.2791,-3.4041,-3.49,-3.5845,0.0,-3.7273,-3.7416,-3.7756,-3.7898,-3.7951,-3.7951,-3.7951,-3.8437,-3.9734,-4.0075,-4.0739,-4.2013,-4.2346,-4.2463,-4.2405,-4.2328,-4.2287,-4.2287,-4.2287,-4.2287,-4.2287,-4.2287,-4.2287,-4.2287,-4.2287,-4.2287,-4.2287,-4.2287,-4.2369,-4.2548,-4.2709,-4.2786,-4.288,-4.288,-4.2862,-4.2882,-4.2882,-4.2882,-4.2882,-4.2882,-4.2882,-4.2882,0.0,-0.9695,-0.9692,-0.9695,-0.9739,-0.9784,-0.9791,-0.9837,-1.0137,-1.0883,-1.177,-1.2674,-1.3542,-1.4238,-1.5218,-1.6648,-1.8207,-1.9822,-2.1532,-2.3787,-2.5419,-2.6227,-2.7387,-2.8283,-2.8876,-2.9303,-3.0225,-3.1686,-3.1747,-3.248,-3.3853,-3.3992,-3.4064,-3.4061,-3.4153,-3.4195,-3.4195,-3.3961,-3.3533,-3.2901,-3.1639,-3.0636,-2.9677,-2.7961,-2.6988,-2.6513,-2.6132,-2.5466,-2.4599,-2.3801,-2.3428,-2.3304,-2.3304,-2.3414,-2.3445,-2.3071,-2.3927,-2.5122,-2.5658,-2.655,0.0,-2.7852,-2.9173,-3.0422,-3.0654,-3.0707,-3.1011,-3.2135,-3.283,-3.3562,-3.4704,-3.5721,-3.6595,-3.7202,-3.7721,-3.7954,-3.7793,-3.8043,-3.8151,-3.7935,-3.7899,-3.8438,-3.9787,-4.0055,-4.0825,-4.2418,-4.2486,-4.2405,-4.2346,-4.2328,-4.2287,-4.2287,-4.2287,-4.2287,-4.2287,-4.2287,-4.2287,-4.2287,-4.2287,-4.2287,-4.2287,-4.2346,-4.245,-4.2609,-4.2786,-4.29,-4.2882,-4.2882,-4.2882,-4.2882,-4.2882,-4.2882,-4.2882,-4.2882,-4.2882,-4.2882,0.0,0.0,-0.9706,-0.9692,-0.9699,-0.9725,-0.9791,-0.9805,-1.0072,-1.0816,-1.1652,-1.2789,-1.4309,-1.4499,-1.4899,-1.5841,-1.7291,-1.8886,-2.0626,-2.2939,-2.4593,-2.5403,-2.6964,-2.7827,-2.7846,-2.8799,-2.9741,-3.0637,-3.0843,-3.1354,-3.2202,-3.2889,-3.32,-3.3172,-3.3869,-3.4189,-3.4141,-3.3366,-3.3013,-3.2846,-3.1191,-2.9928,-2.8934,-2.7949,-2.6509,-2.4936,-2.4801,-2.4254,-2.3427,-2.2611,-2.2343,-2.2343,-2.2343,-2.2874,-2.3659,-2.4409,-2.5176,-2.5783,-2.58,0.0,-2.8503,-3.0029,-3.1599,-3.2991,-3.3776,-3.3972,-3.3972,-3.4026,-3.4062,-3.4079,-3.4133,-3.5382,-3.6452,-3.6629,-3.7882,-3.8635,-3.7971,-3.8564,-3.878,-3.7989,-3.7899,-3.8222,0.0,-3.9711,-4.0805,-4.2483,-4.2409,-4.2346,-4.2503,-4.2387,-4.2287,-4.2287,-4.2287,-4.2287,-4.2287,-4.2287,-4.2287,-4.2287,-4.2287,-4.2287,-4.2287,-4.2445,-4.2526,-4.2609,-4.2745,-4.2842,-4.2882,-4.2882,-4.2882,-4.2882,-4.2882,-4.2882,-4.2882,-4.2882,-4.2882,-4.2882,0.0,0.0,0.0,-0.9692,-0.9692,-0.9717,-0.9725,-0.9724,-1.002,-1.08,-1.2068,0.0,0.0,0.0,0.0,0.0,-1.7187,-1.857,-1.9696,-2.2059,-2.3768,-2.4557,-2.5621,-2.6704,-2.7769,-2.8088,-2.8942,-3.0332,-3.036,-3.0794,-3.1635,-3.1813,-3.1869,-3.1863,-3.2019,-3.207,-3.207,-3.1796,-3.1667,-3.1539,-2.9887,-2.9034,-2.8518,-2.6571,-2.5104,-2.4019,0.0,-2.2928,-2.2571,-2.1786,-2.1857,-2.2285,-2.2285,-2.2856,-2.3654,-2.4462,-2.5229,-2.6157,-2.7763,0.0,-3.0903,-3.2491,-3.3669,-3.4508,-3.4775,-3.4454,-3.4115,-3.4115,-3.3669,-3.3294,-3.3294,-3.4184,-3.5144,-3.5715,-3.7147,-3.8349,-3.8654,-3.9355,-3.9553,-3.8798,-3.9139,0.0,0.0,0.0,0.0,-4.1633,-4.168,-4.1832,-4.2351,-4.2328,-4.2287,-4.2287,-4.2287,-4.2287,-4.2287,-4.2287,-4.2287,-4.2287,-4.2387,-4.2445,-4.2445,-4.2606,-4.3012,-4.3538,-4.3638,-4.3966,-4.4476,-4.4476,-4.4476,-4.4476,-4.4476,-4.4168,-4.3697,-4.3697,-4.3353,-4.2882,0.0,0.0,0.0,0.0,0.0,0.0,0.0,0.0,0.0,0.0,0.0,0.0,0.0,0.0,0.0,0.0,0.0,-1.7711,-1.8794,-2.0629,-2.2299,-2.3712,-2.4263,-2.5162,-2.6484,-2.646,-2.712,-2.8443,-2.8421,-2.8842,-2.9654,-2.9826,-2.9922,-2.994,-3.0059,-3.0133,-3.0115,-2.9844,-2.9717,-2.9608,-2.8286,-2.758,-2.7103,-2.5203,-2.397,0.0,-2.192,-2.1465,-2.1393,-2.0876,-2.1233,-2.1857,-2.1857,-2.2999,-2.4427,-2.4944,-2.605,-2.7549,-2.9654,-3.1153,-3.2563,-3.4454,-3.5293,-3.5632,-3.5632,-3.5043,-3.4347,-3.3776,-3.2795,-3.2028,-3.2028,-3.2487,-3.3355,-3.473,-3.6574,-3.8062,-3.8887,-3.9947,-4.0362,-3.9589,-3.9949,0.0,0.0,0.0,0.0,-4.1647,-4.1733,-4.1908,-4.2269,-4.2346,-4.2346,-4.2287,-4.2287,-4.2287,-4.2287,-4.2287,-4.2287,-4.2287,-4.2445,-4.2647,-4.2898,-4.3098,-4.361,-4.4426,-4.4469,-4.4798,-4.5291,-4.5291,-4.5291,-4.5291,-4.5291,-4.4983,-4.453,-4.453,-4.4186,-4.3679,0.0,0.0,0.0,0.0,0.0,0.0,0.0,0.0,0.0,0.0,0.0,0.0,0.0,0.0,0.0,0.0,0.0,0.0,-1.7876,-1.8812,-2.0354,-2.2721,-2.2887,-2.3327,-2.4116,-2.4135,-2.4501,-2.523,-2.5326,-2.5748,-2.6454,-2.7191,-2.7533,-2.757,-2.8191,-2.8478,-2.8424,-2.7671,-2.7345,-2.7272,-2.6421,-2.5624,-2.4824,-2.3923,-2.307,-2.2168,-2.0559,-2.0002,-2.0002,-2.0002,-2.0573,-2.1304,0.0,0.0,-2.5943,-2.5979,-2.7674,-2.9869,-3.1403,-3.242,-3.3598,-3.5882,-3.6435,-3.6399,-3.6399,-3.5721,-3.4668,-3.3134,-3.1528,-3.0368,0.0,0.0,-3.1237,-3.3673,-3.6058,-3.7917,-3.885,-4.0394,-4.1171,0.0,0.0,0.0,0.0,0.0,0.0,-4.2378,0.0,-4.2409,-4.2328,-4.2445,-4.2445,-4.2287,-4.2287,-4.2287,-4.2287,-4.2287,-4.2346,-4.2382,-4.2517,-4.2933,-4.3691,-4.3809,-4.4399,-4.5256,-4.5256,-4.5337,-4.5417,-4.5417,-4.5417,-4.5417,-4.5417,-4.5399,-4.5363,-4.5363,-4.5345,-4.5073,0.0,0.0,0.0,0.0,0.0,0.0,0.0,0.0,0.0,0.0,0.0,0.0,0.0,0.0,0.0,0.0,0.0,0.0,-1.6279,-1.8188,-1.9565,-2.0207,-2.1384,-2.241,-2.3217,-2.3141,-2.3487,-2.433,-2.4889,-2.529,-2.5552,-2.6289,-2.6631,-2.665,-2.6776,-2.6819,-2.6801,-2.6602,-2.6512,-2.6385,-2.4964,-2.4299,-2.3937,-2.2422,-2.1375,-2.0657,-2.0165,-2.0002,-2.0002,0.0,0.0,0.0,0.0,-2.6461,-2.7727,0.0,0.0,-3.1457,-3.3062,-3.4472,-3.5792,-3.6988,-3.6827,-3.6399,-3.6399,-3.4882,-3.3187,-3.2206,-3.0297,-2.8602,0.0,0.0,0.0,-3.2199,-3.5395,0.0,-3.9806,-4.1335,0.0,-4.1395,0.0,-4.1973,-4.134,-4.1751,0.0,0.0,-4.197,-4.1837,-4.2427,-4.2405,-4.2346,-4.2287,-4.2287,-4.2287,-4.2287,-4.2405,-4.2714,-4.3292,-4.3508,-4.4021,-4.4777,-4.4881,-4.5355,-4.6173,-4.6173,-4.6517,-4.7102,-4.7102,-4.7102,-4.7102,-4.7102,-4.6721,-4.6196,-4.6196,-4.5816,-4.5236,0.0,0.0,0.0,0.0,0.0,0.0,0.0,0.0,0.0,0.0,0.0,0.0,0.0,0.0,0.0,0.0,0.0,0.0,0.0,-1.6958,-1.8188,-1.9256,-1.9829,-2.0654,-2.1771,-2.1717,-2.1917,-2.2391,-2.3173,-2.3573,-2.3593,-2.399,-2.4187,-2.4187,-2.4142,-2.4139,-2.4139,-2.4139,-2.4139,0.0,0.0,-2.2759,-2.2596,-2.1231,-2.0456,-2.0027,-1.9629,-2.0144,0.0,0.0,0.0,-2.5033,-2.6942,-2.8316,-2.9387,-3.0172,0.0,-3.3508,-3.4775,-3.5989,-3.7023,-3.747,-3.6988,-3.6131,-3.5096,-3.3562,-3.1831,-3.0011,-2.8316,0.0,0.0,0.0,0.0,0.0,0.0,0.0,-3.9482,-4.1175,-4.2168,0.0,-4.2571,0.0,-4.221,-4.2456,-4.2688,0.0,-4.2214,-4.206,-4.2486,-4.2445,-4.2405,-4.2405,-4.2328,-4.2465,-4.2822,-4.2946,-4.3363,-4.4115,-4.4417,-4.4931,-4.5689,-4.5793,-4.6269,-4.7029,0.0,-4.7283,-4.7717,-4.7717,-4.7717,-4.7717,-4.7717,-4.7428,-4.7029,-4.7029,-4.6739,-4.6359,0.0,0.0,0.0,0.0,0.0,0.0,0.0,0.0,0.0,0.0,0.0,0.0,0.0,0.0,0.0,0.0,0.0,0.0,0.0,0.0,-1.6688,-1.888,-1.8407,-1.8757,-2.0203,-2.0241,-2.0207,-2.0136,-2.1007,-2.1407,-2.1334,-2.1443,-2.1497,-2.1497,-2.1514,-2.1514,-2.1514,-2.1514,-2.1441,-2.1314,-2.1239,-2.1167,-2.0986,0.0,-1.9917,-1.9864,-1.9307,-2.0358,0.0,0.0,-2.5676,-2.5711,-2.7977,-2.9672,-3.1011,-3.1903,-3.3616,-3.54,-3.631,-3.7059,-3.7559,-3.7452,-3.6756,-3.5507,-3.3241,-3.1956,-3.0368,-2.7317,0.0,-2.5586,-2.5372,-2.5586,-2.6879,-3.0163,0.0,-3.5388,-3.878,-4.0635,-4.1881,-4.2732,-4.2862,-4.29,-4.29,-4.2842,-4.2842,-4.29,-4.2727,-4.2588,-4.2544,-4.2503,-4.2503,-4.2503,-4.2387,-4.2721,-4.35,-4.3614,-4.4103,-4.5,-4.5245,-4.5784,-4.6465,-4.6626,-4.7047,-4.7717,0.0,0.0,-4.7717,-4.7717,-4.7717,-4.7717,-4.7717,-4.7717,-4.7717,-4.7717,-4.7717,-4.7717,0.0,0.0,0.0,0.0,0.0,0.0,0.0,0.0,0.0,0.0,-1.4264,-1.4488,0.0,0.0,0.0,0.0,0.0,0.0,0.0,0.0,0.0,-1.7284,-1.7771,-1.8435,-1.9297,-1.9337,0.0,0.0,0.0,-2.0517,-2.0536,-2.1188,-2.1495,-2.1495,-2.1495,-2.1514,-2.1514,-2.1514,-2.1078,-2.0426,-2.0353,-1.9921,-1.9309,-1.9111,0.0,0.0,-2.0325,0.0,0.0,-2.5337,-2.7585,-2.8887,-3.0564,-3.1724,-3.2759,-3.4187,-3.4882,-3.5525,-3.6988,-3.747,-3.7434,-3.6774,-3.5543,-3.4044,-3.2295,-3.0297,0.0,0.0,-2.4998,-2.448,-2.3142,-2.448,0.0,-3.0163,0.0,0.0,0.0,0.0,-4.1919,0.0,0.0,0.0,0.0,0.0,0.0,0.0,0.0,0.0,-4.2588,-4.2526,-4.2503,-4.2503,-4.2548,-4.2889,-4.3596,-4.3796,-4.4656,-4.602,-4.6205,-4.668,-4.7458,-4.75,-4.7572,-4.7717,0.0,0.0,-4.7717,-4.7717,-4.7717,-4.7717,-4.7717,-4.7717,-4.7717,-4.7717,-4.7717,-4.7717,0.0,0.0,0.0,0.0,0.0,0.0,0.0,-1.2472,-1.3678,-1.5289,-1.6023,-1.6059,-1.5215,-1.4756,-1.4488,0.0,0.0,0.0,0.0,0.0,0.0,0.0,-1.6925,-1.7697,0.0,0.0,0.0,0.0,0.0,0.0,0.0,0.0,0.0,0.0,0.0,0.0,0.0,-2.0246,-1.9993,-1.9561,0.0,0.0,0.0,0.0,0.0,0.0,0.0,0.0,0.0,0.0,-2.6496,-2.8495,-3.0457,-3.192,-3.3116,-3.4294,-3.5204,-3.6078,-3.7273,-3.7577,-3.7398,-3.6595,-3.5239,-3.3473,-3.1046,0.0,0.0,0.0,-2.3445,-2.3213,-2.2428,0.0,0.0,0.0,0.0,0.0,0.0,0.0,0.0,0.0,0.0,0.0,0.0,0.0,0.0,0.0,0.0,0.0,-4.2706,-4.2667,-4.2606,-4.2548,-4.2667,-4.3242,-4.4306,-4.4525,-4.54,-4.6934,-4.7078,-4.7337,-4.7717,-4.7717,-4.7717,-4.7717,-4.7717,0.0,-4.7717,-4.7717,-4.7717,-4.7717,-4.7717,-4.7717,-4.7717,-4.7717,-4.7717,-4.7717,0.0,0.0,0.0,0.0,0.0,0.0,0.0,-1.2987,-1.4157,-1.6718,-1.7612,-1.7548,-1.6327,-1.5496,-1.4873,0.0,0.0,0.0,0.0,0.0,0.0,0.0,0.0,0.0,0.0,0.0,0.0,0.0,0.0,0.0,0.0,0.0,0.0,0.0,0.0,0.0,0.0,0.0,0.0,0.0,0.0,0.0,0.0,0.0,0.0,0.0,0.0,0.0,0.0,0.0,-2.4623,-2.6389,-2.8762,-3.0725,-3.2331,-3.3294,-3.4686,-3.6114,-3.7077,-3.7452,-3.7362,-3.6381,-3.4989,-3.3027,-2.9869,-2.7299,0.0,0.0,-2.2285,-2.2307,-2.2307,0.0,0.0,0.0,0.0,0.0,0.0,0.0,0.0,0.0,0.0,0.0,0.0,0.0,0.0,0.0,0.0,0.0,0.0,-4.2783,-4.2745,-4.2649,-4.2946,-4.3722,-4.5042,-4.5346,-4.6181,-4.7554,-4.7657,-4.7717,-4.7717,-4.7717,-4.7717,-4.7717,-4.7717,0.0,0.0,-4.7717,-4.7717,-4.7717,-4.7717,-4.7717,-4.7717,-4.7717,-4.7717,-4.7717,0.0,0.0,0.0,0.0,0.0,0.0,0.0,-1.3156,-1.4879,-1.8092,-1.8055,-1.7754,-1.7778,-1.7123,-1.607,0.0,0.0,0.0,0.0,0.0,0.0,0.0,0.0,0.0,0.0,0.0,0.0,0.0,0.0,0.0,0.0,0.0,0.0,0.0,0.0,0.0,0.0,0.0,0.0,0.0,0.0,0.0,0.0,0.0,0.0,0.0,0.0,0.0,0.0,0.0,0.0,-2.3124,-2.5497,-2.7835,-3.0011,-3.1492,0.0,0.0,-3.6114,-3.7023,-3.722,-3.5703,-3.4151,-3.217,-2.9048,0.0,0.0,-2.2642,-2.2285,-2.2307,-2.2389,-2.3106,0.0,0.0,0.0,-3.017,0.0,0.0,0.0,0.0,0.0,0.0,0.0,0.0,0.0,0.0,0.0,0.0,0.0,-4.2783,-4.2783,-4.2783,-4.3547,-4.4343,-4.5183,-4.597,-4.683,-4.7657,-4.7699,-4.7717,-4.7717,-4.7717,-4.7717,-4.7717,0.0,0.0,0.0,-4.7717,-4.7717,-4.7717,-4.7717,-4.7717,-4.7717,-4.7717,-4.7717,-4.7717,0.0,0.0,0.0,0.0,0.0,0.0,-1.2055,-1.2814,-1.4299,-1.7542,-1.827,-1.835,-1.8042,-1.7738,-1.6712,-1.4581,0.0,0.0,0.0,0.0,0.0,0.0,0.0,0.0,0.0,0.0,0.0,0.0,0.0,0.0,0.0,0.0,0.0,0.0,0.0,0.0,0.0,0.0,0.0,0.0,0.0,0.0,0.0,0.0,0.0,0.0,0.0,0.0,0.0,0.0,0.0,0.0,-2.2143,-2.3945,0.0,0.0,-3.1421,-3.3098,-3.5132,-3.6274,-3.6613,-3.5489,-3.4044,-3.2063,-2.8941,0.0,-2.423,-2.2624,-2.2329,-2.2368,-2.241,-2.3117,-2.4046,-2.5023,-2.5466,-2.7007,0.0,0.0,0.0,0.0,0.0,0.0,0.0,0.0,0.0,0.0,0.0,0.0,0.0,-4.288,-4.288,-4.288,-4.3679,-4.4494,-4.5269,-4.6065,-4.6902,-4.7717,-4.7717,-4.7717,-4.7717,-4.7717,-4.7717,-4.7717,0.0,0.0,0.0,-4.7717,-4.7717,-4.7717,-4.7717,-4.7717,-4.7717,-4.7717,-4.7717,-4.7717,0.0,0.0,0.0,0.0,0.0,-0.9759,-1.2026,-1.2485,-1.3756,-1.7011,-1.7843,-1.8103,-1.7978,-1.7551,-1.6583,-1.4872,-1.4262,0.0,0.0,0.0,0.0,0.0,0.0,0.0,0.0,0.0,0.0,0.0,-1.934,0.0,0.0,0.0,0.0,0.0,0.0,0.0,0.0,0.0,0.0,0.0,0.0,0.0,0.0,0.0,0.0,0.0,0.0,0.0,0.0,0.0,0.0,0.0,0.0,0.0,-2.3481,0.0,-2.944,-3.1474,-3.3598,-3.4936,-3.5525,-3.4722,-3.3348,-3.1421,0.0,-2.6032,-2.4016,-2.2892,-2.2529,-2.2482,-2.2736,-2.3343,-2.3804,-2.3804,-2.4009,-2.528,-2.8496,0.0,0.0,0.0,0.0,0.0,0.0,0.0,0.0,0.0,0.0,0.0,0.0,-4.2882,-4.3009,-4.3244,-4.4023,-4.4838,-4.5653,-4.645,-4.7156,-4.7717,-4.7717,-4.7717,-4.7717,-4.7717,-4.7717,-4.7717,0.0,0.0,0.0,-4.7717,-4.7717,-4.7717,-4.7717,-4.7717,-4.7717,-4.7717,-4.7717,-4.7717,0.0,0.0,0.0,0.0,0.0,0.0,-1.1953,-1.2295,-1.351,-1.6869,-1.6624,-1.6568,-1.777,-1.6479,-1.5524,-1.5488,-1.4524,0.0,0.0,0.0,0.0,0.0,0.0,0.0,0.0,0.0,-1.9087,-1.9087,-1.9902,-1.9884,0.0,0.0,0.0,0.0,0.0,0.0,0.0,0.0,0.0,0.0,0.0,0.0,0.0,0.0,0.0,0.0,0.0,0.0,0.0,0.0,0.0,0.0,0.0,0.0,-2.1607,-2.4034,-2.6978,-2.9762,-3.1314,-3.2902,-3.3937,-3.3098,-3.1706,-2.9922,0.0,-2.5212,-2.3494,-2.3476,-2.2901,-2.2665,-2.3516,-2.3743,-2.3804,-2.3804,-2.448,-2.609,-2.9232,0.0,0.0,0.0,0.0,0.0,0.0,0.0,0.0,0.0,0.0,0.0,0.0,0.0,-4.3244,-4.4059,-4.4874,-4.5671,-4.6486,-4.7301,-4.7699,-4.7717,-4.7717,-4.7717,-4.7717,-4.7717,-4.7717,0.0,0.0,0.0,0.0,-4.7717,-4.7717,-4.7717,-4.7717,-4.7717,-4.7717,-4.7717,-4.7717,-4.7717,0.0,0.0,0.0,0.0,0.0,0.0,0.0,-1.1147,-1.2312,-1.4674,-1.5182,-1.5786,-1.6953,-1.6135,-1.546,-1.5375,-1.4542,0.0,0.0,0.0,0.0,0.0,0.0,0.0,0.0,-1.8288,-1.9359,-1.992,-2.0173,-2.0445,-2.0735,0.0,0.0,0.0,0.0,0.0,0.0,0.0,0.0,0.0,0.0,0.0,0.0,0.0,0.0,0.0,0.0,0.0,0.0,0.0,0.0,0.0,0.0,0.0,0.0,-2.1268,-2.3713,0.0,-2.8744,-3.0083,-3.0832,-3.0564,-2.9708,-2.8459,-2.6603,-2.5212,-2.4177,-2.3601,-2.3392,-2.3372,-2.3646,-2.3747,-2.4154,-2.5258,-2.6108,-2.7176,0.0,0.0,0.0,0.0,0.0,0.0,0.0,0.0,0.0,0.0,0.0,0.0,0.0,0.0,-4.3262,-4.4059,-4.4874,-4.5689,-4.6504,-4.7301,-4.7717,-4.7717,-4.7717,-4.7717,-4.7717,-4.7717,0.0,0.0,0.0,0.0,0.0,-4.7717,-4.7717,-4.7717,-4.7717,-4.7717,-4.7717,-4.7717,-4.7717,-4.7717,0.0,0.0,0.0,0.0,0.0,0.0,0.0,-1.0429,-1.129,-1.2793,-1.3447,-1.4268,-1.565,-1.5085,-1.481,-1.5336,-1.4643,0.0,0.0,0.0,0.0,0.0,0.0,0.0,-1.6693,-1.798,-1.9177,-2.03,-2.0608,-2.0988,-2.1457,-2.122,-2.0749,0.0,0.0,0.0,0.0,0.0,0.0,0.0,0.0,0.0,0.0,0.0,0.0,0.0,0.0,0.0,0.0,0.0,0.0,0.0,0.0,0.0,0.0,0.0,-2.1393,-2.3517,0.0,-2.7674,-2.8495,-2.8495,-2.7888,-2.6978,-2.5676,-2.4801,-2.4123,-2.3583,-2.3611,-2.37,-2.37,-2.375,-2.4121,-2.5135,-2.5968,0.0,0.0,0.0,0.0,0.0,0.0,0.0,0.0,0.0,0.0,0.0,0.0,0.0,0.0,0.0,-4.3262,-4.4059,-4.4874,-4.5689,-4.6504,-4.7301,-4.7717,-4.7717,-4.7717,-4.7717,-4.7717,-4.7717,0.0,0.0,0.0,0.0,0.0,-4.7717,-4.7717,-4.7717,-4.7717,-4.7717,-4.7717,-4.7717,-4.7717,-4.7717,0.0,0.0,0.0,0.0,0.0,0.0,0.0,-1.0083,-1.048,-1.1311,-1.1565,-1.2323,-1.4003,-1.3522,-1.3715,-1.5275,0.0,0.0,0.0,0.0,0.0,0.0,0.0,0.0,-1.6675,-1.7491,-1.8707,-2.0391,-2.1133,-2.1512,-2.158,-2.2265,-2.1702,-2.0079,-2.0043,0.0,0.0,0.0,0.0,0.0,0.0,0.0,0.0,0.0,0.0,0.0,0.0,0.0,0.0,0.0,0.0,0.0,0.0,0.0,0.0,0.0,0.0,0.0,0.0,-2.5444,0.0,-2.6568,-2.605,-2.5372,-2.4694,-2.3998,0.0,-2.3517,-2.3611,-2.3718,-2.3772,-2.3804,-2.3868,-2.4103,0.0,0.0,0.0,0.0,0.0,0.0,0.0,0.0,0.0,0.0,0.0,0.0,0.0,0.0,0.0,0.0,0.0,-4.3987,-4.4802,-4.5635,-4.6504,-4.7246,-4.7645,-4.7717,-4.7717,-4.7717,-4.7717,-4.7717,0.0,0.0,0.0,0.0,0.0,-4.7717,-4.7717,-4.7717,-4.7717,-4.7717,-4.7717,-4.7717,-4.7717,-4.7717,0.0,0.0,0.0,0.0,0.0,0.0,0.0,0.0,0.0,0.0,-1.1141,-1.1889,-1.2953,-1.3032,-1.34,0.0,0.0,0.0,0.0,0.0,0.0,0.0,0.0,0.0,-1.6675,-1.7491,-1.8978,-2.1224,-2.1367,-2.2052,-2.3205,-2.2689,-2.1911,-2.0885,-2.0273,-1.9538,0.0,0.0,0.0,0.0,0.0,0.0,0.0,0.0,0.0,0.0,0.0,0.0,0.0,0.0,0.0,0.0,0.0,0.0,0.0,0.0,-1.952,-2.0162,-2.0894,0.0,-2.2482,-2.2482,-2.2803,-2.3071,0.0,-2.3218,-2.3562,-2.3562,-2.3696,-2.3963,-2.4577,-2.4187,-2.461,0.0,0.0,0.0,0.0,0.0,0.0,0.0,0.0,0.0,0.0,0.0,0.0,0.0,0.0,0.0,0.0,0.0,0.0,-4.3172,-4.3951,-4.5055,-4.6486,-4.6703,-4.7102,-4.7717,-4.7717,-4.7717,-4.7717,-4.7717,0.0,0.0,0.0,0.0,-4.7717,-4.7717,-4.7717,-4.7717,-4.7717,-4.7717,-4.7717,-4.7717,-4.7717,-4.7717,0.0,0.0,0.0,0.0,0.0,0.0,0.0,0.0,0.0,0.0,0.0,-1.0837,-1.202,-1.2329,0.0,0.0,0.0,0.0,0.0,0.0,0.0,0.0,0.0,-1.5432,-1.6675,-1.7128,-1.8707,-2.1514,-2.1457,-2.2251,-2.3786,-2.325,-2.236,-2.1153,-1.9967,-1.9217,0.0,0.0,0.0,0.0,0.0,0.0,0.0,0.0,0.0,0.0,0.0,-1.7288,0.0,-1.8092,-1.8735,-1.9288,0.0,0.0,0.0,0.0,-1.9109,-1.9448,-1.9448,-2.0805,-2.2214,-2.2239,-2.2825,-2.3414,-2.3437,-2.3531,-2.3585,-2.3585,0.0,0.0,0.0,0.0,0.0,0.0,0.0,0.0,0.0,0.0,0.0,0.0,0.0,0.0,0.0,0.0,0.0,0.0,0.0,0.0,0.0,0.0,0.0,0.0,-4.3317,-4.4313,-4.5924,-4.6323,-4.6902,-4.7717,-4.7717,-4.7717,-4.7717,-4.7717,0.0,0.0,0.0,0.0,-4.7717,-4.7717,-4.7717,-4.7717,-4.7717,-4.7717,-4.7717,-4.7717,-4.7717,-4.7717,0.0,0.0,0.0,0.0,0.0,0.0,0.0,0.0,0.0,0.0,0.0,0.0,0.0,0.0,0.0,0.0,0.0,0.0,0.0,0.0,0.0,0.0,-1.4141,-1.498,-1.6838,-1.6766,-1.8288,-2.1514,-2.1476,-2.2217,-2.3623,-2.3667,-2.2794,-2.1135,-1.9646,-1.8895,0.0,0.0,0.0,0.0,0.0,0.0,0.0,0.0,0.0,0.0,0.0,0.0,0.0,-1.7521,-1.8521,-1.9538,-1.8985,0.0,0.0,0.0,0.0,0.0,-1.9073,-2.1266,-2.3427,-2.3119,-2.3794,-2.4504,-2.4431,-2.4024,-2.3607,0.0,0.0,0.0,0.0,-2.5384,0.0,0.0,0.0,0.0,0.0,0.0,0.0,0.0,0.0,0.0,0.0,0.0,0.0,0.0,0.0,0.0,0.0,0.0,0.0,0.0,-4.2882,-4.3607,-4.5091,-4.5906,-4.6721,-4.7518,-4.7645,-4.7717,-4.7717,-4.7717,0.0,0.0,0.0,0.0,-4.7717,-4.7717,-4.7717,-4.7717,-4.7717,-4.7717,-4.7717,-4.7717,-4.7717,-4.7717,0.0,0.0,0.0,0.0,0.0,0.0,0.0,0.0,0.0,0.0,0.0,0.0,0.0,0.0,0.0,0.0,0.0,0.0,0.0,0.0,0.0,-1.4268,-1.4268,-1.5347,-1.7672,-1.7056,-1.8288,-2.1514,-2.1438,-2.1888,-2.2808,-2.3347,-2.2726,-2.1093,-2.0198,-1.9448,-1.8788,-1.8788,0.0,0.0,0.0,0.0,0.0,0.0,0.0,0.0,0.0,0.0,0.0,-1.7163,-1.7771,-1.8074,-1.8628,0.0,0.0,0.0,0.0,0.0,-2.0394,-2.2107,-2.3035,-2.1057,-2.2125,-2.3517,-2.2909,-2.3243,-2.37,0.0,0.0,0.0,0.0,0.0,0.0,0.0,0.0,0.0,0.0,0.0,0.0,0.0,0.0,0.0,0.0,0.0,0.0,0.0,0.0,0.0,0.0,0.0,0.0,0.0,0.0,-4.3335,-4.4277,-4.5073,-4.5888,-4.6703,-4.7373,-4.7717,-4.7717,-4.7717,-4.7717,0.0,0.0,-4.7717,-4.7717,-4.7717,-4.7717,-4.7717,-4.7717,-4.7717,-4.7717,-4.7717,-4.7717,-4.7717,0.0,0.0,0.0,0.0,0.0,0.0,0.0,0.0,0.0,0.0,0.0,0.0,0.0,0.0,0.0,0.0,0.0,0.0,0.0,0.0,-1.4493,-1.4927,-1.4945,-1.5882,-1.7871,-1.7962,-1.9359,-2.2165,-2.2108,-2.2506,-2.3247,-2.2638,-2.1926,-2.1077,-1.9432,-1.8485,-1.811,-1.77,-1.729,0.0,0.0,0.0,0.0,0.0,0.0,0.0,0.0,0.0,0.0,0.0,-1.72,-1.8235,-1.8164,0.0,0.0,0.0,0.0,0.0,-1.9663,-2.1343,-2.265,-2.158,-2.3383,-2.5481,-2.5655,-2.5667,-2.5654,0.0,0.0,0.0,0.0,0.0,0.0,0.0,0.0,0.0,0.0,0.0,0.0,0.0,0.0,0.0,0.0,0.0,0.0,0.0,0.0,0.0,0.0,0.0,0.0,0.0,0.0,-4.3063,-4.3444,-4.4675,-4.5707,-4.6504,-4.7319,-4.7717,-4.7717,-4.7717,-4.7717,-4.7717,0.0,-4.7717,-4.7717,-4.7717,-4.7717,-4.7717,-4.7717,-4.7717,-4.7717,-4.7717,-4.7717,-4.7717,0.0,0.0,0.0,0.0,0.0,0.0,0.0,0.0,0.0,0.0,0.0,0.0,0.0,0.0,0.0,0.0,0.0,0.0,0.0,-1.4185,-1.4565,-1.518,-1.5578,-1.6624,-1.8417,-1.887,-2.0282,-2.2709,-2.2709,-2.3089,-2.3756,-2.2283,-2.1339,-2.0849,-1.8807,-1.7664,-1.7288,-1.6665,-1.629,0.0,0.0,0.0,0.0,0.0,0.0,0.0,0.0,0.0,0.0,0.0,0.0,0.0,0.0,0.0,0.0,-1.8985,-1.8806,-1.8895,-1.9252,-2.0865,-2.25,-2.2898,-2.4777,-2.69,-2.8196,-2.7879,-2.7446,-2.8048,0.0,0.0,0.0,0.0,0.0,0.0,0.0,0.0,0.0,0.0,0.0,0.0,0.0,0.0,0.0,0.0,0.0,0.0,0.0,0.0,0.0,0.0,0.0,0.0,0.0,0.0,-4.2882,-4.4313,-4.5417,-4.6232,-4.7228,-4.7717,-4.7717,-4.7717,-4.7717,-4.7717,-4.7717,-4.7717,-4.7717,-4.7717,-4.7717,-4.7717,-4.7717,-4.7717,-4.7717,-4.7717,-4.7717,-4.7717,0.0,0.0,0.0,0.0,0.0,0.0,0.0,0.0,0.0,0.0,0.0,0.0,0.0,0.0,0.0,0.0,0.0,0.0,0.0,-1.389,-1.433,-1.4384,-1.5809,-1.7726,-2.0083,-1.9449,-2.0282,-2.2709,-2.2709,-2.3087,-2.3786,-2.2839,-2.1608,-2.0151,-1.9146,-1.7878,-1.6487,-1.6415,-1.6005,-1.5363,-1.5309,0.0,0.0,0.0,0.0,0.0,0.0,0.0,0.0,0.0,0.0,0.0,0.0,0.0,-1.8859,-1.8806,-1.8843,-1.9219,-2.065,-2.1747,-2.2869,-2.4352,-2.4828,-2.5601,-2.7944,-2.7879,-2.7958,-3.0278,0.0,0.0,0.0,0.0,0.0,0.0,0.0,0.0,0.0,0.0,0.0,0.0,0.0,0.0,0.0,0.0,0.0,0.0,0.0,0.0,0.0,0.0,0.0,0.0,0.0,0.0,-4.2882,-4.3751,-4.4584,-4.5399,-4.6975,-4.7717,-4.7717,-4.7717,-4.7717,-4.7717,-4.7717,-4.7717,-4.7717,-4.7717,-4.7717,-4.7717,-4.7717,-4.7717,-4.7717,-4.7717,-4.7717,-4.7717,0.0,0.0,0.0,0.0,0.0,0.0,0.0,0.0,0.0,0.0,0.0,0.0,0.0,0.0,0.0,0.0,0.0,0.0,0.0,-1.3383,-1.3986,-1.4999,-1.6099,-1.7364,-1.8779,-1.9974,-2.1514,-2.3379,-2.2926,-2.2833,-2.3027,-2.165,-2.0674,-2.0044,-1.8682,-1.7718,-1.7075,-1.6112,-1.5541,-1.5255,-1.4756,0.0,0.0,0.0,0.0,0.0,0.0,0.0,0.0,0.0,-1.5612,-1.6504,-1.7146,-1.8039,-1.8806,-1.886,-1.8878,-1.9022,-1.9613,-2.15,-2.3455,-2.4071,-2.5695,-2.7669,-2.9592,-3.0595,-3.1645,-3.3592,-3.3991,0.0,0.0,0.0,0.0,0.0,0.0,0.0,0.0,0.0,0.0,0.0,0.0,0.0,0.0,0.0,0.0,0.0,0.0,0.0,0.0,0.0,0.0,0.0,0.0,0.0,0.0,-4.3697,-4.424,-4.4566,-4.6178,-4.6957,-4.6975,-4.7482,-4.7717,-4.7717,-4.7717,-4.7717,-4.7717,-4.7717,-4.7717,-4.7717,-4.7717,-4.7717,-4.7717,-4.7717,-4.7717,-4.7717,0.0,0.0,0.0,0.0,0.0,0.0,0.0,0.0,0.0,0.0,0.0,0.0,0.0,0.0,0.0,0.0,0.0,0.0,-1.226,-1.2821,-1.36,-1.4692,-1.5755,-1.6711,-1.7509,-1.963,-2.1514,-2.3071,-2.2817,-2.2544,-2.2217,-2.0804,-2.0118,-2.0027,-1.8377,-1.7627,-1.7503,-1.5949,-1.5288,-1.522,-1.4417,-1.41,0.0,0.0,0.0,0.0,0.0,0.0,0.0,0.0,-1.5184,-1.6145,-1.6695,-1.7591,-1.8503,-1.8807,-1.9094,-1.9291,-1.9291,-2.1326,-2.3572,-2.406,-2.6416,-2.9156,-3.1274,-3.2814,-3.4389,-3.6508,-3.6743,-3.6653,-3.6888,0.0,0.0,0.0,0.0,0.0,0.0,0.0,0.0,0.0,0.0,0.0,0.0,0.0,0.0,0.0,0.0,0.0,0.0,0.0,0.0,0.0,0.0,0.0,-4.2882,-4.3444,-4.3715,-4.3733,-4.5091,-4.6015,-4.6522,-4.7083,-4.7464,-4.7717,-4.7717,-4.7717,-4.7717,-4.7717,-4.7717,-4.7717,-4.7717,-4.7717,-4.7717,-4.7717,-4.7717,-4.7717,0.0,0.0,0.0,0.0,0.0,0.0,0.0,0.0,0.0,0.0,0.0,0.0,0.0,0.0,0.0,0.0,0.0,0.0,-1.0694,-1.2187,-1.3075,-1.3111,-1.4619,-1.5863,-1.6657,-1.8252,-1.9866,-2.1495,-2.2292,-2.2274,-2.1459,-2.0589,-2.0137,-2.0029,-1.8499,-1.773,-1.7503,-1.5959,-1.53,-1.5238,-1.4453,-1.41,0.0,0.0,0.0,0.0,0.0,0.0,0.0,0.0,-1.5288,-1.5586,-1.7177,-1.7696,-1.7874,-1.868,-1.9489,-2.0119,-2.0192,-2.1457,-2.3107,0.0,0.0,0.0,-3.2687,-3.4063,-3.5548,-3.8753,-3.879,-3.8464,-3.926,0.0,0.0,0.0,0.0,0.0,0.0,0.0,0.0,0.0,0.0,0.0,0.0,0.0,0.0,0.0,0.0,0.0,0.0,0.0,0.0,0.0,0.0,0.0,-4.2882,-4.2882,-4.2882,-4.29,-4.3697,-4.4928,-4.6486,-4.6486,-4.6939,-4.7699,-4.7699,-4.7699,-4.7717,-4.7717,-4.7717,-4.7717,-4.7717,-4.7717,-4.7717,-4.7717,-4.7717,-4.7717,0.0,0.0,0.0,0.0,0.0,0.0,0.0,0.0,0.0,0.0,0.0,0.0,0.0,0.0,0.0,0.0,0.0,0.0,-1.0657,-1.1147,-1.1916,-1.3057,-1.4094,-1.4777,-1.5012,-1.6602,-1.8487,-2.0662,-2.0336,-2.0029,-1.974,-1.9488,-1.9309,-1.9255,-1.9381,-1.8753,-1.7589,-1.6518,-1.6107,-1.6072,-1.527,-1.4934,-1.4934,0.0,0.0,0.0,0.0,0.0,0.0,0.0,0.0,0.0,-1.6576,-1.7674,-1.8592,-1.8877,-1.9921,-2.0838,-2.0336,-2.2632,0.0,-2.5733,0.0,0.0,0.0,-3.5747,0.0,0.0,-4.0836,-4.0564,0.0,0.0,0.0,0.0,0.0,0.0,0.0,0.0,0.0,0.0,0.0,0.0,0.0,0.0,0.0,0.0,0.0,0.0,0.0,0.0,0.0,0.0,0.0,0.0,-4.2882,-4.2882,-4.2882,-4.2882,-4.3136,-4.3788,-4.482,-4.5399,-4.6087,-4.6866,-4.6866,-4.7192,-4.7717,-4.7717,-4.7717,-4.7717,-4.7717,-4.7717,-4.7717,-4.7717,-4.7717,-4.7717,0.0,0.0,0.0,0.0,0.0,0.0,0.0,0.0,0.0,0.0,-0.9033,-0.9143,0.0,0.0,0.0,0.0,0.0,0.0,0.0,-1.0811,-1.1608,-1.2586,-1.3709,-1.4438,-1.4764,-1.5737,-1.6932,-1.8399,-1.8544,-1.86,-1.8566,-1.8892,-1.9163,-1.9453,-1.9939,-1.9435,-1.8107,-1.6962,-1.6496,-1.6443,-1.5669,-1.5361,-1.5347,0.0,0.0,0.0,0.0,0.0,0.0,0.0,0.0,0.0,-1.5883,-1.6754,-1.7709,-1.873,-1.9921,-2.0966,-2.1492,-2.3883,0.0,-2.7797,-3.0767,-3.4027,-3.6399,0.0,0.0,0.0,0.0,0.0,0.0,0.0,0.0,0.0,0.0,0.0,0.0,0.0,0.0,0.0,0.0,0.0,0.0,0.0,0.0,0.0,0.0,0.0,0.0,0.0,0.0,0.0,0.0,0.0,-4.2882,-4.2882,-4.2882,-4.2882,-4.2882,-4.3136,-4.3643,-4.4458,-4.5254,-4.6015,-4.6015,-4.6486,-4.7228,-4.7228,-4.7428,-4.7717,-4.7717,-4.7717,-4.7717,-4.7717,-4.7717,-4.7717,0.0,0.0,0.0,0.0,0.0,0.0,0.0,0.0,0.0,0.0,-0.9095,-0.9199,0.0,0.0,0.0,0.0,0.0,0.0,0.0,-1.0874,-1.1753,-1.188,-1.3437,-1.4637,-1.5361,-1.5397,-1.5411,-1.5411,-1.6914,-1.7726,-1.7832,-1.8614,-1.9396,-2.012,-2.0156,-1.9632,-1.8591,-1.7113,-1.645,-1.6366,-1.5749,-1.547,-1.5424,-1.5474,0.0,0.0,0.0,0.0,0.0,0.0,0.0,0.0,-1.5175,-1.5464,-1.5969,-1.8308,-1.9613,-2.0805,-2.3069,0.0,0.0,-3.0206,-3.2379,0.0,0.0,0.0,0.0,0.0,0.0,0.0,0.0,0.0,0.0,0.0,0.0,0.0,0.0,0.0,0.0,0.0,0.0,0.0,0.0,0.0,0.0,0.0,0.0,0.0,0.0,0.0,0.0,0.0,0.0,0.0,-4.2882,-4.2882,-4.2882,0.0,-4.2882,-4.2882,-4.29,-4.3661,-4.4421,-4.5182,-4.5273,-4.5707,-4.6413,-4.6468,-4.6939,-4.7609,-4.7681,-4.7717,-4.7717,-4.7717,-4.7717,-4.7717,0.0,0.0,0.0,0.0,0.0,0.0,0.0,0.0,0.0,0.0,0.0,0.0,0.0,0.0,0.0,0.0,0.0,0.0,0.0,-0.9816,-1.0584,-1.1843,-1.3437,-1.4384,-1.4547,-1.4565,-1.4598,-1.4727,-1.5578,-1.6391,-1.7119,-1.7827,-1.8642,-1.9486,-1.9339,-1.8478,-1.7037,-1.6131,-1.5724,-1.5705,-1.5626,-1.5579,-1.5554,-1.5465,-1.4954,0.0,0.0,0.0,0.0,0.0,0.0,0.0,-1.5239,-1.5879,-1.6586,-1.7804,-1.9577,-2.1401,-2.2616,-2.499,0.0,0.0,0.0,0.0,0.0,0.0,0.0,0.0,0.0,0.0,0.0,0.0,0.0,0.0,0.0,0.0,0.0,0.0,0.0,0.0,0.0,0.0,0.0,0.0,0.0,0.0,0.0,0.0,0.0,0.0,0.0,0.0,0.0,-4.2882,-4.2882,-4.2882,-4.2882,0.0,-4.2882,-4.2882,-4.29,-4.3063,-4.3588,-4.4385,-4.5037,-4.5399,-4.5617,-4.625,-4.6613,-4.683,-4.7464,-4.7717,-4.7717,-4.7717,-4.7717,-4.7717,0.0,0.0,0.0,0.0,0.0,0.0,0.0,0.0,0.0,0.0,0.0,0.0,0.0,0.0,0.0,0.0,0.0,0.0,0.0,-0.9861,-1.0783,-1.2405,-1.3654,-1.4293,-1.4293,-1.4356,-1.4429,-1.4488,-1.4879,-1.5723,-1.7027,-1.8474,-1.9413,-1.9861,-1.97,-1.8761,-1.7242,-1.6051,-1.5579,-1.5605,-1.5698,-1.5692,-1.5592,-1.5567,-1.5023,-1.4288,-1.4221,0.0,0.0,0.0,0.0,0.0,0.0,0.0,-1.5821,-1.7439,-1.9034,-2.0734,-2.2689,0.0,0.0,0.0,0.0,0.0,0.0,0.0,0.0,0.0,0.0,0.0,0.0,0.0,0.0,0.0,0.0,0.0,0.0,0.0,0.0,0.0,0.0,0.0,0.0,0.0,0.0,0.0,0.0,0.0,0.0,0.0,0.0,0.0,-4.2882,-4.2882,-4.2882,-4.2882,-4.2882,-4.2882,-4.2882,-4.2882,-4.2882,-4.2882,-4.3118,-4.3534,-4.3969,-4.4367,-4.4747,-4.5182,-4.5798,-4.654,-4.6975,-4.7373,-4.7717,-4.7717,-4.7717,-4.7717,0.0,0.0,0.0,0.0,0.0,0.0,0.0,0.0,0.0,0.0,0.0,0.0,0.0,0.0,0.0,0.0,0.0,0.0,0.0,-1.025,-1.1282,-1.2622,-1.3455,-1.389,-1.389,-1.4009,-1.415,-1.4301,-1.4532,-1.558,-1.7416,-1.9236,-2.0244,-2.0551,-2.0242,-1.9263,-1.7778,-1.625,-1.5575,-1.5527,-1.5637,-1.5591,-1.5435,-1.5447,-1.4983,-1.4313,-1.4237,-1.4242,-1.4304,-1.4304,0.0,0.0,0.0,0.0,-1.4891,-1.6896,-1.8145,-1.9485,-2.2238,0.0,-2.9709,0.0,0.0,0.0,0.0,0.0,0.0,0.0,0.0,0.0,0.0,0.0,0.0,0.0,0.0,0.0,0.0,0.0,0.0,0.0,0.0,0.0,0.0,0.0,0.0,0.0,0.0,0.0,0.0,0.0,-4.2882,-4.2882,-4.2882,-4.2882,-4.2882,-4.2882,-4.2882,-4.2882,-4.2882,-4.2882,-4.2882,-4.2882,-4.2882,-4.2882,-4.2882,-4.3262,-4.3896,-4.4041,-4.4965,-4.6305,-4.645,-4.6993,-4.7717,-4.7717,-4.7717,-4.7717,0.0,0.0,0.0,0.0,0.0,0.0,0.0,0.0,0.0,0.0,-0.9366,-0.9394,-0.9483,-0.95,0.0,0.0,0.0,0.0,-0.95,0.0,0.0,-1.102,-1.1789,-1.2224,-1.2224,-1.229,-1.273,-1.355,-1.4364,-1.6054,-1.8491,-1.8448,-1.9258,-2.0719,-1.9707,-1.8408,-1.6913,-1.6044,-1.5312,-1.4759,-1.4759,-1.4766,-1.4722,-1.4545,-1.4453,-1.4375,-1.4312,-1.4286,-1.4293,-1.4293,-1.4764,0.0,0.0,0.0,0.0,0.0,-1.6878,-1.8306,0.0,0.0,0.0,0.0,0.0,0.0,0.0,0.0,0.0,0.0,0.0,0.0,0.0,0.0,0.0,0.0,0.0,0.0,0.0,0.0,0.0,0.0,0.0,0.0,0.0,0.0,0.0,0.0,0.0,0.0,0.0,-4.2882,-4.2882,-4.2882,-4.2882,-4.2882,-4.2882,-4.2882,-4.2882,-4.2882,-4.2882,-4.2882,-4.2882,-4.2882,-4.2882,-4.2882,-4.2882,-4.2955,-4.3099,-4.3806,-4.4639,-4.5526,-4.6232,-4.6993,-4.7717,-4.7717,-4.7717,-4.7717,0.0,0.0,0.0,0.0,0.0,0.0,0.0,0.0,0.0,0.0,0.0,-0.943,-0.9491,-0.95,0.0,0.0,0.0,0.0,-0.95,-1.025,0.0,-1.0694,-1.1463,-1.1898,-1.1898,-1.2049,-1.2539,-1.3412,-1.347,-1.5543,-1.9414,-1.8557,-1.9579,-2.207,-2.0556,-1.9282,-1.8143,-1.6516,-1.5355,-1.4658,-1.4616,-1.5102,-1.574,-1.477,-1.4939,-1.5574,-1.4632,-1.4312,-1.4293,-1.4293,-1.4836,0.0,0.0,0.0,0.0,0.0,0.0,0.0,-2.1459,0.0,0.0,0.0,0.0,0.0,0.0,0.0,0.0,0.0,0.0,0.0,0.0,0.0,0.0,0.0,0.0,0.0,0.0,0.0,0.0,0.0,0.0,0.0,0.0,0.0,0.0,0.0,0.0,0.0,0.0,-4.2882,-4.2882,-4.2882,-4.2882,-4.2882,-4.2882,-4.2882,-4.2882,-4.2882,-4.2882,-4.2882,-4.2882,-4.2882,-4.2882,-4.2882,-4.2882,-4.2882,-4.2918,-4.3262,-4.3896,-4.4711,-4.5508,-4.6323,-4.7083,-4.7536,-4.7717,-4.7717,0.0,0.0,0.0,0.0,0.0,0.0,0.0,0.0,0.0,0.0,0.0,0.0,-0.95,0.0,0.0,0.0,0.0,0.0,-0.95,0.0,0.0,0.0,-1.0974,-1.131,-1.1339,-1.1506,-1.199,-1.2833,-1.2595,-1.4936,-1.9586,-1.8862,-2.0289,-2.3425,-2.1834,-2.0365,-1.8984,-1.7225,-1.6001,-1.525,-1.5173,-1.579,-1.6729,-1.6187,-1.6529,-1.7146,-1.5954,-1.5393,0.0,0.0,0.0,0.0,0.0,0.0,0.0,0.0,0.0,0.0,0.0,0.0,0.0,0.0,0.0,0.0,0.0,0.0,0.0,0.0,0.0,0.0,0.0,0.0,0.0,0.0,0.0,0.0,0.0,0.0,0.0,0.0,0.0,0.0,0.0,0.0,0.0,0.0,0.0,0.0,-4.2882,-4.2882,-4.2882,-4.2882,-4.2882,-4.2882,-4.2882,-4.2882,-4.2882,-4.2882,-4.2882,-4.2882,-4.2882,-4.2882,-4.2882,-4.2882,-4.2882,-4.2882,-4.2882,-4.2882,-4.3371,-4.4168,-4.4983,-4.5798,-4.6613,-4.7409,-4.7717,-4.7717,0.0,0.0,0.0,0.0,0.0,0.0,0.0,0.0,0.0,0.0,0.0,0.0,-0.95,-0.95,-0.95,-0.95,-0.95,0.0,0.0,0.0,0.0,0.0,0.0,0.0,-0.9819,-0.9895,-1.0352,-1.1222,-1.2083,-1.4545,-1.8502,-1.9068,-2.1137,-2.4296,-2.3234,-2.1083,-1.8241,-1.8139,-1.7569,-1.6762,-1.6638,-1.6635,-1.6947,-1.9158,-1.9558,-1.896,-1.887,0.0,0.0,0.0,0.0,0.0,0.0,0.0,0.0,0.0,0.0,0.0,0.0,0.0,0.0,0.0,0.0,0.0,0.0,0.0,0.0,0.0,0.0,0.0,0.0,0.0,0.0,0.0,0.0,0.0,0.0,0.0,0.0,0.0,0.0,0.0,0.0,0.0,0.0,0.0,0.0,0.0,-4.2882,-4.2882,-4.2882,-4.2882,-4.2882,-4.2882,-4.2882,-4.2882,-4.2882,-4.2882,-4.2882,-4.2882,-4.2882,-4.2882,-4.2882,-4.2882,-4.2882,-4.2882,-4.2882,-4.2882,-4.3371,-4.4168,-4.4983,-4.5798,-4.6613,-4.7409,-4.7717,-4.7717,0.0,0.0,0.0,0.0,0.0,0.0,0.0,0.0,0.0,0.0,0.0,0.0,0.0,-0.95,-0.95,-0.95,-0.95,0.0,0.0,0.0,0.0,0.0,0.0,0.0,-0.9765,-0.9823,-1.0276,-1.1098,-1.0967,-1.2961,-1.6932,-1.7074,-1.8416,-2.0736,-2.1779,-2.1623,-2.0485,-1.8911,-1.8083,-1.7784,-1.7545,-1.8133,-1.9178,-1.9427,-2.0318,-2.1278,0.0,0.0,0.0,0.0,0.0,0.0,-1.6678,-1.6262,-1.6008,-1.4686,-1.503,-1.6276,0.0,0.0,0.0,0.0,0.0,0.0,0.0,0.0,0.0,0.0,0.0,0.0,0.0,0.0,0.0,0.0,0.0,0.0,0.0,0.0,0.0,0.0,0.0,0.0,0.0,0.0,0.0,0.0,0.0,0.0,-4.2882,-4.2882,-4.2882,-4.2882,-4.2882,-4.2882,-4.2882,-4.2882,-4.2882,-4.2882,-4.2882,-4.2882,-4.2882,-4.2882,-4.2882,-4.2882,-4.2882,-4.2882,-4.2882,-4.2882,-4.3063,-4.3407,-4.4222,-4.5019,-4.5834,-4.6631,-4.7265,-4.7717,0.0,0.0,0.0,0.0,0.0,0.0,0.0,0.0,-0.9466,-0.9527,0.0,0.0,0.0,0.0,-0.9932,-0.9941,-0.9679,-0.9525,-0.9535,-0.9535,0.0,0.0,0.0,0.0,-0.9801,-0.9863,-1.0182,-1.0728,-1.0519,-1.2041,-1.5176,-1.5671,-1.6821,-1.854,-1.9755,-2.0593,-2.1004,-1.9911,-1.9261,-1.8971,-1.9061,-1.979,-2.0877,-2.1334,-2.2147,0.0,0.0,0.0,0.0,0.0,0.0,0.0,-1.7708,-1.6548,-1.5682,-1.4614,-1.5248,-1.6407,-1.695,0.0,0.0,0.0,0.0,0.0,0.0,0.0,0.0,0.0,0.0,0.0,0.0,0.0,0.0,0.0,0.0,0.0,0.0,0.0,0.0,0.0,0.0,0.0,0.0,0.0,0.0,0.0,0.0,0.0,-4.2882,-4.2882,-4.2882,-4.2882,-4.2882,-4.2882,-4.2882,-4.2882,-4.2882,-4.2882,-4.2882,-4.2882,-4.2882,-4.2882,-4.2882,-4.2882,-4.2882,-4.2882,-4.2882,-4.2882,-4.2882,-4.2973,-4.3788,-4.4421,-4.5037,-4.6106,-4.6848,-4.7355,0.0,0.0,0.0,0.0,0.0,0.0,0.0,0.0,-0.9535,-0.9623,0.0,0.0,0.0,0.0,0.0,-1.0804,-1.0083,-0.963,-0.9613,-0.9605,0.0,0.0,0.0,0.0,-0.9801,-0.9863,-0.9931,-1.0001,-1.0777,-1.1866,-1.3278,-1.4985,-1.6646,-1.8124,-1.7424,-1.7955,-1.9485,-2.0912,-2.1058,-2.0409,0.0,-2.1514,-2.1912,0.0,0.0,0.0,-2.5679,-2.5244,0.0,0.0,0.0,0.0,0.0,-1.6316,-1.4402,-1.4366,-1.4963,-1.5596,0.0,0.0,0.0,0.0,0.0,0.0,0.0,0.0,0.0,0.0,0.0,0.0,0.0,0.0,0.0,0.0,0.0,0.0,0.0,0.0,0.0,0.0,0.0,0.0,0.0,0.0,0.0,0.0,0.0,-4.2828,-4.2846,-4.2882,-4.2882,-4.2882,-4.2882,-4.2882,-4.2882,-4.2882,-4.2882,-4.2882,-4.2882,-4.2882,-4.2882,-4.2882,-4.2882,-4.2882,-4.2882,-4.2882,-4.2882,-4.2882,-4.2882,-4.2973,-4.3751,-4.4077,-4.4277,-4.5852,-4.6468,-4.6613,0.0,0.0,0.0,0.0,0.0,-0.9578,-0.9605,-0.9578,-0.9796,0.0,0.0,0.0,-1.1558,-1.165,-1.1433,-1.0849,-1.0603,-1.0211,-0.963,-0.9593,-0.9607,-0.9651,-0.9677,-0.9739,-0.9803,-0.9869,-0.9913,-0.9931,-1.0157,-1.0758,-1.1725,-1.2847,-1.3923,-1.4962,-1.6383,-1.6941,-1.6861,-1.7312,0.0,-2.1278,-2.086,-2.1771,0.0,0.0,0.0,0.0,0.0,-2.7164,-2.7164,0.0,-2.519,-2.3415,0.0,-1.791,-1.6787,-1.6222,-1.7022,-1.7855,-1.6678,0.0,0.0,0.0,0.0,0.0,0.0,0.0,0.0,0.0,0.0,0.0,0.0,0.0,0.0,0.0,0.0,0.0,0.0,0.0,0.0,0.0,0.0,0.0,0.0,0.0,0.0,0.0,-4.1162,-4.1433,-4.2013,-4.2574,-4.2882,-4.2882,-4.2882,-4.2882,-4.2882,-4.2882,-4.2882,-4.2882,-4.2882,-4.2882,-4.2882,-4.2882,-4.2882,-4.2882,-4.2882,-4.2882,-4.2882,-4.2882,-4.2882,-4.29,-4.3136,-4.3588,-4.415,-4.4603,-4.5548,-4.668,0.0,0.0,0.0,-0.9987,-1.0068,-1.0213,-1.0585,-1.0631,-1.0785,0.0,0.0,0.0,-1.2446,-1.3132,-1.307,-1.1938,-1.1233,-1.062,-1.0137,-0.9782,-0.9623,-0.9651,-0.9684,-0.988,-1.0243,-0.9991,-1.0038,-1.0395,-1.0069,-1.0138,-1.0613,-1.1488,-1.2113,-1.2576,-1.3904,-1.4802,-1.5266,-1.4587,0.0,0.0,-2.199,0.0,0.0,-2.5592,-2.6385,0.0,0.0,0.0,-2.8569,-2.8449,-2.6656,0.0,0.0,-1.9594,-1.8324,-1.7853,-1.8598,-1.9322,-1.8052,-1.896,-2.0355,0.0,0.0,0.0,0.0,0.0,0.0,0.0,0.0,0.0,0.0,0.0,0.0,0.0,0.0,0.0,0.0,0.0,0.0,0.0,0.0,0.0,0.0,0.0,0.0,0.0,-4.051,-4.0709,-4.118,-4.1651,-4.2049,-4.2393,-4.2393,-4.2556,-4.2882,-4.2882,-4.2882,-4.2882,-4.2882,-4.2882,-4.2882,-4.2882,-4.2882,-4.2882,-4.2882,-4.2882,-4.2882,-4.2882,-4.2882,-4.2882,-4.2882,-4.3172,-4.3625,-4.3969,-4.479,-4.5739,0.0,0.0,-0.9967,-1.0685,-1.0867,-1.1231,-1.2093,-1.2099,-1.2115,0.0,-1.2613,-1.3015,-1.3871,-1.5081,-1.5258,-1.3831,-1.215,-1.1095,-1.0958,-1.0198,-0.9706,-0.9617,-0.9746,-1.0126,-1.0744,-1.0217,-1.0264,-1.0981,-1.0251,-0.9913,-0.9931,-1.069,-1.0973,-1.0878,-1.0964,-1.2241,-1.4264,-1.3202,0.0,-2.0427,-2.3327,-2.4759,0.0,0.0,-2.7019,0.0,-2.8993,-2.9391,-2.8993,-2.9681,-2.7489,0.0,0.0,-2.155,-1.9811,-1.9467,-1.9992,-2.0499,-1.9612,-2.001,-2.0988,-2.2256,0.0,0.0,0.0,-2.3687,0.0,0.0,0.0,0.0,0.0,0.0,0.0,0.0,0.0,0.0,0.0,0.0,0.0,0.0,0.0,0.0,0.0,0.0,0.0,-4.0256,-4.0347,-4.0383,-4.0383,-4.0474,-4.0854,-4.1523,-4.1578,-4.1959,-4.2755,-4.2755,-4.281,-4.2882,-4.2882,-4.2882,-4.2882,-4.2882,-4.2882,-4.2882,-4.2882,-4.2882,-4.2882,-4.2882,-4.2882,-4.2882,-4.2882,-4.2882,-4.2973,-4.3697,-4.4118,-4.4376,0.0,-1.0121,-1.0621,-1.0767,-1.1342,-1.2063,-1.2926,-1.2456,-1.272,-1.4721,-1.6112,-1.7225,-1.8041,-1.7238,-1.6542,-1.6211,-1.4132,-1.2564,-1.1893,-1.1095,-1.0361,-0.9701,-1.0251,-1.0386,-0.9935,-1.0484,-1.0567,-1.0126,-0.9981,-0.9923,-0.999,-1.0044,-1.0093,-1.0144,-1.0733,-1.163,-1.2845,0.0,0.0,-1.9527,-2.0787,0.0,-2.6077,-2.7037,-2.7682,-2.8286,-2.9391,-3.0115,-3.055,0.0,-2.9789,-2.8141,0.0,0.0,-2.432,-2.1785,-2.2021,-2.2799,-2.1405,-2.2057,-2.289,-2.1966,0.0,0.0,0.0,-2.2944,0.0,0.0,0.0,0.0,0.0,0.0,0.0,0.0,0.0,0.0,0.0,0.0,0.0,0.0,0.0,0.0,0.0,0.0,-3.8645,-3.8645,-3.9242,-3.9604,-3.9604,-4.0184,-4.0582,-4.0745,-4.0745,-4.1126,-4.194,-4.194,-4.2266,-4.2882,-4.2882,-4.2882,-4.2882,-4.2882,-4.2882,-4.2882,-4.2882,-4.2882,-4.2882,-4.2882,-4.2882,-4.2882,-4.2882,-4.2882,-4.29,-4.3063,-4.3629,-4.4304,-0.9676,-1.0558,-1.1414,-1.1443,-1.2081,-1.3041,-1.4304,-1.4135,-1.4581,-1.6633,-1.8687,-1.9457,-1.8243,-1.8449,-1.8045,-1.6445,-1.4829,-1.3563,-1.2747,-1.1581,-1.071,-1.0315,-1.0276,-1.0473,-1.0928,-1.0592,-1.063,-1.1098,-1.0282,-0.9918,-0.9942,-0.9882,-1.0461,-1.1531,-1.1082,-1.2253,-1.4611,0.0,-1.7563,-2.0016,-2.2354,0.0,-2.6331,-2.7544,-2.8243,-2.875,-2.997,-3.1166,-3.1999,-3.0803,-3.0115,0.0,0.0,-2.6475,-2.6421,0.0,-2.4393,-2.4646,-2.3071,-2.3506,-2.4212,-2.3433,0.0,0.0,0.0,0.0,0.0,0.0,0.0,0.0,0.0,0.0,0.0,0.0,0.0,0.0,0.0,0.0,0.0,0.0,0.0,0.0,0.0,0.0,-3.716,-3.7558,-3.7975,-3.8373,-3.8771,-3.9152,-3.955,-3.9948,-3.9948,-4.0329,-4.1107,-4.1487,-4.1922,-4.2321,-4.2701,-4.2882,-4.2882,-4.2882,-4.2882,-4.2882,-4.2882,-4.2882,-4.2882,-4.2882,-4.2882,-4.2882,-4.2882,-4.2882,-4.2882,-4.2882,-4.3248,-4.3686,-0.9755,-1.0913,-1.2034,-1.2102,-1.2978,-1.4191,-1.5698,-1.5936,-1.6565,-1.832,-2.0446,-2.0904,-1.8559,-1.9769,-1.9767,-1.7326,-1.5931,-1.4848,-1.4051,-1.2499,-1.1517,-1.137,-1.0734,-1.0967,-1.2168,-1.0919,-1.0766,-1.1821,-1.0527,-0.9882,-0.9882,-1.0012,-1.1121,-1.2931,-1.1928,-1.3505,-1.6821,0.0,0.0,-2.1168,0.0,-2.5968,-2.6149,-2.7779,-2.846,-2.8822,-3.0604,-3.2162,-3.3085,-3.0966,0.0,-2.9934,-2.8196,-2.7852,0.0,0.0,0.0,0.0,0.0,0.0,0.0,0.0,0.0,-2.4882,0.0,0.0,0.0,-2.4393,0.0,0.0,0.0,0.0,0.0,0.0,0.0,0.0,0.0,0.0,0.0,0.0,0.0,0.0,0.0,0.0,-3.5747,-3.6689,-3.6472,-3.6779,-3.7902,-3.7957,-3.8337,-3.9134,-3.917,-3.9532,-4.0293,-4.0944,-4.1415,-4.1723,-4.2357,-4.2793,-4.2882,-4.2938,-4.2938,-4.2882,-4.2882,-4.2882,-4.2882,-4.2882,-4.2882,-4.2882,-4.2882,-4.2882,-4.2882,-4.2882,-4.2956,-4.3049,-0.9761,-1.094,-1.2084,-1.2104,-1.3945,-1.5722,-1.6633,-1.6766,-1.7595,-1.9916,-2.1143,-2.2189,-2.3254,-2.2336,-2.1785,-2.2152,-1.9418,0.0,-1.6542,0.0,-1.3765,-1.306,-1.2941,-1.2676,-1.2206,-1.2021,-1.1312,-1.0074,-0.9906,-0.9818,-0.9815,-1.0418,-1.1205,-1.2192,-1.3446,-1.5068,0.0,0.0,-2.0149,0.0,-2.4439,-2.5135,0.0,-2.6928,-2.7997,-2.8895,-3.1238,-3.2632,-3.3248,0.0,-3.1926,-3.151,0.0,-2.9445,0.0,0.0,0.0,0.0,0.0,0.0,0.0,0.0,-2.7073,0.0,0.0,0.0,-2.5262,-2.3361,0.0,0.0,0.0,0.0,0.0,0.0,0.0,0.0,0.0,0.0,0.0,0.0,0.0,0.0,0.0,0.0,0.0,-3.5838,-3.4606,-3.4769,-3.7029,-3.7123,-3.7486,-3.8301,-3.8337,-3.8717,-3.9514,-3.9623,-4.0347,-4.1723,-4.1905,-4.2304,-4.2882,-4.3012,-4.2994,-4.2882,-4.2882,-4.2882,-4.2882,-4.2882,-4.2882,-4.2882,-4.2882,-4.2882,-4.2882,-4.2882,-4.29,-4.2938,-0.9712,-1.1315,-1.2467,-1.1572,-1.3395,-1.5282,-1.6083,-1.821,-1.9934,-2.0429,-2.2079,-2.3272,-2.3492,0.0,0.0,0.0,0.0,-1.8944,0.0,0.0,-1.5533,-1.4731,-1.3837,-1.3436,-1.3585,-1.2268,-1.1445,-1.1192,-1.0266,-0.9784,-0.9762,-1.0553,-1.2021,-1.4065,-1.4812,0.0,-1.957,0.0,0.0,0.0,0.0,0.0,0.0,-2.7145,-2.8902,-3.0188,-3.1673,-3.2723,-3.3212,0.0,-3.1492,0.0,0.0,0.0,0.0,0.0,0.0,0.0,0.0,0.0,0.0,0.0,0.0,0.0,0.0,0.0,-2.4664,0.0,0.0,0.0,0.0,0.0,0.0,0.0,0.0,0.0,0.0,0.0,0.0,0.0,0.0,0.0,0.0,0.0,0.0,0.0,0.0,-3.3556,-3.5494,-3.6472,-3.7174,-3.7486,-3.7938,-3.8355,-3.8699,-3.917,-3.9948,-4.1017,-4.1633,-4.2268,-4.3012,-4.3105,-4.3142,-4.3087,-4.3087,-4.3087,-4.3087,-4.3087,-4.3087,-4.3087,-4.3087,-4.3068,-4.3012,-4.3012,-4.3031,-4.3087,-1.0021,-1.158,-1.2548,-1.1416,-1.323,-1.5246,-1.65,-1.9381,-2.1382,-2.12,-2.2758,0.0,-2.3676,-2.3657,0.0,0.0,-2.2134,-2.0923,0.0,0.0,-1.7399,-1.7032,-1.5299,0.0,0.0,-1.3133,-1.2099,-1.2201,-1.1027,-1.0435,-1.0428,-1.1299,-1.2974,-1.5311,-1.6277,-1.8486,-2.1515,0.0,0.0,-2.3198,-2.4103,-2.4846,-2.5697,-2.8051,-2.9789,-3.1129,-3.2162,-3.2904,-3.3194,-3.1799,-3.1329,0.0,-3.1057,0.0,0.0,0.0,0.0,0.0,-2.7616,0.0,0.0,0.0,0.0,0.0,0.0,0.0,0.0,0.0,0.0,0.0,0.0,0.0,0.0,0.0,0.0,0.0,0.0,0.0,0.0,0.0,0.0,0.0,0.0,0.0,0.0,0.0,0.0,0.0,-3.3828,-3.5457,-3.6558,-3.7025,-3.779,-3.8225,-3.8225,-3.8805,-3.9476,-4.022,-4.1143,-4.1978,-4.274,-4.3032,-4.3178,-4.3178,-4.3214,-4.3214,-4.3214,-4.3214,-4.3214,-4.3214,-4.3214,-4.3178,-4.3178,-4.3123,-4.316,-4.3214,-1.0857,-1.1562,-1.2121,-1.2076,-1.4059,-1.6463,-1.8812,-1.9968,-2.1108,-2.2703,0.0,0.0,0.0,0.0,0.0,0.0,0.0,-2.3731,-2.2905,0.0,-1.9565,0.0,0.0,-1.6798,0.0,0.0,-1.3661,-1.2195,-1.2158,-1.2153,-1.2222,-1.3042,-1.3887,-1.4854,-1.7859,-2.0069,-2.1698,-2.3095,-2.5045,-2.7164,-2.6421,-2.7526,-2.9608,0.0,-3.026,-3.1202,-3.2795,0.0,0.0,-3.2433,-3.2162,0.0,0.0,0.0,0.0,0.0,0.0,0.0,0.0,0.0,0.0,-2.7001,0.0,0.0,0.0,0.0,-2.5697,0.0,0.0,0.0,0.0,0.0,-2.5842,-2.5081,-2.4972,0.0,0.0,0.0,0.0,0.0,0.0,0.0,0.0,0.0,0.0,0.0,0.0,0.0,-3.2107,-3.381,-3.5416,-3.7053,-3.7889,-3.8307,-3.8307,-3.8325,-3.8728,-3.9441,-4.0326,-4.1106,-4.1796,-4.2741,-4.3142,-4.3104,-4.3178,-4.3214,-4.3214,-4.3214,-4.3214,-4.3214,-4.3214,-4.3305,-4.3376,-4.3251,-4.3214,-4.3214,0.0,-1.2333,-1.2737,0.0,0.0,-1.5729,-1.8133,-2.0592,-2.2556,0.0,0.0,0.0,0.0,0.0,-2.6521,0.0,0.0,-2.5456,-2.463,-2.329,0.0,0.0,0.0,-1.9292,0.0,0.0,-1.5808,-1.5239,-1.3731,-1.3225,-1.3692,-1.3551,-1.4425,-1.6182,-1.8339,-2.0126,0.0,0.0,0.0,0.0,0.0,-2.7652,-2.987,0.0,0.0,-3.1926,-3.3013,-3.3393,0.0,-3.3085,-3.2632,-3.2252,-3.2506,-3.2035,-3.1455,-3.1709,-3.16,0.0,0.0,0.0,-3.1148,-2.8467,0.0,0.0,0.0,0.0,0.0,0.0,0.0,0.0,0.0,-2.566,-2.595,-2.5135,-2.5009,-2.4357,0.0,0.0,0.0,0.0,0.0,0.0,0.0,0.0,0.0,0.0,0.0,0.0,0.0,-3.2361,-3.4298,-3.5398,-3.6753,-3.7715,-3.8289,-3.8307,-3.8689,-3.9522,-3.9914,-4.0787,-4.2047,-4.2391,-4.2812,-4.3287,-4.3305,-4.334,-4.334,-4.3393,-4.3393,-4.3393,-4.3393,-4.3428,-4.3481,-4.3376,-4.3358,-4.3428,-1.2957,0.0,0.0,0.0,0.0,0.0,0.0,0.0,0.0,0.0,-2.5328,0.0,-2.7658,0.0,-2.7346,0.0,-2.7493,-2.6686,-2.5878,-2.5071,0.0,-2.3878,-2.2538,0.0,0.0,-1.9586,-1.8207,-1.7326,-1.5857,-1.5225,-1.5383,-1.4698,-1.5301,-1.7012,-1.8588,-2.0158,-2.1771,0.0,-2.5321,0.0,0.0,-2.8576,0.0,0.0,-3.1745,-3.2306,0.0,-3.3393,-3.3393,-3.3393,-3.3067,-3.2723,-3.3248,-3.2687,-3.1962,-3.2469,-3.2252,-3.1781,-3.1492,-3.1999,0.0,-2.9989,-2.9681,0.0,-2.6475,0.0,0.0,0.0,0.0,0.0,0.0,0.0,-2.6481,-2.5932,-2.5371,-2.4176,0.0,0.0,0.0,0.0,0.0,0.0,0.0,0.0,-2.3976,-2.452,0.0,0.0,0.0,0.0,-3.3524,-3.4661,-3.624,-3.7457,-3.8289,-3.8322,-3.8609,-3.9152,-3.9528,-4.0401,-4.1697,-4.2043,-4.2644,-4.3394,-4.3411,-4.3446,-4.3446,-4.3497,-4.3497,-4.3497,-4.3497,-4.3497,-4.3479,-4.3446,-4.3463,-4.3497,0.0,0.0,0.0,0.0,-1.6133,0.0,0.0,0.0,-2.4502,0.0,-2.6153,-2.6979,-2.7824,-2.7915,-2.8246,-2.903,-2.8429,0.0,-2.6888,-2.6043,0.0,0.0,-2.4759,-2.3969,-2.318,-2.2299,0.0,-1.8596,-1.8392,-1.7956,-1.7281,-1.6461,-1.6477,-1.7317,-1.8712,0.0,-2.1986,-2.4932,-2.6734,-2.7761,-2.9199,-3.0323,-3.1129,-3.1908,0.0,-3.2361,-3.314,-3.3393,-3.3393,-3.3393,-3.3393,-3.3393,-3.3393,-3.3393,-3.3393,-3.3393,-3.3393,-3.323,-3.2469,-3.285,-3.3085,-3.151,0.0,0.0,0.0,0.0,-2.9282,0.0,0.0,0.0,0.0,0.0,-2.7489,-2.7308,-2.5932,-2.4103,-2.1876,0.0,0.0,0.0,0.0,0.0,0.0,0.0,-2.2147,-2.3578,-2.3795,0.0,0.0,0.0,0.0,-3.4615,-3.6286,-3.7512,-3.8234,-3.835,-3.8368,-3.834,-3.9152,-3.9969,-4.0789,-4.1714,-4.2571,-4.3339,-4.3444,-4.3497,-4.3497,-4.3497,-4.3497,-4.3497,-4.3497,-4.3497,-4.3497,-4.3497,-4.3497,-4.3497,-1.5509,-1.6518,-1.7546,0.0,-1.8427,-1.9546,0.0,0.0,0.0,0.0,-2.6998,-2.8026,-2.942,-2.9586,-2.9916,-3.0705,-3.0595,0.0,0.0,0.0,0.0,-2.8081,-2.6741,-2.5897,-2.5695,-2.3731,0.0,-2.2701,-1.9738,-1.8471,-1.873,-1.7417,-1.7182,-1.7928,0.0,0.0,-2.1916,-2.4975,-2.7458,-2.9305,-2.9704,-3.0694,0.0,0.0,-3.256,-3.3121,-3.3339,-3.3393,-3.3393,-3.3393,-3.3393,-3.3393,-3.3393,-3.3422,-3.3452,-3.3393,-3.3422,-3.3426,-3.3169,-3.3683,-3.4063,-3.3049,-3.294,-3.2723,0.0,0.0,0.0,0.0,0.0,0.0,0.0,0.0,0.0,-2.5914,-2.432,-2.3089,0.0,0.0,0.0,0.0,0.0,0.0,0.0,0.0,-2.231,-2.2111,0.0,0.0,0.0,0.0,0.0,-3.2958,-3.5173,-3.6717,-3.7539,-3.8123,-3.8465,-3.8614,-3.8697,-3.926,-4.0166,-4.0921,-4.1711,-4.2534,-4.3155,-4.3411,-4.3411,-4.3463,-4.3497,-4.3497,-4.3497,-4.3497,-4.3497,-4.3497,-4.3497,-4.3497,-1.7289,0.0,0.0,-2.0849,0.0,0.0,-2.2703,0.0,0.0,-2.6447,-2.7622,0.0,-2.9586,-3.0301,-3.0907,-3.1347,-3.1384,0.0,0.0,0.0,0.0,-2.9012,-2.8484,-2.7842,-2.7145,-2.5456,0.0,-2.3676,0.0,-1.9092,-1.8739,-1.7559,-1.7209,-1.766,0.0,-2.0729,0.0,-2.4892,-2.7565,-2.9482,-3.0173,0.0,0.0,-3.2635,-3.3024,-3.3393,-3.3393,-3.3393,-3.3393,-3.3393,-3.3422,-3.3452,-3.3452,-3.3509,-3.352,-3.3509,-3.3775,-3.4076,-3.4018,-3.4872,-3.5623,-3.5151,-3.5345,-3.52,-3.3673,-3.3691,-3.3644,0.0,0.0,0.0,0.0,0.0,0.0,-2.4907,-2.3508,0.0,0.0,0.0,0.0,0.0,0.0,0.0,0.0,0.0,0.0,0.0,0.0,0.0,0.0,0.0,0.0,-3.181,-3.4254,-3.609,-3.7241,-3.8045,-3.8496,-3.8609,-3.8609,-3.9061,-3.9918,-4.0643,-4.1467,-4.231,-4.3098,-4.3446,-4.3446,-4.3497,-4.3497,-4.3497,-4.3497,-4.3497,-4.3497,-4.3497,-4.3497,-4.3497,0.0,0.0,0.0,0.0,0.0,0.0,0.0,-2.5254,0.0,-2.6814,0.0,-2.9342,-2.9452,-3.0723,-3.1586,-3.1696,0.0,-3.1421,-3.0723,-3.1219,-3.0925,-2.9525,-3.0044,-2.9641,-2.8154,-2.7126,0.0,0.0,0.0,-1.9567,-1.8078,-1.7275,-1.6908,-1.7018,0.0,0.0,0.0,-2.5139,-2.762,0.0,-3.0761,-3.181,-3.2556,-3.3265,-3.3481,-3.3422,-3.3422,-3.3393,-3.3393,-3.3393,-3.3452,-3.3509,-3.3491,-3.3549,-3.3605,-3.3605,-3.4079,-3.4673,-3.4783,-3.5884,-3.707,-3.7179,-3.7799,-3.7799,-3.5641,-3.513,-3.4882,-3.4011,-3.2684,-3.2211,0.0,0.0,0.0,-2.4608,0.0,0.0,0.0,0.0,0.0,0.0,0.0,0.0,0.0,0.0,0.0,0.0,0.0,0.0,0.0,0.0,0.0,0.0,-3.3579,0.0,-3.7082,0.0,-3.851,-3.851,-3.8609,-3.9056,-3.9772,-4.0689,-4.1497,-4.2194,-4.3094,-4.3497,-4.3497,-4.3497,-4.3497,-4.3497,-4.3497,-4.3497,-4.3497,-4.3497,-4.3497,-4.3497,0.0,0.0,0.0,0.0,0.0,-2.641,-2.7071,-2.7291,-2.7658,-2.8462,-2.9989,0.0,-3.1916,-3.2228,-3.2669,-3.3311,-3.3385,0.0,0.0,0.0,0.0,-3.1964,-3.1476,-3.0742,-2.9806,-2.7695,-2.6062,0.0,-2.1308,-1.9032,-1.8078,-1.7275,-1.6908,-1.7018,0.0,0.0,-2.5541,-2.6976,0.0,-3.0929,-3.1897,-3.2703,-3.3377,-3.3522,-3.3577,-3.3549,-3.3549,-3.3491,-3.3393,-3.3452,-3.3509,-3.3491,-3.3577,-3.3633,-3.3671,-3.3633,-3.3752,-3.4036,-3.4619,-3.5483,-3.6358,-3.7033,-3.7799,-3.8109,-3.7033,-3.6778,-3.6559,-3.5745,-3.4816,-3.3897,-3.2958,0.0,0.0,0.0,0.0,0.0,0.0,0.0,0.0,0.0,0.0,0.0,0.0,0.0,0.0,0.0,0.0,0.0,0.0,0.0,0.0,0.0,0.0,0.0,0.0,0.0,-3.8559,-3.8658,-3.8559,-3.8682,-3.8964,-4.0432,-4.1185,-4.1405,-4.2855,-4.3497,-4.3497,-4.3497,-4.3497,-4.3497,-4.3497,-4.3497,-4.3497,-4.3497,-4.3497,-4.3497,0.0,0.0,0.0,0.0,0.0,0.0,0.0,-2.9751,0.0,-2.9696,-3.065,-3.1549,-3.1935,-3.2724,-3.3385,-3.377,-3.3807,-3.3807,-3.3807,-3.344,-3.3054,-3.2632,-3.2228,0.0,-3.0834,-2.887,-2.7255,-2.6025,-2.2373,-1.973,-1.8096,-1.7697,-1.7073,-1.6426,0.0,-2.2942,0.0,0.0,0.0,-3.0839,-3.2067,-3.2985,-3.3643,-3.3643,-3.3633,-3.3605,-3.3605,-3.3549,-3.3491,-3.3549,-3.3577,-3.3605,-3.3643,-3.3991,-3.4376,-3.4338,-3.4952,-3.575,-3.6087,-3.6802,-3.7485,-3.7888,-3.8272,-3.8327,-3.754,-3.7357,-3.7119,-3.6236,-3.5415,-3.4227,-3.2155,-3.0141,0.0,0.0,0.0,0.0,0.0,0.0,0.0,0.0,0.0,0.0,0.0,0.0,0.0,0.0,0.0,0.0,0.0,0.0,0.0,0.0,0.0,0.0,0.0,0.0,0.0,-3.8707,-3.864,-3.8658,-3.8762,-4.0377,-4.1111,-4.1203,-4.28,-4.3497,-4.3497,-4.3497,-4.3497,-4.3497,-4.3497,-4.3497,-4.3497,-4.3497,-4.3497,-4.3497,0.0,-2.641,0.0,0.0,-2.887,0.0,0.0,-3.1774,-3.2339,-3.0907,-3.1403,-3.1898,-3.1898,-3.3036,-3.3807,-3.3807,-3.3807,-3.3807,-3.3807,-3.3807,-3.3532,-3.2889,-3.2871,-3.2485,-3.1659,-3.0081,-2.8393,0.0,0.0,-2.0868,-1.861,-1.8445,-1.7968,0.0,0.0,0.0,0.0,0.0,-2.9824,-3.0852,-3.2284,-3.3185,-3.3726,-3.3726,-3.3698,-3.3643,-3.3643,-3.3752,-3.3917,-3.3917,-3.3927,-3.3954,-3.3982,-3.4577,-3.5265,-3.5265,-3.6211,-3.7276,-3.747,-3.7955,-3.8487,-3.867,-3.8707,-3.845,-3.7459,-3.7221,-3.6927,-3.5831,-3.5099,-3.3964,-3.1678,-3.0483,0.0,0.0,0.0,0.0,0.0,0.0,0.0,0.0,0.0,0.0,0.0,0.0,0.0,0.0,0.0,0.0,-2.1844,-2.3161,0.0,0.0,0.0,-3.3458,-3.5752,0.0,-3.8524,0.0,-3.8707,-3.8707,-3.8762,-4.0377,-4.1111,-4.1203,-4.28,-4.3497,-4.3497,-4.3497,-4.3497,-4.3497,-4.3497,-4.3497,-4.3497,-4.3497,-4.3497,-4.3497,0.0,0.0,0.0,0.0,0.0,0.0,0.0,-3.2447,-3.3366,-3.2504,-3.3091,-3.3587,-3.3587,-3.3715,-3.3807,-3.3807,-3.3807,-3.3807,-3.3807,-3.3807,-3.377,-3.3697,-3.3697,-3.3311,-3.2522,-3.0925,-2.8943,0.0,0.0,-2.1988,-2.0246,-1.9528,-2.0299,0.0,0.0,0.0,0.0,-2.9677,-3.098,-3.2467,-3.333,-3.3733,-3.3807,-3.3807,-3.3807,-3.378,-3.378,-3.4257,-3.488,-3.488,-3.4834,-3.4806,-3.4852,-3.5467,-3.6174,-3.6174,-3.6285,-3.656,-3.7323,-3.7562,-3.7771,-3.8524,-3.8707,-3.8303,-3.6762,-3.6413,-3.5954,-3.4357,-3.3972,-3.3403,-3.1696,-3.2467,-3.2368,0.0,0.0,0.0,0.0,0.0,0.0,0.0,0.0,0.0,0.0,0.0,0.0,0.0,0.0,0.0,-2.2758,-2.3015,0.0,-2.7805,0.0,-3.232,-3.4027,-3.6395,0.0,-3.8707,-3.8707,-3.8707,-3.8762,-4.0377,-4.1111,-4.1203,-4.28,-4.3497,-4.3497,-4.3497,-4.3497,-4.3497,-4.3497,-4.3497,-4.3497,-4.3497,-4.3497,-4.3497,0.0,0.0,0.0,0.0,0.0,0.0,0.0,-3.2875,-3.3385,-3.3057,-3.3479,-3.3807,-3.3807,-3.3807,-3.3807,-3.3807,-3.3807,-3.3807,-3.3807,-3.3807,-3.3807,-3.3807,-3.3807,-3.3642,-3.333,-3.2228,-3.0705,0.0,0.0,-2.408,-2.1988,-2.1675,0.0,0.0,0.0,-2.7603,-2.9806,-3.1091,-3.2027,-3.2687,-3.3476,-3.3807,-3.3844,-3.4339,-3.4523,-3.4596,-3.511,-3.5514,-3.5789,-3.5789,-3.576,-3.5742,-3.5789,-3.634,-3.7,-3.7,-3.7349,-3.7808,-3.812,-3.8212,-3.8303,-3.8615,-3.834,-3.7679,-3.656,-3.5899,-3.5202,-3.4045,-3.3807,-3.3605,-3.2963,-3.2577,-3.2247,0.0,0.0,0.0,0.0,0.0,0.0,0.0,0.0,0.0,0.0,0.0,0.0,0.0,0.0,0.0,0.0,-2.274,0.0,-2.6998,0.0,-3.2669,-3.3788,-3.6743,-3.8377,-3.8707,-3.8707,-3.8707,-3.8762,-4.0377,-4.1644,-4.258,-4.3222,-4.3497,-4.3497,-4.3497,-4.3497,-4.3497,-4.3497,-4.3497,-4.3497,-4.3497,-4.3497,-4.3497,-3.0564,0.0,-3.0332,0.0,-3.1479,-3.1466,-3.2474,-3.2939,-3.3124,-3.3001,-3.3379,-3.368,-3.3807,-3.3807,-3.3807,-3.3807,-3.3807,-3.3807,-3.3807,-3.3807,-3.3807,-3.3807,-3.3807,0.0,-3.3807,-3.3018,-3.1935,-3.0558,-2.8613,0.0,-2.4757,-2.4757,0.0,0.0,-2.8246,-2.9402,-3.0999,-3.2375,-3.3091,-3.3385,-3.4211,-3.4541,-3.4596,-3.5183,-3.5385,-3.5477,-3.6083,-3.645,-3.6652,-3.6652,-3.6798,-3.6964,-3.6725,-3.7202,-3.7845,-3.7845,-3.8248,-3.8707,-3.8707,-3.8707,-3.8707,-3.8707,-3.8102,-3.7276,-3.6468,-3.5642,-3.4752,-3.3972,-3.3807,-3.3807,-3.3807,-3.2871,-3.232,-3.2981,0.0,0.0,0.0,0.0,0.0,0.0,0.0,-2.3731,0.0,0.0,0.0,0.0,0.0,0.0,0.0,0.0,0.0,0.0,0.0,0.0,0.0,-3.6817,-3.8469,-3.8707,-3.8707,-3.8707,-3.8762,-4.0377,-4.1992,-4.3497,-4.3497,-4.3497,-4.3497,-4.3497,-4.3497,-4.3497,-4.3497,-4.3497,-4.3497,-4.3497,-4.3497,-4.3497,-3.1369,-3.1573,-3.1836,-3.2652,-3.2777,-3.2666,-3.2335,-3.2586,-3.2684,-3.2352,-3.2876,-3.3437,-3.3762,-3.3807,-3.3807,-3.3807,-3.3807,-3.3807,-3.3807,-3.3807,-3.3807,0.0,0.0,-3.3807,-3.3807,-3.3018,-3.221,-3.1384,0.0,0.0,-2.892,0.0,-2.9384,-3.0155,-3.0173,-3.1072,-3.2632,-3.344,-3.4247,-3.5045,-3.5917,-3.6266,-3.6266,-3.6266,-3.6285,-3.6285,-3.6303,-3.6798,-3.7477,-3.7477,-3.801,-3.8524,-3.7734,-3.8028,-3.8689,-3.8689,-3.8689,-3.8707,-3.8707,-3.8707,-3.8707,-3.8707,-3.8102,-3.7276,-3.6468,-3.5642,-3.4752,-3.3972,-3.3807,-3.3807,-3.3807,-3.377,-3.3256,-3.1678,0.0,0.0,0.0,0.0,0.0,0.0,-2.4483,-2.3327,-2.4116,0.0,0.0,0.0,0.0,0.0,0.0,0.0,0.0,-2.8828,-3.0558,0.0,-3.377,-3.6266,-3.79,-3.8707,-3.8707,-3.8707,-3.8762,-4.0377,-4.1992,-4.3497,-4.3497,-4.3497,-4.3497,-4.3497,-4.3497,-4.3497,-4.3497,-4.3497,-4.3497,-4.3497,-4.3497,-4.3497,-3.1673,-3.176,-3.183,-3.2056,-3.2109,-3.2073,-3.2001,-3.2249,-3.2403,-3.2318,-3.2684,-3.3198,-3.3849,-3.3647,-3.3465,0.0,-3.3243,-3.3214,0.0,-3.3975,-3.4116,-3.3825,-3.4339,-3.4633,-3.4633,-3.3844,-3.3293,-3.3036,0.0,0.0,0.0,-2.9824,-3.054,-3.1861,-3.2412,-3.3238,-3.4275,-3.5147,-3.5661,-3.5917,-3.6193,-3.6303,-3.6358,-3.689,-3.711,-3.7184,-3.7734,-3.8102,-3.8322,-3.8322,-3.8487,-3.867,-3.8395,-3.8487,-3.8707,-3.8707,-3.8707,-3.8707,-3.8707,-3.8707,-3.8707,-3.8707,-3.8102,-3.7276,-3.6468,-3.5202,-3.4119,-3.3844,-3.3807,-3.3807,-3.3807,-3.3807,-3.3458,-3.2394,-3.1751,0.0,0.0,0.0,0.0,0.0,0.0,-2.452,0.0,-2.4226,0.0,0.0,0.0,0.0,0.0,0.0,0.0,0.0,-3.188,0.0,-3.3807,-3.6798,-3.845,-3.8707,-3.8707,-3.9276,-4.0377,-4.1442,-4.2506,-4.3497,-4.3497,-4.3497,-4.3497,-4.3497,-4.3497,-4.3497,-4.3497,-4.3497,-4.3497,-4.3497,-4.3497,-4.3497,-3.18,-3.18,-3.18,-3.18,-3.18,-3.18,-3.18,-3.2191,-3.2545,-3.2545,-3.309,-3.3667,-3.418,-3.3975,0.0,-3.3962,-3.3784,-3.3752,-3.3944,-3.4443,-3.4591,-3.4316,-3.4788,-3.5121,-3.5257,0.0,0.0,-3.4743,-3.3733,-3.2981,-3.2485,-3.2485,-3.3036,-3.4009,-3.4504,-3.5018,-3.555,-3.6395,-3.6743,-3.678,-3.7074,-3.7202,-3.7257,-3.7753,-3.7936,-3.801,-3.8524,-3.8707,-3.8707,-3.8707,-3.8707,-3.8707,-3.8707,-3.8707,-3.8707,-3.8707,-3.8707,-3.8707,-3.8707,-3.8707,-3.8707,-3.8707,-3.8102,-3.7184,-3.6064,-3.5,-3.4174,-3.3862,-3.3807,-3.3807,-3.3807,-3.3807,-3.3532,-3.2742,-3.1916,-3.0834,-2.9214,0.0,0.0,0.0,0.0,0.0,0.0,-2.5823,0.0,0.0,0.0,0.0,0.0,0.0,0.0,-2.9567,-3.3128,0.0,-3.5183,-3.7514,-3.8707,-3.8707,-3.9019,-3.9845,-4.1148,-4.1937,-4.2745,-4.3497,-4.3497,-4.3497,-4.3497,-4.3497,-4.3497,-4.3497,-4.3497,-4.3497,-4.3497,-4.3497,-4.3497,-4.3497,-3.18,-3.18,0.0,0.0,-3.18,0.0,-3.1869,-3.2455,-3.2921,-3.299,-3.39,-3.4596,-3.4649,-3.4649,-3.4777,-3.5155,0.0,0.0,0.0,-3.5118,-3.5118,-3.5099,-3.5153,-3.5359,-3.5738,-3.5716,-3.5872,-3.6256,-3.6256,-3.6256,-3.6256,-3.6303,-3.6303,-3.6303,-3.6358,-3.6376,-3.6431,-3.7221,-3.7599,-3.7643,-3.8395,-3.8707,-3.8707,-3.8707,-3.8707,-3.8707,-3.8707,-3.8707,-3.8707,-3.8707,-3.8707,-3.8707,-3.8707,-3.8707,-3.8707,-3.8707,-3.8707,-3.8707,-3.8707,-3.8707,-3.8707,-3.8707,-3.8102,-3.7074,-3.555,-3.5064,-3.477,-3.4045,-3.3844,-3.3807,-3.3807,-3.3807,-3.3513,-3.2669,-3.188,-3.0815,-2.9163,0.0,0.0,0.0,0.0,0.0,0.0,-2.7493,-2.7934,0.0,0.0,0.0,0.0,0.0,-2.876,-3.2577,-3.4293,-3.5936,-3.7459,-3.8303,-3.8707,-3.8707,-3.957,-4.0377,-4.1148,-4.1992,-4.2782,-4.3497,-4.3497,-4.3497,-4.3497,-4.3497,-4.3497,-4.3497,-4.3497,-4.3497,-4.3497,-4.3497,-4.3497,-4.3497,0.0,0.0,-3.18,-3.18,-3.18,-3.199,-3.2559,-3.28,-3.3128,-3.3731,-3.4034,-3.4441,-3.5013,-3.5042,-3.5307,-3.5983,-3.4992,-3.4428,-3.4708,-3.5291,-3.5473,-3.5135,-3.5687,-3.6078,-3.6148,-3.5876,-3.5729,-3.5841,-3.5841,-3.5841,-3.5841,-3.615,-3.6303,-3.6321,-3.6927,-3.7202,-3.7257,-3.8065,-3.8414,-3.8432,-3.8615,-3.8707,-3.8707,-3.8707,-3.8707,-3.8707,-3.8707,-3.8707,-3.8707,-3.8707,-3.8707,-3.8707,-3.8707,-3.8707,-3.8707,-3.8707,-3.8707,-3.8707,-3.8707,-3.8707,-3.8707,-3.8707,-3.8102,-3.7386,-3.7,-3.5917,-3.4935,-3.4752,-3.4229,-3.3807,-3.3807,-3.3807,-3.333,-3.1898,-3.1513,-3.0613,-2.8393,-2.775,0.0,0.0,-2.7897,-2.8227,-2.8407,-2.9163,-2.9384,0.0,0.0,0.0,0.0,-3.0834,-3.1898,-3.3476,-3.5716,-3.7092,-3.7507,-3.8303,-3.8707,-3.8726,-4.0139,-4.0928,-4.1167,-4.2561,-4.3314,-4.3497,-4.3497,-4.3497,-4.3497,-4.3497,-4.3497,-4.3497,-4.3497,-4.3497,-4.3497,-4.3497,-4.3497,-4.3497,-3.18,-3.18,-3.18,-3.18,-3.2076,-3.2438,-3.2852,-3.3507,-3.4111,-3.4542,-3.4887,-3.5249,-3.5663,-3.5697,-3.5852,-3.6266,-3.5559,-3.5175,-3.5357,-3.5779,-3.5915,-3.5671,-3.6057,-3.64,-3.6589,-3.6346,-3.6343,-3.6514,-3.6514,-3.6514,-3.6532,-3.6912,-3.7106,-3.7155,-3.7766,-3.8046,-3.8065,-3.8505,-3.8707,-3.8707,-3.8707,-3.8707,-3.8707,-3.8707,-3.8707,-3.8707,-3.8707,-3.8707,-3.8707,-3.8707,-3.8707,-3.8707,-3.8707,-3.8707,-3.8707,-3.8707,-3.8707,-3.8707,-3.8707,-3.8707,-3.8707,-3.8707,-3.8377,-3.7936,-3.7599,-3.6798,-3.6046,-3.5679,-3.4945,-3.4357,-3.4357,-3.3752,-3.2852,-3.1586,-3.1091,-3.0136,-2.8081,-2.7787,0.0,-2.8301,-2.8741,-2.9287,-3.0026,-3.0834,-3.0962,-3.0173,0.0,0.0,-3.1825,-3.3403,-3.4321,-3.4357,-3.6395,-3.7661,-3.8028,-3.8487,-3.8707,-3.8726,-4.0341,-4.1111,-4.1167,-4.2763,-4.3497,-4.3497,-4.3497,-4.3497,-4.3497,-4.3497,-4.3497,-4.3497,-4.3497,-4.3497,-4.3497,-4.3497,-4.3497,-4.3497,-3.18,-3.18,-3.18,-3.18,-3.2403,-3.2938,-3.3059,-3.4283,-3.5232,-3.5335,-3.5904,-3.6301,-3.6301,-3.6301,-3.6301,-3.6301,-3.6301,-3.6301,-3.6301,-3.6301,-3.6301,-3.6301,-3.6301,-3.6451,-3.6781,-3.6821,-3.7017,-3.7432,-3.7432,-3.7432,-3.7432,-3.7844,-3.8,-3.8016,-3.8368,-3.8515,-3.8515,-3.8515,-3.8515,-3.8515,-3.8596,-3.8596,-3.8627,-3.8676,-3.8707,-3.8707,-3.8707,-3.8707,-3.8707,-3.8707,-3.8707,-3.8707,-3.8707,-3.8707,-3.8707,-3.8707,-3.8707,-3.8707,-3.8707,-3.8707,-3.8707,-3.8707,-3.8707,-3.8524,-3.7826,-3.7569,-3.7294,-3.6615,-3.5807,-3.5155,-3.5009,-3.3762,-3.2485,-3.1549,-3.0723,-2.9677,-2.8191,0.0,-2.8466,-2.9274,-2.9452,-3.0136,-3.1623,-3.2284,-3.2375,-3.1788,-3.3018,-3.3844,0.0,-3.5569,-3.6138,-3.5394,-3.6872,-3.801,-3.8689,-3.8707,-3.8707,-3.8726,-4.0341,-4.1111,-4.1167,-4.2763,-4.3497,-4.3497,-4.3497,-4.3497,-4.3497,-4.3497,-4.3497,-4.3497,-4.3497,-4.3497,-4.3497,-4.3497,-4.3497,-4.3497,-3.18,-3.18,-3.18,-3.18,-3.2403,-3.3128,-3.38,-3.4645,-3.5421,-3.6042,-3.6232,-3.6301,-3.6301,-3.6301,-3.6301,-3.6301,-3.6301,-3.6301,-3.6301,-3.6301,-3.6301,-3.6301,-3.6301,-3.6343,-3.6367,-3.6367,-3.6597,-3.6978,-3.6978,-3.6978,-3.7017,-3.7395,-3.7578,-3.7614,-3.765,-3.7685,-3.7685,-3.7685,-3.7685,-3.7721,-3.8068,-3.8186,-3.8219,-3.8564,-3.8707,-3.8707,-3.8707,-3.8707,-3.8707,-3.8707,-3.8707,-3.8707,-3.8707,-3.8707,-3.8707,-3.8707,-3.8707,-3.8707,-3.8707,-3.8707,-3.8707,-3.8707,-3.8707,-3.867,-3.8542,-3.7973,-3.7441,-3.7331,-3.667,-3.5881,-3.5137,-3.4247,-3.3128,-3.1623,-3.0723,-2.9879,-2.892,0.0,-3.0136,-3.0925,-3.1641,-3.2412,-3.333,-3.2926,-3.2834,-3.3385,-3.366,-3.41,-3.477,-3.6395,-3.7239,-3.711,-3.801,-3.8579,-3.8707,-3.8707,-3.8707,-3.8726,-4.0341,-4.1111,-4.1167,-4.2763,-4.3497,-4.3497,-4.3497,-4.3497,-4.3497,-4.3497,-4.3497,-4.3497,-4.3497,-4.3497,-4.3497,-4.3497,-4.3497,-4.3497,-3.18,-3.18,-3.18,-3.18,-3.2524,-3.3421,-3.4335,-3.5232,-3.5904,-3.6266,-3.6301,-3.6301,-3.6301,-3.6301,-3.6301,-3.6301,-3.6301,-3.6301,-3.6301,-3.6301,-3.6301,-3.6301,-3.6301,-3.6301,-3.6301,-3.6301,-3.6367,-3.6557,-3.6557,-3.6557,-3.6597,-3.6978,-3.717,-3.7208,-3.7395,-3.7505,-3.7505,-3.7505,-3.7505,-3.7542,-3.7948,-3.8101,-3.8135,-3.8564,-3.8964,-3.935,-3.935,-3.935,-3.935,-3.935,-3.9056,-3.8707,-3.8707,-3.8707,-3.8707,-3.8707,-3.8707,-3.8707,-3.8707,-3.8707,-3.8707,-3.8707,-3.8707,-3.8707,-3.8707,-3.8414,-3.8138,-3.8138,-3.7496,-3.6688,-3.5862,-3.4669,-3.355,-3.2797,-3.1292,0.0,0.0,-3.0522,-3.0668,-3.1898,-3.2375,-3.2926,-3.3715,-3.3458,-3.3587,-3.4394,-3.4468,-3.5,-3.6285,-3.7074,-3.7679,-3.812,-3.8505,-3.8707,-3.8707,-3.8707,-3.8707,-3.8726,-4.0341,-4.1111,-4.1167,-4.2763,-4.3497,-4.3497,-4.3497,-4.3497,-4.3497,-4.3497,-4.3497,-4.3497,-4.3497,-4.3497,-4.3497,-4.3497,-4.3497,-4.3497,-3.18,-3.18,-3.18,-3.18,-3.2438,-3.3369,-3.4611,-3.5645,-3.6301,-3.6301,-3.6301,-3.6301,-3.6301,-3.6301,-3.6301,-3.6301,-3.6301,-3.6301,-3.6301,-3.6301,-3.6301,-3.6301,-3.6301,-3.6301,-3.6301,-3.6301,-3.6301,-3.6301,-3.6301,-3.6301,-3.6301,-3.6597,-3.6741,-3.6781,-3.7094,-3.7228,-3.7228,-3.7228,-3.7228,-3.7246,-3.765,-3.7879,-3.8,-3.862,-3.9287,-3.9918,-4.0102,-4.0175,-4.0139,-3.9955,-3.9478,-3.8946,-3.8762,-3.8707,-3.8707,-3.8707,-3.8707,-3.8707,-3.8707,-3.8707,-3.8707,-3.8707,-3.8707,-3.8707,-3.8707,-3.8707,-3.8707,-3.8707,-3.8212,-3.7514,-3.6725,-3.5367,-3.4247,-3.3862,0.0,0.0,0.0,-3.1421,-3.1219,-3.2467,-3.2779,-3.3128,-3.3733,-3.3972,-3.4339,-3.4935,-3.5339,-3.6138,-3.7422,-3.7661,-3.8046,-3.8689,-3.8707,-3.8707,-3.8707,-3.8707,-3.8707,-3.8726,-4.0341,-4.1111,-4.1167,-4.2763,-4.3497,-4.3497,-4.3497,-4.3497,-4.3497,-4.3497,-4.3497,-4.3497,-4.3497,-4.3497,-4.3497,-4.3497,-4.3497,-4.3497,-3.18,-3.18,-3.18,-3.18,-3.1852,-3.2559,-3.449,-3.5645,-3.6301,-3.6301,-3.6301,-3.6301,-3.6301,-3.6301,-3.6301,-3.6301,-3.6301,-3.6301,-3.6301,-3.6301,-3.6301,-3.6301,-3.6301,-3.6301,-3.6301,-3.6301,-3.6301,-3.6301,-3.6301,-3.6301,-3.6301,-3.6343,-3.6326,-3.6343,-3.6385,-3.6367,-3.6367,-3.6367,-3.6367,-3.6409,-3.6821,-3.719,-3.7649,-3.8829,-3.9531,-3.9992,-4.0744,-4.102,-4.091,-4.0139,-3.9845,-3.968,-3.8927,-3.8707,-3.8707,-3.8707,-3.8707,-3.8707,-3.8707,-3.8707,-3.8707,-3.8707,-3.8707,-3.8707,-3.8707,-3.8707,-3.8707,-3.8707,-3.8652,-3.8377,-3.7551,-3.6688,-3.5605,-3.4045,0.0,0.0,-3.1568,-3.2027,-3.2485,-3.2596,-3.3256,-3.3733,-3.3788,-3.4486,-3.4935,-3.499,-3.6431,-3.7349,-3.7477,-3.8212,-3.8634,-3.8707,-3.8707,-3.8707,-3.8707,-3.8707,-3.8707,-3.8726,-4.0341,-4.1111,-4.1167,-4.2763,-4.3497,-4.3497,-4.3497,-4.3497,-4.3497,-4.3497,-4.3497,-4.3497,-4.3497,-4.3497,-4.3497,-4.3497,-4.3497,-4.3497,-3.18,-3.18,-3.18,-3.18,-3.2576,-3.3473,-3.4249,-3.5473,-3.6301,-3.6301,-3.6301,-3.6301,-3.6301,-3.6301,-3.6301,-3.6301,-3.6301,-3.6301,-3.6301,-3.6301,-3.6301,-3.6301,-3.6301,-3.6301,-3.6301,-3.6301,-3.6301,-3.6301,-3.6301,-3.6301,-3.6301,-3.6301,-3.6301,-3.6301,-3.6301,-3.6301,-3.6301,-3.6301,-3.6577,-3.7068,-3.7493,-3.7998,-3.8656,-3.9607,-4.0381,-4.1012,-4.1617,-4.1846,-4.1809,-4.1497,-4.1056,-4.0598,-4.0286,-3.9863,-3.935,-3.8854,-3.8707,-3.8707,-3.8707,-3.8707,-3.8707,-3.8707,-3.8707,-3.8707,-3.8707,-3.8707,-3.8707,-3.8707,-3.8707,-3.845,-3.7643,-3.7239,-3.6835,-3.6193,0.0,-3.377,-3.5,-3.3697,-3.3183,-3.4706,-3.4706,-3.4761,-3.5293,-3.5624,-3.6009,-3.6505,-3.7129,-3.7716,-3.8212,-3.8524,-3.8707,-3.8707,-3.8707,-3.8707,-3.8707,-3.8707,-3.8707,-3.8707,-3.9827,-4.0616,-4.1148,-4.2249,-4.302,-4.3497,-4.3497,-4.3497,-4.3497,-4.3497,-4.3497,-4.3497,-4.3497,-4.3497,-4.3497,-4.3497,-4.3497,-4.3497,-3.18,-3.18,-3.18,-3.18,-3.2662,-3.368,-3.4645,-3.5645,-3.6301,-3.6301,-3.6301,-3.6301,-3.6301,-3.6301,-3.6301,-3.6301,-3.6301,-3.6301,-3.6301,-3.6301,-3.6301,-3.6301,-3.6301,-3.6301,-3.6301,-3.6301,-3.6301,-3.6301,-3.6301,-3.6301,-3.6301,-3.6301,-3.6301,-3.6301,-3.6301,-3.6301,-3.6318,-3.6559,-3.6991,-3.7534,-3.8059,-3.8653,-3.9294,-4.011,-4.0885,-4.1669,-4.2266,-4.25,-4.2463,-4.2344,-4.1818,-4.1238,-4.1119,-4.0726,-4.012,-3.9313,-3.9074,-3.9019,-3.8781,-3.8707,-3.8707,-3.8707,-3.8707,-3.8707,-3.8707,-3.8707,-3.8707,-3.8707,-3.8707,-3.8524,-3.7973,-3.7863,-3.7771,-3.7533,-3.6064,-3.5459,-3.6909,-3.5183,-3.4394,-3.6101,-3.5771,-3.5642,-3.6229,-3.6523,-3.689,-3.7441,-3.7716,-3.812,-3.867,-3.8707,-3.8707,-3.8707,-3.8707,-3.8707,-3.8707,-3.8707,-3.8707,-3.8707,-3.9515,-4.0194,-4.0763,-4.1827,-4.2598,-4.313,-4.3387,-4.3497,-4.3497,-4.3497,-4.3497,-4.3497,-4.3497,-4.3497,-4.3497,-4.3497,-4.3497,-4.3497,-3.18,-3.18,-3.18,-3.18,-3.18,-3.2817,-3.5835,-3.6284,-3.6301,-3.6301,-3.6301,-3.6301,-3.6301,-3.6301,-3.6301,-3.6301,-3.6301,-3.6301,-3.6301,-3.6301,-3.6301,-3.6301,-3.6301,-3.6301,-3.6301,-3.6301,-3.6301,-3.6301,-3.6301,-3.6301,-3.6301,-3.6301,-3.6301,-3.6301,-3.6301,-3.6301,-3.6353,-3.7163,-3.7491,-3.756,-3.8301,-3.8842,-3.9298,-4.0112,-4.0918,-4.1722,-4.2592,-4.2882,-4.2848,-4.2425,-4.1975,-4.156,-4.1217,-4.113,-4.0965,-4.0139,-3.99,-3.9717,-3.8927,-3.8707,-3.8707,-3.8707,-3.8707,-3.8707,-3.8707,-3.8707,-3.8707,-3.8707,-3.8707,-3.8707,-3.8707,-3.8707,-3.8432,-3.7624,-3.7507,-3.7202,-3.6431,-3.6303,-3.6303,-3.6321,-3.6303,-3.6303,-3.6321,-3.7037,-3.7526,-3.7526,-3.8248,-3.8707,-3.8707,-3.8707,-3.8707,-3.8707,-3.8707,-3.8707,-3.8707,-3.8707,-3.8707,-3.8707,-3.9515,-3.9882,-3.9937,-4.1552,-4.2286,-4.2341,-4.3149,-4.3497,-4.3497,-4.3497,-4.3497,-4.3497,-4.3497,-4.3497,-4.3497,-4.3497,-4.3497,-4.3497,-3.1746,-3.18,-3.18,-3.18,-3.2369,-3.3386,-3.5007,-3.5852,-3.6301,-3.6301,-3.6301,-3.6301,-3.6301,-3.6301,-3.6301,-3.6301,-3.6301,-3.6301,-3.6301,-3.6301,-3.6301,-3.6301,-3.6301,-3.6301,-3.6301,-3.6301,-3.6301,-3.6301,-3.6301,-3.6301,-3.6301,-3.6301,-3.6301,-3.6318,-3.6887,-3.7129,-3.718,-3.7939,-3.856,-3.906,-3.9267,-3.9772,-4.0429,-4.0981,-4.1527,-4.2078,-4.2678,-4.3069,-4.3303,-4.3169,-4.3043,-4.2827,-4.2161,-4.1937,-4.1791,-4.0983,-4.0341,-3.9845,-3.9606,-3.9129,-3.8707,-3.8707,-3.8707,-3.8707,-3.8707,-3.8707,-3.8707,-3.8707,-3.8707,-3.8707,-3.8707,-3.8707,-3.8615,-3.8377,-3.7863,-3.7606,-3.7936,-3.7019,-3.6725,-3.7845,-3.7477,-3.7349,-3.7936,-3.8193,-3.834,-3.834,-3.856,-3.8707,-3.8707,-3.8707,-3.8707,-3.8707,-3.8707,-3.8707,-3.8707,-3.8707,-3.8707,-3.8707,-3.8946,-3.935,-3.9937,-4.0983,-4.1772,-4.2341,-4.3149,-4.3497,-4.3497,-4.3497,-4.3497,-4.3497,-4.3497,-4.3497,-4.3497,-4.3497,-4.3497,-4.3497,-3.1542,-3.1709,-3.18,-3.18,-3.2628,-3.3645,-3.4645,-3.5645,-3.6301,-3.6301,-3.6301,-3.6301,-3.6301,-3.6301,-3.6301,-3.6301,-3.6301,-3.6301,-3.6301,-3.6301,-3.6301,-3.6301,-3.6301,-3.6301,-3.6301,-3.6301,-3.6301,-3.6301,-3.6301,-3.6301,-3.6301,-3.6628,-3.6766,-3.6801,-3.7577,-3.7922,-3.7974,-3.8715,-3.9284,-3.9715,-4.0043,-4.0457,-4.0918,-4.1163,-4.1534,-4.1948,-4.2239,-4.248,-4.2752,-4.3142,-4.3375,-4.3406,-4.2928,-4.2763,-4.2616,-4.1809,-4.1001,-4.0304,-3.9992,-3.9313,-3.8707,-3.8707,-3.8707,-3.8707,-3.8707,-3.8707,-3.8707,-3.8707,-3.8707,-3.8707,-3.8707,-3.8707,-3.8707,-3.8707,-3.8285,-3.8138,-3.8634,-3.7863,-3.7606,-3.8579,-3.8267,-3.8175,-3.8652,-3.8707,-3.8707,-3.8707,-3.8707,-3.8707,-3.8707,-3.8707,-3.8707,-3.8707,-3.8707,-3.8707,-3.8707,-3.8707,-3.8707,-3.8707,-3.8707,-3.8946,-3.9441,-4.0267,-4.1056,-4.1882,-4.2671,-4.3204,-4.3497,-4.3497,-4.3497,-4.3497,-4.3497,-4.3497,-4.3497,-4.3497,-4.3497,-4.3497,-3.1257,-3.1504,-3.1709,-3.1709,-3.2586,-3.3584,-3.4553,-3.5587,-3.6259,-3.6301,-3.6301,-3.6301,-3.6301,-3.6301,-3.6301,-3.6301,-3.6301,-3.6301,-3.6301,-3.6301,-3.6301,-3.6301,-3.6301,-3.6301,-3.6301,-3.6301,-3.6301,-3.6301,-3.6301,-3.6335,-3.6422,-3.7146,-3.7525,-3.7611,-3.8353,-3.8681,-3.8732,-3.9491,-3.9802,-3.9871,-4.0595,-4.0888,-4.0888,-4.0888,-4.1163,-4.1472,-4.1472,-4.1516,-4.1692,-4.2537,-4.3105,-4.3444,-4.3444,-4.3479,-4.3351,-4.2616,-4.1846,-4.1038,-4.023,-3.9423,-3.8799,-3.8726,-3.8707,-3.8707,-3.8707,-3.8707,-3.8707,-3.8707,-3.8707,-3.8707,-3.8707,-3.8707,-3.8707,-3.8707,-3.8707,-3.8707,-3.8707,-3.8707,-3.8707,-3.8707,-3.8707,-3.8707,-3.8707,-3.8707,-3.8707,-3.8707,-3.8707,-3.8707,-3.8707,-3.8707,-3.8707,-3.8707,-3.8707,-3.8707,-3.8707,-3.8707,-3.8707,-3.8707,-3.8707,-3.8707,-3.8726,-3.9533,-4.0304,-4.1056,-4.1919,-4.2708,-4.3387,-4.3461,-4.3497,-4.3497,-4.3497,-4.3497,-4.3497,-4.3497,-4.3497,-4.3497,-3.0845,-3.0965,-3.1004,-3.1004,-3.2133,-3.3254,-3.3758,-3.5011,-3.6002,-3.6259,-3.6301,-3.6301,-3.6301,-3.6301,-3.6301,-3.6301,-3.6301,-3.6301,-3.6301,-3.6301,-3.6301,-3.6301,-3.6301,-3.6301,-3.6301,-3.6301,-3.6301,-3.6301,-3.6301,-3.6611,-3.7232,-3.7404,-3.7801,-3.8387,-3.9129,-3.9457,-3.9508,-4.0284,-4.0629,-4.0647,-4.0802,-4.0888,-4.0888,-4.0888,-4.1163,-4.1472,-4.1472,-4.1735,-4.2074,-4.2279,-4.2655,-4.3032,-4.3032,-4.3268,-4.3461,-4.3277,-4.2671,-4.1864,-4.1075,-4.0249,-3.9478,-3.8854,-3.8707,-3.8707,-3.8707,-3.8707,-3.8707,-3.8707,-3.8707,-3.8707,-3.8707,-3.8707,-3.8707,-3.8707,-3.8707,-3.8707,-3.8707,-3.8707,-3.8707,-3.8707,-3.8707,-3.8707,-3.8707,-3.8707,-3.8707,-3.8707,-3.8707,-3.8707,-3.8707,-3.8707,-3.8707,-3.8707,-3.8707,-3.8707,-3.8707,-3.8707,-3.8707,-3.8707,-3.8707,-3.8707,-3.8726,-3.9533,-3.9992,-4.023,-4.168,-4.2396,-4.2598,-4.3222,-4.3497,-4.3497,-4.3497,-4.3497,-4.3497,-4.3497,-4.3497,-4.3497,-3.0518,-3.0683,-3.0804,-3.0804,-3.201,-3.3084,-3.3271,-3.4711,-3.5871,-3.6045,-3.6216,-3.6301,-3.6301,-3.6301,-3.6301,-3.6301,-3.6301,-3.6301,-3.6301,-3.6301,-3.6301,-3.6301,-3.6301,-3.6301,-3.6301,-3.6301,-3.6301,-3.6301,-3.6301,-3.6715,-3.7491,-3.7853,-3.8405,-3.9146,-3.9922,-4.0267,-4.0284,-4.0698,-4.0888,-4.0888,-4.0888,-4.0888,-4.0888,-4.0888,-4.1041,-4.1192,-4.1192,-4.149,-4.1864,-4.1864,-4.2157,-4.2555,-4.2555,-4.2864,-4.3232,-4.3232,-4.2772,-4.2121,-4.1332,-4.0506,-3.9698,-3.8909,-3.8707,-3.8707,-3.8707,-3.8707,-3.8707,-3.8707,-3.8707,-3.8707,-3.8707,-3.8707,-3.8707,-3.8707,-3.8707,-3.8707,-3.8707,-3.8707,-3.8707,-3.8707,-3.8707,-3.8707,-3.8707,-3.8707,-3.8707,-3.8707,-3.8707,-3.8707,-3.8707,-3.8707,-3.8707,-3.8707,-3.8707,-3.8707,-3.8707,-3.8707,-3.8707,-3.8707,-3.8707,-3.8707,-3.8707,-3.9148,-3.9533,-3.9937,-4.0781,-4.1589,-4.2323,-4.2745,-4.3149,-4.3497,-4.3497,-4.3497,-4.3497,-4.3497,-4.3497,-4.3497,-3.0225,-3.0435,-3.0642,-3.0642,-3.1857,-3.2867,-3.2911,-3.4448,-3.5633,-3.5677,-3.6002,-3.6199,-3.6199,-3.6259,-3.6301,-3.6301,-3.6301,-3.6301,-3.6301,-3.6301,-3.6301,-3.6301,-3.6301,-3.6301,-3.6301,-3.6301,-3.6301,-3.6301,-3.6301,-3.6715,-3.7508,-3.8232,-3.8974,-3.9733,-4.0526,-4.0888,-4.0888,-4.0888,-4.0888,-4.0888,-4.0888,-4.0888,-4.0888,-4.0888,-4.0888,-4.0888,-4.0888,-4.1117,-4.1401,-4.1401,-4.1692,-4.2074,-4.2074,-4.2418,-4.2768,-4.2768,-4.2614,-4.2221,-4.1415,-4.0643,-3.99,-3.9111,-3.8799,-3.8707,-3.8707,-3.8707,-3.8707,-3.8707,-3.8707,-3.8707,-3.8707,-3.8707,-3.8707,-3.8707,-3.8707,-3.8707,-3.8707,-3.8707,-3.8707,-3.8707,-3.8707,-3.8707,-3.8707,-3.8707,-3.8707,-3.8707,-3.8707,-3.8707,-3.8707,-3.8707,-3.8707,-3.8707,-3.8707,-3.8707,-3.8707,-3.8707,-3.8707,-3.8707,-3.8707,-3.8707,-3.8707,-3.8707,-3.9056,-3.9698,-3.9827,-4.0653,-4.1901,-4.2047,-4.2488,-4.3075,-4.3075,-4.3167,-4.3296,-4.3442,-4.3497,-4.3497,-2.9946,-2.9989,-3.0017,-3.0017,-3.1177,-3.2259,-3.2545,-3.3892,-3.4961,-3.5224,-3.5633,-3.5871,-3.5871,-3.6131,-3.6301,-3.6301,-3.6301,-3.6301,-3.6301,-3.6301,-3.6301,-3.6301,-3.6301,-3.6301,-3.6301,-3.6301,-3.6301,-3.6301,-3.6301,-3.6715,-3.7508,-3.8232,-3.8974,-3.9733,-4.0526,-4.0888,-4.0888,-4.0888,-4.0888,-4.0888,-4.0888,-4.0888,-4.0888,-4.0888,-4.0888,-4.0888,-4.0888,-4.0918,-4.0965,-4.0965,-4.1237,-4.1604,-4.1604,-4.1906,-4.2279,-4.2279,-4.2544,-4.2613,-4.176,-4.1227,-4.0744,-3.9937,-3.9203,-3.8707,-3.8707,-3.8707,-3.8707,-3.8707,-3.8707,-3.8707,-3.8707,-3.8707,-3.8707,-3.8707,-3.8707,-3.8707,-3.8707,-3.8707,-3.8707,-3.8707,-3.8707,-3.8707,-3.8707,-3.8707,-3.8707,-3.8707,-3.8707,-3.8707,-3.8707,-3.8707,-3.8707,-3.8707,-3.8707,-3.8707,-3.8707,-3.8707,-3.8707,-3.8707,-3.8707,-3.8707,-3.8707,-3.8707,-3.8762,-3.8909,-3.9588,-4.001,-4.0267,-4.0983,-4.135,-4.1423,-4.1423,-4.1864,-4.2543,-4.3222,-4.3497,-4.3497,-2.9918,-2.9918,-2.9918,-2.9918,-3.0716,-3.1572,-3.2148,-3.3266,-3.4277,-3.4864,-3.5224,-3.5453,-3.5453,-3.581,-3.6088,-3.6301,-3.6301,-3.6301,-3.6301,-3.6301,-3.6301,-3.6301,-3.6301,-3.6301,-3.6301,-3.6301,-3.6301,-3.6301,-3.6301,-3.6715,-3.7508,-3.8232,-3.8974,-3.9733,-4.0526,-4.0888,-4.0888,-4.0888,-4.0888,-4.0888,-4.0888,-4.0888,-4.0888,-4.0888,-4.0888,-4.0888,-4.0888,-4.0888,-4.0888,-4.0888,-4.0995,-4.1163,-4.1163,-4.1445,-4.1821,-4.1821,-4.2115,-4.2375,-4.1776,-4.1179,-4.0589,-4.0052,-3.9294,-3.8707,-3.8707,-3.8707,-3.8707,-3.8707,-3.8707,-3.8707,-3.8707,-3.8707,-3.8707,-3.8707,-3.8707,-3.8707,-3.8707,-3.8707,-3.8707,-3.8707,-3.8707,-3.8707,-3.8707,-3.8707,-3.8707,-3.8707,-3.8707,-3.8707,-3.8707,-3.8707,-3.8707,-3.8707,-3.8707,-3.8707,-3.8707,-3.8707,-3.8707,-3.8707,-3.875,-3.8719,-3.8707,-3.8707,-3.8707,-3.8726,-3.9074,-3.9478,-3.9918,-4.0286,-4.0689,-4.1111,-4.1111,-4.1589,-4.2341,-4.269,-4.3146,-4.3548]}]]